[[{"header":{"parameterUnit":"m.s-1","parameterCategory":1,"la1":30.6,"la2":29.2853,"lo1":-89.7004,"lo2":-87.6739,"dy":0.0162,"dx":0.0183,"nx":112,"ny":82,"refTime":"2023-05-01T00:00:00:Z","depth":0,"parameterNumber":2,"parameterNumberName":"U-component_of_WINDS"},"data":[0.0,0.0,0.0,0.0,0.0,0.0,0.0,0.0,0.0,0.0,0.0,0.0,0.0,0.0,0.0,0.0,0.0,0.0,0.0,0.0,0.0,0.0,0.0,0.0,0.0,0.0,0.0,0.0,0.0,0.0,0.0,0.0,0.0,0.0,0.0,0.0,0.0,0.0,0.0,0.0,0.0,0.0,0.0,0.0,0.0,0.0,0.0,0.0,0.0,0.0,0.0,0.0,0.0,0.0,0.0,0.0,0.0,0.0,0.0,0.0,0.0,0.0,0.0,0.0,0.0,0.0,0.0,0.0,0.0,0.0,0.0,0.0,0.0,0.0,0.0,0.0,0.0,0.0,0.0,0.0,0.0,0.0,0.0,0.0,0.0,0.0,0.0,0.0,0.0,0.0,-1.5308,-1.8269,-1.9258,-1.9465,-1.8897,-1.8852,-1.7336,-1.3767,0.0,0.0,0.0,0.0,0.0,0.0,0.0,0.0,0.0,0.0,0.0,0.0,0.0,0.0,0.0,0.0,0.0,0.0,0.0,0.0,0.0,0.0,0.0,0.0,0.0,0.0,0.0,0.0,0.0,0.0,0.0,0.0,0.0,0.0,0.0,0.0,0.0,0.0,0.0,0.0,0.0,0.0,0.0,0.0,0.0,0.0,0.0,0.0,0.0,0.0,0.0,0.0,0.0,0.0,0.0,0.0,0.0,0.0,0.0,0.0,0.0,0.0,0.0,0.0,0.0,0.0,0.0,0.0,0.0,0.0,0.0,0.0,0.0,0.0,0.0,0.0,0.0,0.0,0.0,0.0,0.0,0.0,0.0,0.0,0.0,0.0,0.0,0.0,0.0,0.0,0.0,0.0,0.0,0.0,0.0,0.0,0.0,0.0,0.0,0.0,0.0,0.0,0.0,0.0,-1.7086,-1.9271,-1.9624,-1.9663,-1.9573,-1.9558,-1.815,-1.485,0.0,0.0,0.0,0.0,0.0,0.0,0.0,0.0,0.0,0.0,0.0,0.0,0.0,0.0,0.0,0.0,0.0,0.0,0.0,0.0,0.0,0.0,0.0,0.0,0.0,0.0,0.0,0.0,0.0,0.0,0.0,0.0,0.0,0.0,0.0,0.0,0.0,0.0,0.0,0.0,0.0,0.0,0.0,0.0,0.0,0.0,0.0,0.0,0.0,0.0,0.0,0.0,0.0,0.0,0.0,0.0,0.0,0.0,0.0,0.0,0.0,0.0,0.0,0.0,0.0,0.0,0.0,0.0,0.0,0.0,0.0,0.0,0.0,0.0,0.0,0.0,0.0,0.0,0.0,0.0,0.0,0.0,0.0,0.0,0.0,0.0,0.0,0.0,0.0,0.0,0.0,0.0,0.0,0.0,0.0,0.0,0.0,0.0,0.0,0.0,0.0,0.0,0.0,-1.7895,-1.9291,-1.9945,-2.0035,-1.9929,-1.9711,-1.9708,-1.8297,-1.5047,-1.3648,0.0,0.0,0.0,0.0,0.0,0.0,0.0,0.0,0.0,0.0,0.0,0.0,0.0,0.0,0.0,0.0,0.0,0.0,0.0,0.0,0.0,0.0,0.0,0.0,0.0,0.0,0.0,0.0,0.0,0.0,0.0,0.0,0.0,0.0,0.0,0.0,0.0,0.0,0.0,0.0,0.0,0.0,0.0,0.0,0.0,0.0,0.0,0.0,0.0,0.0,0.0,0.0,0.0,0.0,0.0,0.0,0.0,0.0,0.0,0.0,0.0,0.0,0.0,0.0,0.0,0.0,0.0,0.0,0.0,0.0,0.0,0.0,0.0,0.0,0.0,0.0,0.0,0.0,0.0,0.0,0.0,0.0,0.0,0.0,0.0,0.0,0.0,0.0,0.0,0.0,0.0,0.0,0.0,0.0,0.0,0.0,0.0,0.0,0.0,0.0,0.0,0.0,-1.9326,-2.0544,-2.0334,-2.0297,-2.0141,-1.9729,-1.9708,-1.8298,-1.5,-1.4105,0.0,0.0,0.0,0.0,0.0,0.0,0.0,0.0,0.0,0.0,0.0,0.0,0.0,0.0,0.0,0.0,0.0,0.0,0.0,0.0,0.0,0.0,0.0,0.0,0.0,0.0,0.0,0.0,0.0,0.0,0.0,0.0,0.0,0.0,0.0,0.0,0.0,0.0,0.0,0.0,0.0,0.0,0.0,0.0,0.0,0.0,0.0,0.0,0.0,0.0,0.0,0.0,0.0,0.0,0.0,0.0,0.0,0.0,0.0,0.0,0.0,0.0,0.0,0.0,0.0,0.0,0.0,0.0,0.0,0.0,0.0,0.0,0.0,0.0,0.0,0.0,0.0,0.0,0.0,0.0,0.0,0.0,0.0,0.0,0.0,0.0,0.0,0.0,0.0,0.0,0.0,0.0,0.0,0.0,0.0,0.0,0.0,0.0,0.0,0.0,0.0,0.0,-1.8267,-1.9712,-2.0242,-2.0297,-2.0141,-1.9729,-1.9708,-1.8298,-1.5,-1.4103,0.0,0.0,0.0,0.0,0.0,0.0,0.0,0.0,0.0,0.0,0.0,0.0,0.0,0.0,0.0,0.0,0.0,0.0,0.0,0.0,0.0,0.0,0.0,0.0,0.0,0.0,0.0,0.0,0.0,0.0,0.0,0.0,0.0,0.0,0.0,0.0,0.0,0.0,0.0,0.0,0.0,0.0,0.0,0.0,0.0,0.0,0.0,0.0,0.0,0.0,0.0,0.0,0.0,0.0,0.0,0.0,0.0,0.0,0.0,0.0,0.0,0.0,0.0,0.0,0.0,0.0,0.0,0.0,0.0,0.0,0.0,0.0,0.0,0.0,0.0,0.0,0.0,0.0,0.0,0.0,0.0,0.0,0.0,0.0,0.0,0.0,0.0,0.0,0.0,0.0,0.0,0.0,0.0,0.0,0.0,0.0,0.0,0.0,0.0,0.0,0.0,0.0,-1.937,-2.0766,-2.0749,-2.0747,-2.0448,-1.9747,-1.9708,-1.8298,-1.5,0.0,0.0,0.0,0.0,0.0,0.0,0.0,0.0,0.0,0.0,0.0,0.0,0.0,0.0,0.0,0.0,0.0,0.0,0.0,0.0,0.0,0.0,0.0,0.0,0.0,0.0,0.0,0.0,0.0,0.0,0.0,0.0,0.0,0.0,0.0,0.0,0.0,0.0,0.0,0.0,0.0,0.0,0.0,0.0,0.0,0.0,0.0,0.0,0.0,0.0,0.0,0.0,0.0,0.0,0.0,0.0,0.0,0.0,0.0,0.0,0.0,0.0,0.0,0.0,0.0,0.0,0.0,0.0,0.0,0.0,0.0,0.0,0.0,0.0,0.0,0.0,0.0,0.0,0.0,0.0,0.0,0.0,0.0,0.0,0.0,0.0,0.0,0.0,0.0,0.0,0.0,0.0,0.0,0.0,0.0,0.0,0.0,0.0,0.0,0.0,0.0,0.0,-1.834,-2.079,-2.2304,-2.1729,-2.1679,-2.1308,-2.0411,-2.0337,-1.89,-1.5578,0.0,0.0,0.0,0.0,0.0,0.0,0.0,0.0,0.0,0.0,0.0,0.0,0.0,0.0,0.0,0.0,0.0,0.0,0.0,0.0,0.0,0.0,0.0,0.0,0.0,0.0,0.0,0.0,0.0,0.0,0.0,0.0,0.0,0.0,0.0,0.0,0.0,0.0,0.0,0.0,0.0,0.0,0.0,0.0,0.0,0.0,0.0,0.0,0.0,0.0,0.0,0.0,0.0,0.0,0.0,0.0,0.0,0.0,0.0,0.0,0.0,0.0,0.0,0.0,0.0,0.0,0.0,0.0,0.0,0.0,0.0,0.0,0.0,0.0,0.0,0.0,0.0,0.0,0.0,0.0,0.0,0.0,0.0,0.0,0.0,0.0,0.0,0.0,0.0,0.0,0.0,0.0,0.0,0.0,0.0,0.0,0.0,0.0,0.0,0.0,0.0,0.0,-1.919,-2.2263,-2.4128,-2.319,-2.3101,-2.2723,-2.1794,-2.1695,-2.0243,0.0,0.0,0.0,0.0,0.0,0.0,0.0,0.0,0.0,0.0,0.0,0.0,0.0,0.0,0.0,0.0,0.0,0.0,0.0,0.0,0.0,0.0,0.0,0.0,0.0,0.0,0.0,0.0,0.0,0.0,0.0,0.0,0.0,0.0,0.0,0.0,0.0,0.0,0.0,0.0,0.0,0.0,0.0,0.0,0.0,0.0,0.0,0.0,0.0,0.0,0.0,0.0,0.0,0.0,0.0,0.0,0.0,0.0,0.0,0.0,0.0,0.0,0.0,0.0,0.0,0.0,0.0,0.0,0.0,0.0,0.0,0.0,0.0,0.0,0.0,0.0,0.0,0.0,0.0,0.0,0.0,0.0,0.0,0.0,0.0,0.0,0.0,0.0,0.0,0.0,0.0,0.0,0.0,0.0,0.0,0.0,0.0,0.0,0.0,0.0,0.0,0.0,0.0,-1.9517,-2.2427,-2.4128,-2.319,-2.3101,-2.2723,-2.1794,-2.1695,-2.0243,-1.6817,0.0,0.0,0.0,0.0,0.0,0.0,0.0,0.0,0.0,0.0,0.0,0.0,0.0,0.0,0.0,0.0,0.0,0.0,0.0,0.0,0.0,0.0,0.0,0.0,0.0,0.0,0.0,0.0,0.0,0.0,0.0,0.0,0.0,0.0,0.0,0.0,0.0,0.0,0.0,0.0,0.0,0.0,0.0,0.0,0.0,0.0,0.0,0.0,0.0,0.0,0.0,0.0,0.0,0.0,0.0,0.0,0.0,0.0,0.0,0.0,0.0,0.0,0.0,0.0,0.0,0.0,0.0,0.0,0.0,0.0,0.0,0.0,0.0,0.0,0.0,0.0,0.0,0.0,0.0,0.0,0.0,0.0,0.0,0.0,0.0,0.0,0.0,0.0,0.0,0.0,0.0,0.0,0.0,0.0,0.0,0.0,0.0,0.0,0.0,0.0,0.0,0.0,-2.0268,-2.3269,-2.5013,-2.4044,-2.3935,-2.3525,-2.2545,-2.2458,-2.1292,-1.8521,0.0,0.0,0.0,0.0,0.0,0.0,0.0,0.0,0.0,0.0,0.0,0.0,0.0,0.0,0.0,0.0,0.0,0.0,0.0,0.0,0.0,0.0,0.0,0.0,0.0,0.0,0.0,0.0,0.0,0.0,0.0,0.0,0.0,0.0,0.0,0.0,0.0,0.0,0.0,0.0,0.0,0.0,0.0,0.0,0.0,0.0,0.0,0.0,0.0,0.0,0.0,0.0,0.0,0.0,0.0,0.0,0.0,0.0,0.0,0.0,0.0,0.0,0.0,0.0,0.0,0.0,0.0,0.0,0.0,0.0,0.0,0.0,0.0,0.0,0.0,0.0,0.0,0.0,0.0,0.0,0.0,0.0,0.0,0.0,0.0,0.0,0.0,0.0,0.0,0.0,0.0,0.0,0.0,0.0,0.0,0.0,0.0,0.0,0.0,0.0,0.0,0.0,-2.1289,-2.4462,-2.6333,-2.5373,-2.524,-2.4792,-2.3752,-2.3638,-2.2857,-2.1114,0.0,0.0,0.0,0.0,0.0,0.0,0.0,0.0,0.0,0.0,0.0,0.0,0.0,0.0,0.0,0.0,0.0,0.0,0.0,0.0,0.0,0.0,0.0,0.0,0.0,0.0,0.0,0.0,0.0,0.0,0.0,0.0,0.0,0.0,0.0,0.0,0.0,0.0,0.0,0.0,0.0,0.0,0.0,0.0,0.0,0.0,0.0,0.0,0.0,0.0,0.0,0.0,0.0,0.0,0.0,0.0,0.0,0.0,0.0,0.0,-2.1001,0.0,0.0,0.0,0.0,0.0,0.0,0.0,0.0,0.0,0.0,0.0,0.0,0.0,0.0,0.0,0.0,0.0,0.0,0.0,0.0,0.0,0.0,0.0,0.0,0.0,0.0,0.0,0.0,0.0,0.0,0.0,0.0,0.0,0.0,0.0,0.0,0.0,0.0,0.0,0.0,0.0,-2.2003,-2.4786,-2.647,-2.5888,-2.5449,-2.495,-2.4287,-2.3837,-2.2857,-2.1114,-2.0532,0.0,0.0,0.0,0.0,0.0,0.0,0.0,0.0,0.0,0.0,0.0,0.0,0.0,0.0,0.0,0.0,0.0,0.0,0.0,0.0,0.0,0.0,0.0,0.0,0.0,0.0,0.0,0.0,0.0,0.0,0.0,0.0,0.0,0.0,0.0,0.0,0.0,0.0,0.0,0.0,0.0,0.0,0.0,0.0,0.0,0.0,0.0,0.0,0.0,0.0,0.0,0.0,0.0,0.0,0.0,0.0,0.0,0.0,0.0,-2.1987,-2.1119,0.0,0.0,0.0,0.0,0.0,0.0,0.0,0.0,0.0,0.0,0.0,0.0,0.0,0.0,0.0,0.0,0.0,0.0,0.0,0.0,0.0,0.0,0.0,0.0,0.0,0.0,0.0,0.0,0.0,0.0,0.0,0.0,0.0,0.0,0.0,0.0,0.0,0.0,0.0,0.0,-2.202,-2.4786,-2.6505,-2.6049,-2.5744,-2.5259,-2.4471,-2.4142,-2.3492,-2.2321,-2.1459,0.0,0.0,0.0,0.0,0.0,0.0,0.0,0.0,0.0,0.0,0.0,0.0,0.0,0.0,0.0,0.0,0.0,0.0,0.0,0.0,0.0,0.0,0.0,0.0,0.0,0.0,0.0,0.0,0.0,0.0,0.0,0.0,0.0,0.0,0.0,0.0,0.0,0.0,0.0,0.0,0.0,0.0,0.0,0.0,0.0,0.0,0.0,0.0,0.0,0.0,0.0,0.0,0.0,-2.2586,-2.2828,-2.2754,-2.2754,-2.2876,-2.3064,-2.321,-2.3842,-2.4661,-2.3027,0.0,0.0,0.0,0.0,0.0,0.0,0.0,0.0,0.0,0.0,0.0,0.0,0.0,0.0,0.0,0.0,0.0,0.0,0.0,0.0,0.0,0.0,-2.2307,-2.2919,-2.2662,-2.2543,-2.3584,0.0,0.0,0.0,0.0,0.0,0.0,0.0,0.0,0.0,0.0,0.0,-2.1886,-2.4705,-2.6539,-2.6157,-2.6049,-2.5652,-2.4736,-2.4576,-2.4307,-2.3773,-2.2387,-2.141,0.0,0.0,0.0,0.0,0.0,0.0,0.0,0.0,0.0,0.0,0.0,0.0,0.0,0.0,0.0,0.0,0.0,0.0,0.0,0.0,0.0,0.0,0.0,0.0,0.0,0.0,0.0,0.0,0.0,0.0,0.0,0.0,-2.2885,-2.452,0.0,0.0,0.0,0.0,0.0,0.0,0.0,0.0,0.0,0.0,0.0,0.0,0.0,-2.3006,-2.2953,-2.4375,-2.5072,-2.5046,-2.6423,-2.6903,-2.6575,-2.6575,-2.642,-2.6048,-2.4838,0.0,-2.3868,-2.377,0.0,0.0,0.0,0.0,0.0,0.0,0.0,0.0,0.0,0.0,0.0,0.0,0.0,0.0,0.0,0.0,0.0,0.0,0.0,0.0,0.0,0.0,-2.6014,-2.6099,-2.5119,-2.4532,-2.5933,-2.2549,-1.9618,-2.0809,-2.0019,-1.9026,0.0,0.0,0.0,0.0,0.0,0.0,-2.2194,-2.4866,-2.6674,-2.6607,-2.6244,-2.5943,-2.5799,-2.5354,-2.4871,-2.4328,-2.4076,-2.3046,-2.107,-2.186,0.0,0.0,0.0,0.0,0.0,0.0,0.0,0.0,0.0,0.0,0.0,0.0,0.0,0.0,0.0,0.0,0.0,0.0,0.0,0.0,0.0,0.0,0.0,0.0,0.0,0.0,0.0,0.0,0.0,-2.3656,-2.4692,-2.5073,-2.5087,-2.4247,0.0,0.0,0.0,0.0,0.0,0.0,0.0,0.0,0.0,-2.4712,-2.5586,-2.6038,-2.6038,-2.7508,-2.823,-2.8248,-2.8929,-2.916,-2.8976,-2.8521,-2.8222,-2.7983,-2.6887,-2.6281,-2.5964,-2.4764,-2.424,-2.4026,0.0,0.0,0.0,0.0,-2.0645,-2.1088,-2.1242,-2.2279,-2.3543,-2.3543,0.0,0.0,0.0,0.0,0.0,0.0,0.0,-2.2496,-2.3325,-2.4508,-2.5675,-2.6505,-2.6217,-2.5912,-2.6556,-2.4256,-2.2285,-2.2917,-2.1871,-2.0511,-1.946,-2.0157,0.0,0.0,0.0,-2.3377,-2.3513,-2.5405,-2.6691,-2.6691,-2.6521,-2.6297,-2.6015,-2.5781,-2.5411,-2.4875,-2.4835,-2.4271,-2.2965,-2.3384,-2.2464,0.0,0.0,0.0,0.0,0.0,0.0,0.0,0.0,0.0,0.0,0.0,0.0,0.0,0.0,0.0,0.0,0.0,0.0,0.0,0.0,0.0,0.0,0.0,0.0,0.0,0.0,0.0,0.0,-2.5198,-2.6153,-2.6237,-2.6519,-2.5958,0.0,0.0,0.0,0.0,0.0,0.0,-2.6494,-2.653,-2.6746,-2.7222,-2.8342,-2.8945,-2.8945,-3.0026,-3.0589,-3.0589,-3.0589,-3.0531,-3.0425,-2.9836,-2.9493,-2.937,-2.8773,-2.851,-2.8343,-2.6246,-2.5371,-2.5337,-2.4942,-2.4102,-2.3093,-2.262,-2.2681,-2.3008,-2.2897,-2.3833,-2.5082,-2.519,-2.5024,-2.4702,-2.4339,0.0,0.0,0.0,0.0,-2.3398,-2.4496,-2.5079,-2.5663,-2.6746,-2.6939,-2.6909,-2.7096,-2.5892,-2.4846,-2.5032,-2.3866,-2.2425,-2.1011,-2.1936,0.0,-2.048,-2.267,-2.4491,-2.4491,-2.5794,-2.6691,-2.6691,-2.6691,-2.6573,-2.6209,-2.6191,-2.5961,-2.543,-2.5392,-2.5163,-2.4632,-2.4471,-2.359,-2.1895,0.0,0.0,0.0,0.0,0.0,0.0,0.0,0.0,0.0,0.0,0.0,0.0,0.0,0.0,0.0,0.0,0.0,0.0,0.0,0.0,0.0,0.0,0.0,0.0,0.0,0.0,0.0,0.0,0.0,-2.9089,-2.9787,0.0,0.0,0.0,0.0,-2.5738,-2.572,-2.6578,-2.8366,-2.8469,-2.9289,-3.1066,-3.1194,-3.1231,-3.1231,-3.131,-3.1347,-3.1347,-3.1347,-3.118,-3.087,-3.0834,-3.0596,-3.0237,-3.0201,-3.0183,-3.0044,-2.8414,-2.7717,-2.7572,-2.6123,-2.5511,-2.5224,-2.344,-2.3701,-2.4898,-2.4524,-2.5354,-2.6656,-2.7026,-2.644,-2.5293,-2.3881,-2.3388,0.0,0.0,-2.4378,-2.5458,-2.5529,-2.664,-2.7752,-2.7823,-2.7545,-2.7463,-2.8174,-2.6853,-2.5761,-2.6437,-2.5405,-2.4355,-2.4255,0.0,-2.3866,-2.2383,-2.3494,-2.4491,-2.4491,-2.5794,-2.6691,-2.6691,-2.6691,-2.6691,-2.6674,-2.6657,-2.6453,-2.5979,-2.5959,-2.5707,-2.5182,-2.4672,-2.4358,-2.422,-2.2972,0.0,0.0,0.0,0.0,0.0,0.0,0.0,0.0,0.0,0.0,0.0,0.0,0.0,0.0,0.0,0.0,0.0,0.0,0.0,0.0,0.0,0.0,0.0,0.0,0.0,0.0,0.0,0.0,-2.9497,-2.9997,0.0,-2.8949,-2.9223,-2.9228,-2.8682,-3.0079,-3.1248,-3.1911,-3.1947,-3.2243,-3.2926,-3.2944,-3.2944,-3.2944,-3.2944,-3.2944,-3.2944,-3.2944,-3.2892,-3.2753,-3.2241,-3.1919,-3.1756,-3.1229,-3.1011,-3.0957,-3.0394,-2.9872,-2.939,-2.8837,-2.8621,-2.8536,-2.7855,-2.797,-2.842,-2.8285,-2.8574,-2.9029,-2.9169,-2.8965,-2.8571,-2.8313,-2.8054,-2.7901,-2.8146,-2.842,-2.8621,-2.8621,-2.9033,-2.9444,-2.9444,-2.9092,-2.886,-2.9121,-2.8442,-2.7876,-2.813,-2.6962,-2.5929,-2.5929,-2.6742,-2.6877,-2.5355,-2.642,-2.7402,-2.7402,-2.7859,-2.7977,-2.7452,-2.7401,-2.7232,-2.6742,-2.6691,-2.6641,-2.6453,-2.6453,-2.6228,-2.5726,-2.5202,-2.4752,-2.441,-2.358,-2.2194,0.0,0.0,0.0,0.0,0.0,0.0,0.0,0.0,0.0,0.0,0.0,0.0,0.0,0.0,0.0,0.0,0.0,0.0,0.0,0.0,0.0,0.0,0.0,0.0,0.0,0.0,-2.9773,-3.0587,-3.1119,-3.1219,-3.0675,-3.1109,-3.1421,-3.1421,-3.2908,-3.3807,-3.3807,-3.3807,-3.3807,-3.3807,-3.3807,-3.3807,-3.3807,-3.3807,-3.3807,-3.3807,-3.3807,-3.3807,-3.377,-3.3256,-3.2706,-3.221,-3.221,-3.1911,-3.1452,-3.2003,-3.1924,-3.1427,-3.0873,-3.0675,-3.0661,-3.0531,-3.0505,-3.0472,-3.0353,-3.0383,-3.0505,-3.0505,-3.0575,-3.0718,-3.0989,-3.0875,-3.0718,-3.0989,-3.0893,-3.0675,-3.0675,-3.0675,-3.0675,-3.0675,-3.035,-3.0113,-3.0362,-2.9672,-2.9197,-2.9826,-2.8609,-2.73,-2.6776,-2.7554,-2.7723,-2.62,-2.6826,-2.747,-2.747,-2.7927,-2.801,-2.7503,-2.7891,-2.7909,-2.7148,-2.6843,-2.6691,-2.6691,-2.6471,-2.6219,-2.6015,-2.5051,-2.4347,-2.394,-2.2958,-2.1933,-2.0885,0.0,0.0,0.0,0.0,0.0,0.0,0.0,0.0,0.0,0.0,0.0,0.0,0.0,0.0,0.0,0.0,0.0,0.0,0.0,0.0,0.0,0.0,0.0,-2.7754,-2.9928,-3.1715,-3.2528,-3.333,-3.3807,-3.3807,-3.3807,-3.3807,-3.3807,-3.3807,-3.3807,-3.3807,-3.3752,-3.3733,-3.3733,-3.3733,-3.3733,-3.3733,-3.377,-3.3807,-3.3807,-3.3807,-3.3807,-3.3807,-3.3807,-3.2944,-3.1562,-3.3109,-3.2908,-3.1599,-3.3164,-3.3807,-3.3642,-3.2082,-3.147,-3.1451,-3.1107,-3.1002,-3.0928,-3.0493,-3.0628,-3.1002,-3.1002,-3.12,-3.147,-3.147,-3.147,-3.147,-3.147,-3.147,-3.147,-3.147,-3.147,-3.147,-3.147,-3.1214,-3.1173,-3.187,-3.0505,-2.9638,-3.1445,-3.0326,-2.8605,-2.7114,-2.6826,-2.6369,-2.4914,-2.4711,0.0,-2.4711,-2.5963,-2.6826,-2.681,-2.8096,-2.8653,-2.7908,-2.7148,-2.6708,-2.6725,-2.6065,-2.5765,-2.6016,-2.4263,-2.3202,-2.3038,-2.1225,-2.1217,-2.3157,0.0,0.0,0.0,0.0,0.0,0.0,0.0,0.0,0.0,0.0,0.0,0.0,0.0,0.0,0.0,0.0,0.0,0.0,0.0,0.0,0.0,0.0,-3.0045,-3.0375,-3.0993,-3.1898,-3.3311,-3.3678,-3.3807,-3.3807,-3.3807,-3.3807,-3.3807,-3.3807,-3.3807,-3.3807,-3.2687,-3.2045,-3.2045,-3.2045,-3.2045,-3.2045,-3.322,-3.3807,-3.3807,-3.3807,-3.3807,-3.3807,-3.3807,-3.355,-3.3164,-3.3605,-3.355,-3.3164,-3.3623,-3.3807,-3.3752,-3.3311,-3.3128,-3.3115,-3.3035,-3.2994,-3.2816,-3.155,-3.1941,-3.2994,-3.2994,-3.308,-3.3128,-3.3128,-3.3128,-3.3128,-3.3128,-3.3128,-3.3128,-3.3128,-3.3128,-3.3128,-3.3128,-3.2839,-3.2621,-3.2838,-3.2181,-3.1592,-3.1775,-3.1388,-3.0809,-3.0099,-2.9956,-2.9839,-2.9433,-2.9347,-2.9347,-2.9347,-2.9702,-2.9753,-2.9228,-2.8534,-2.8281,-2.8636,-2.7452,-2.6928,-2.7452,-2.73,-2.6978,-2.6521,-2.5688,-2.4846,-2.4026,-2.2555,-2.1892,0.0,0.0,0.0,0.0,0.0,0.0,0.0,0.0,0.0,0.0,0.0,0.0,0.0,0.0,0.0,0.0,0.0,0.0,0.0,0.0,0.0,0.0,-2.9619,-3.1635,-3.2302,-3.2412,-3.2742,-3.3697,-3.3807,-3.3807,-3.3807,-3.3807,-3.3807,-3.3807,-3.3807,-3.3807,-3.3807,-3.2908,-3.2113,-3.1415,-3.2045,-3.2082,-3.1415,-3.2999,-3.3807,-3.3807,-3.3807,-3.3807,-3.3807,-3.3807,-3.3421,-3.2834,-3.3513,-3.3421,-3.2852,-3.3513,-3.3807,-3.3807,0.0,0.0,0.0,0.0,-3.3807,-3.366,-3.2724,-3.3018,-3.3807,-3.3807,-3.3807,-3.3807,-3.3807,-3.333,-3.2779,-3.2779,-3.2302,-3.1953,-3.2614,-3.2779,-3.2963,-3.3642,-3.3606,-3.3447,-3.3447,-3.2586,-3.1852,-3.2056,-3.1394,0.0,-3.115,-3.0683,-3.0076,-2.9397,-2.9313,-2.9313,-2.9313,-2.9871,-3.0108,-2.9685,-2.9397,-2.9296,-2.9448,-2.8367,0.0,0.0,0.0,-2.6809,-2.5614,-2.5227,0.0,0.0,0.0,-2.1874,-2.2002,-2.1001,0.0,0.0,-2.0353,-1.9318,0.0,0.0,0.0,0.0,0.0,0.0,0.0,0.0,0.0,0.0,0.0,0.0,0.0,0.0,0.0,0.0,-3.0613,-3.2155,-3.3605,-3.3807,-3.3807,-3.3807,-3.3807,-3.3807,-3.3807,-3.3807,-3.3807,-3.3807,-3.3807,-3.3807,-3.3807,0.0,0.0,0.0,0.0,-3.2834,-3.1415,-3.2999,-3.3807,-3.3807,-3.3807,-3.3807,-3.3807,-3.3807,-3.3018,-3.1745,-3.3183,-3.2981,-3.1782,-3.3201,-3.3807,-3.3807,-3.3807,-3.3807,-3.377,-3.3605,-3.3642,-3.377,-3.3587,0.0,0.0,-3.3807,-3.3807,-3.3807,-3.3807,-3.2797,-3.1672,-3.1672,-3.065,-2.9867,-3.1292,-3.1672,-3.2027,-3.3458,-3.3807,-3.3793,-3.3734,-3.2328,-3.1332,-3.2252,-3.094,-2.9986,-3.1031,-3.0127,-2.879,-2.7402,-2.7199,-2.7199,-2.7199,-2.84,-2.9247,-2.9247,-3.0279,0.0,-3.0277,-2.9465,-2.9044,-2.9128,-2.769,-2.6101,-2.4497,-2.4183,-2.3127,-2.1169,-2.1405,-2.1909,-2.2614,-2.2211,-2.3067,-2.5022,-2.1759,-2.1133,0.0,0.0,0.0,0.0,0.0,0.0,0.0,0.0,0.0,0.0,0.0,0.0,0.0,0.0,0.0,-3.0846,-3.2284,-3.344,-3.3752,-3.3807,-3.3807,-3.3807,-3.3807,-3.3807,-3.3807,-3.3807,-3.3807,-3.3807,-3.3807,-3.3807,-3.3807,-3.2559,-3.1727,-3.1415,-3.1709,-3.1709,-3.1397,-3.2999,-3.3807,-3.3807,-3.3807,0.0,-3.3807,-3.3807,-3.3623,-3.3348,-3.366,-3.3623,-3.3348,-3.366,-3.3807,-3.3807,-3.3807,-3.3807,-3.3642,-3.2351,-3.2687,-3.3605,-3.2302,-3.2706,-3.3807,-3.3807,-3.3807,-3.3807,-3.3807,-3.3587,0.0,-3.333,-3.3109,-3.2944,-3.3256,-3.333,-3.3403,-3.3733,-3.3807,-3.3707,-3.3394,-3.3008,-3.2594,-3.2039,-3.1618,-3.1297,-3.1237,-3.0954,-3.0666,-3.0362,-3.0328,-3.0328,-3.0328,-3.0581,-3.0768,-3.0768,-2.9974,-2.9856,-3.0903,-2.9771,-2.9264,-2.9854,-2.8432,-2.7417,-2.7078,-2.6455,-2.5747,-2.4944,-2.4998,-2.4696,-2.4007,-2.3921,-2.4121,-2.4536,-2.3807,-2.3897,0.0,0.0,0.0,0.0,0.0,0.0,0.0,0.0,0.0,0.0,0.0,-2.8589,0.0,0.0,-3.027,-3.1243,-3.2076,-3.2871,-3.3697,-3.4156,-3.4252,-3.3844,-3.3807,-3.3807,-3.3807,-3.3807,-3.3972,-3.4362,-3.4399,-3.4596,-3.5018,-3.4284,-3.3471,-3.2632,-3.3403,-3.344,-3.2596,-3.4229,-3.5055,-3.5055,-3.5055,-3.4816,-3.4399,-3.4399,-3.4192,-3.3807,-3.3807,-3.3807,-3.3807,-3.3807,-3.3807,-3.3807,-3.3807,-3.3807,-3.3697,-3.2889,-3.3109,-3.3697,-3.2871,-3.3128,-3.3807,-3.3807,-3.3807,-3.3807,-3.3807,-3.3238,-3.2596,-3.2596,-3.2027,-3.1586,-3.2394,-3.2596,-3.2797,-3.3605,-3.3807,-3.3734,-3.3536,-3.3332,-3.306,-3.2582,-3.2127,-3.1734,-3.1528,-3.1332,-3.119,-3.119,-3.119,-3.119,-3.119,-3.119,-3.119,-3.119,-3.055,-3.0395,-3.114,-3.0514,-3.0091,-3.0108,-2.9379,-2.8601,-2.7841,-2.7435,-2.6856,-2.6013,-2.6013,-2.5615,-2.4796,-2.4532,-2.4552,-2.4796,-2.4796,-2.4934,0.0,0.0,0.0,0.0,0.0,0.0,0.0,0.0,-2.9347,-2.9116,-2.9521,-2.9922,-2.9922,-2.9922,-3.0363,-3.1672,-3.199,-3.254,-3.3862,-3.4729,-3.5004,-3.4357,-3.4284,-3.4284,-3.4284,-3.4284,-3.4559,-3.5206,-3.5261,-3.5555,-3.6266,-3.6303,-3.5679,-3.4321,-3.5605,-3.5642,-3.4302,-3.5624,-3.6303,-3.6303,-3.6303,-3.5936,-3.5261,-3.5261,-3.4894,-3.4284,-3.4119,-3.3935,-3.3807,-3.3807,-3.3807,-3.3807,-3.3807,-3.3807,-3.3807,-3.3807,-3.3807,-3.3807,-3.3807,-3.3807,-3.3807,-3.3807,-3.3807,-3.3807,-3.3807,-3.2889,-3.1874,-3.1874,-3.0925,-3.0234,-3.1531,-3.1874,-3.2192,-3.3495,-3.3807,-3.3793,-3.3707,-3.3437,-3.3184,-3.3075,-3.2383,-3.1807,-3.1807,-3.1468,-3.119,-3.119,-3.119,-3.119,-3.119,-3.119,-3.119,-3.119,-3.119,-3.119,-3.119,-3.119,-3.0954,-3.0362,-3.0192,-2.9531,-2.8297,-2.7959,-2.7345,-2.6354,-2.6205,-2.5888,-2.5354,-2.4914,-2.4875,-2.5202,-2.5202,-2.5259,-2.532,-2.3827,-2.3517,-2.5056,-2.669,-2.8024,0.0,0.0,-3.2379,-3.1302,-3.2252,-3.3256,-3.3256,-3.3256,-3.333,-3.3495,-3.4124,-3.4656,-3.4839,-3.5624,-3.6119,-3.6028,-3.6009,-3.6009,-3.6009,-3.6009,-3.6064,-3.6156,-3.6156,-3.6193,-3.6285,-3.6303,-3.6211,-3.6028,-3.6193,-3.6211,-3.6009,-3.6211,-3.6303,-3.6303,-3.6303,-3.6248,-3.6156,-3.6156,-3.6101,-3.5973,-3.5206,-3.4454,-3.3807,-3.3807,-3.3807,-3.3807,-3.3807,-3.3807,-3.3807,-3.3807,-3.3807,-3.3807,-3.3807,-3.3807,-3.3807,-3.3807,-3.3807,-3.3807,-3.3807,-3.366,-3.3532,-3.3532,-3.3403,-3.3293,-3.3476,-3.3532,-3.3587,-3.3752,-3.3807,-3.3707,-3.3346,-3.3229,-3.3075,-3.2665,-3.2161,-3.1807,-3.1807,-3.1468,-3.119,-3.119,-3.119,-3.119,-3.119,-3.119,-3.119,-3.119,-3.119,-3.119,-3.119,-3.119,-3.1157,-3.1072,-3.0463,-3.0021,-2.9835,-2.8534,-2.7739,-2.7601,-2.6961,-2.6384,-2.5906,-2.5852,-2.5615,-2.5202,-2.5202,-2.5465,-2.6237,-2.6599,-2.7338,-2.8255,-2.9916,-3.1379,-3.1545,-3.2598,-3.341,-3.29,-3.333,-3.3807,-3.3807,-3.3018,-3.2852,0.0,-3.3995,-3.4105,-3.555,-3.6468,-3.6997,-3.6997,-3.6578,-3.5917,-3.4945,-3.5734,-3.6083,-3.5573,-3.645,-3.7202,-3.7661,-3.7698,-3.7765,-3.7914,-3.7933,-3.8024,-3.8215,-3.8215,-3.8111,-3.7933,-3.7933,-3.7599,-3.6997,-3.6997,-3.6725,-3.6266,-3.5917,-3.5293,-3.4491,-3.4491,-3.4215,-3.3807,-3.3807,-3.3807,-3.3807,-3.3807,-3.3807,-3.3807,-3.3807,-3.3807,-3.3807,-3.3807,-3.3807,-3.3807,-3.3807,-3.3807,-3.3807,-3.3807,-3.3807,-3.3807,-3.3807,-3.3807,-3.3807,-3.3807,-3.3807,-3.3748,-3.3578,-3.355,-3.3494,-3.3284,-3.2919,-3.2614,-3.2614,-3.2021,-3.1564,-3.1564,-3.1351,-3.119,-3.119,-3.119,-3.119,-3.119,-3.119,-3.119,-3.119,-3.119,-3.119,-3.119,-3.0903,-3.0548,-3.0125,-2.948,-2.872,-2.7824,-2.7503,-2.7045,-2.6401,-2.6138,-2.5888,-2.567,-2.567,-2.5797,-2.6645,-2.797,-2.9312,-3.052,-3.1997,-3.3256,-3.3697,-3.3807,-3.3807,-3.3807,-3.3807,-3.3807,-3.3807,-3.3036,-3.2981,-3.4729,-3.4399,-3.4578,-3.6376,-3.7327,-3.7676,-3.7217,-3.6652,-3.5459,-3.333,-3.5055,-3.6229,-3.6032,-3.7147,-3.8098,-3.867,-3.8707,-3.8788,-3.8985,-3.8985,-3.9122,-3.9352,-3.9352,-3.9223,-3.8985,-3.9058,-3.866,-3.7841,-3.7841,-3.7401,-3.6615,-3.6615,-3.6156,-3.5353,-3.5353,-3.4857,-3.4137,-3.4137,-3.4009,-3.3807,-3.3807,-3.3807,-3.3807,-3.3807,-3.3807,-3.3807,-3.3807,-3.3807,-3.3807,-3.3807,-3.3807,-3.3807,-3.3807,-3.3807,-3.3807,-3.3807,-3.3807,-3.3807,-3.3807,-3.3807,-3.3807,-3.3807,-3.3807,-3.3807,-3.3807,-3.3375,-3.3045,-3.3184,-3.2315,-3.1678,-3.1789,-3.1468,-3.119,-3.119,-3.119,-3.119,-3.119,-3.119,-3.119,-3.119,-3.119,-3.119,-3.119,-3.119,-3.0954,-3.0429,-3.0226,-2.9565,-2.8466,-2.8229,-2.7774,-2.6996,-2.665,-2.6391,-2.6191,-2.6067,-2.6067,-2.5989,-2.6043,-2.656,-3.0022,-3.118,-3.1892,-3.344,-3.3807,-3.3807,-3.3807,-3.3807,-3.3807,-3.3807,-3.4399,-3.4912,-3.5004,-3.6321,-3.7382,-3.7456,-3.8157,-3.8083,-3.6523,-3.6303,-3.5018,0.0,-3.4394,-3.6945,-3.8469,-3.8634,-3.867,-3.8707,-3.8707,-3.8707,-3.8704,-3.8704,-3.8723,-3.8719,-3.8719,-3.8719,-3.8723,-3.899,-3.8943,-3.867,-3.867,-3.8212,-3.7456,-3.7456,-3.7015,-3.6266,-3.6266,-3.5752,-3.4968,-3.4968,-3.4491,-3.3807,-3.3807,-3.3807,-3.3807,-3.3807,-3.3807,-3.3807,-3.3807,-3.3807,-3.3807,-3.3807,-3.3807,-3.3807,-3.3807,-3.3807,-3.3807,-3.3807,-3.3807,-3.3807,-3.3807,-3.3807,-3.3807,-3.3807,-3.3807,-3.3807,-3.3807,-3.3121,-3.2665,-3.3105,-3.2109,-3.1351,-3.1734,-3.1468,-3.119,-3.119,-3.119,-3.119,-3.119,-3.119,-3.119,-3.119,-3.119,-3.119,-3.119,-3.119,-3.119,-3.1157,-3.048,-3.0072,-3.0021,-2.9331,-2.8569,-2.7773,-2.7755,-2.7384,-2.6674,-2.6209,-2.6244,-2.5815,-2.7446,-2.9462,-3.087,-3.2109,-3.3128,-3.3678,-3.3807,-3.3807,-3.3807,-3.2944,-3.2223,-3.2223,-3.1568,-3.172,-3.3848,-3.377,-3.4591,-3.7845,-3.6652,-3.6064,-3.7698,-3.5973,0.0,0.0,0.0,0.0,-3.5495,-3.7477,-3.8707,-3.8707,-3.8707,-3.8773,-3.8961,-3.8975,-3.9068,-3.9288,-3.9307,-3.9189,-3.8957,-3.8884,-3.8788,-3.8707,-3.8707,-3.856,-3.8303,-3.8303,-3.7826,-3.7107,-3.7107,-3.6597,-3.5862,-3.5862,-3.5334,-3.4601,-3.4601,-3.4266,-3.3807,-3.3807,-3.3807,-3.3807,-3.3807,-3.3807,-3.3807,-3.3807,-3.3807,-3.3807,-3.3807,-3.3807,-3.3807,-3.3807,-3.3807,-3.3807,-3.3807,-3.3807,-3.3721,-3.3465,-3.339,-3.3317,-3.2996,-3.2713,-3.255,-3.2713,-3.2109,-3.1547,-3.143,-3.1291,-3.119,-3.119,-3.119,-3.119,-3.119,-3.119,-3.119,-3.119,-3.119,-3.119,-3.119,-3.119,-3.119,-3.119,-3.0954,-3.0598,-3.0106,-2.9854,-2.9364,-2.8586,-2.806,-2.7672,-2.7401,-2.6774,-2.6556,-2.6876,-2.9188,-3.1574,-3.2475,-3.3458,-3.4215,-3.4215,-3.4009,-3.3807,-3.3807,-3.2981,-3.2082,-3.1507,-3.0797,-3.106,-3.3421,-3.3164,-3.41,-3.8138,-3.689,-3.6119,-3.7661,-3.5973,-3.5293,0.0,0.0,0.0,-3.4761,-3.6652,-3.7845,-3.7845,-3.7845,-3.8184,-3.8929,-3.8961,-3.9054,-3.9281,-3.9281,-3.9223,-3.9099,-3.8829,-3.8747,-3.8844,-3.8732,-3.8395,-3.7863,-3.845,-3.8083,-3.7125,-3.7694,-3.7441,-3.674,-3.674,-3.6211,-3.5463,-3.5463,-3.5147,-3.4614,-3.4009,-3.3807,-3.3807,-3.3807,-3.3807,-3.3807,-3.3807,-3.3807,-3.3807,-3.3807,-3.3807,-3.3807,-3.3807,-3.3807,-3.3807,-3.3807,-3.3807,-3.3694,-3.3288,-3.3199,-3.306,-3.2599,-3.2349,-3.2298,-3.2467,-3.2109,-3.166,-3.1252,-3.119,-3.119,-3.119,-3.119,-3.119,-3.119,-3.119,-3.119,-3.119,-3.119,-3.119,-3.119,-3.119,-3.119,-3.119,-3.119,-3.097,-3.0497,-3.0497,-3.0125,-2.9381,-2.8855,-2.8331,-2.779,-2.73,-2.6945,-2.8993,-3.1034,-3.2778,-3.4618,-3.5041,-3.5004,-3.5004,-3.438,-3.377,-3.3697,-3.3605,-3.3054,0.0,0.0,-3.2472,-3.3403,-3.4197,-3.5591,-3.8141,-3.8487,-3.7918,0.0,0.0,0.0,0.0,0.0,0.0,-3.6303,0.0,-3.6413,-3.6413,-3.6413,-3.7129,-3.8652,-3.8707,-3.8707,-3.8707,-3.8707,-3.8829,-3.9072,-3.8815,-3.8829,-3.9072,-3.8833,-3.7863,-3.6505,-3.8046,-3.7826,-3.6541,-3.8065,-3.8248,-3.7566,-3.7566,-3.707,-3.6358,-3.6358,-3.634,-3.6064,-3.4486,-3.3899,-3.3844,-3.3807,-3.3807,-3.3807,-3.3807,-3.3807,-3.3807,-3.3807,-3.3807,-3.3807,-3.3807,-3.3807,-3.3807,-3.3807,-3.3807,-3.3694,-3.3258,-3.3169,-3.3014,-3.2534,-3.2057,-3.1915,-3.235,-3.2057,-3.1641,-3.1269,-3.119,-3.119,-3.119,-3.119,-3.119,-3.119,-3.119,-3.119,-3.119,-3.119,-3.119,-3.119,-3.119,-3.119,-3.119,-3.119,-3.119,-3.119,-3.119,-3.0852,-3.0176,-3.0125,-2.9345,-2.7925,-2.7841,-2.7418,-2.9523,-3.196,-3.4554,-3.5701,-3.5481,-3.5004,-3.5004,-3.438,-3.3458,-3.226,-3.1054,-2.9549,0.0,0.0,0.0,-2.9794,-3.0399,0.0,-3.5426,-3.5426,0.0,-3.6193,0.0,-3.6597,-3.7386,-3.7845,0.0,0.0,-3.7404,-3.8083,-3.8083,-3.8083,-3.8285,-3.8689,-3.8707,-3.8707,-3.8707,-3.8707,-3.8735,-3.8803,-3.8735,-3.8735,-3.8803,-3.8735,-3.8487,-3.812,-3.8524,-3.8469,-3.812,-3.8542,-3.8579,-3.8395,-3.8395,-3.79,-3.7199,-3.7199,-3.6813,-3.6229,-3.5807,-3.5238,-3.4601,-3.399,-3.3807,-3.3807,-3.3807,-3.3807,-3.3807,-3.3807,-3.3807,-3.3807,-3.3807,-3.3807,-3.3807,-3.3807,-3.3807,-3.3592,-3.284,-3.2681,-3.2451,-3.1675,-3.143,-3.1389,-3.1506,-3.143,-3.1312,-3.121,-3.119,-3.119,-3.119,-3.119,-3.119,-3.119,-3.119,-3.119,-3.119,-3.119,-3.119,-3.119,-3.119,-3.119,-3.119,-3.119,-3.119,-3.119,-3.119,-3.1106,-3.092,-3.0378,-2.9886,-2.948,-2.8331,-2.7705,-3.1815,-3.4027,-3.6211,-3.6688,-3.6193,-3.5371,-3.4637,-3.3587,-3.2192,-3.0222,-2.9108,0.0,-2.5319,-2.4787,0.0,0.0,0.0,0.0,-3.4527,-3.4931,-3.5238,0.0,-3.6611,0.0,-3.9074,-3.9551,-3.9386,0.0,-3.8267,-3.8175,-3.8175,-3.8505,-3.9019,-3.9719,-3.9753,-3.9753,-3.9753,-3.9405,-3.9239,-3.9221,-3.8872,-3.8707,-3.8707,-3.8707,-3.8322,-3.7698,-3.8395,-3.8303,-3.7698,-3.8414,-3.8707,-3.8707,-3.8707,-3.8414,-3.8028,-3.8028,-3.7734,-3.7294,-3.6945,-3.6505,-3.5973,-3.5165,-3.4651,-3.4325,-3.4325,-3.4082,-3.3807,-3.3807,-3.3807,-3.3807,-3.3807,-3.3807,-3.3807,-3.3807,-3.3807,-3.362,-3.295,-3.2648,-3.223,-3.1368,-3.119,-3.119,-3.119,-3.119,-3.119,-3.119,-3.119,-3.119,-3.119,-3.119,-3.119,-3.119,-3.119,-3.119,-3.119,-3.119,-3.119,-3.119,-3.119,-3.119,-3.119,-3.119,-3.119,-3.119,-3.119,-3.119,-3.119,-3.0784,-3.0429,-3.0072,-2.921,-2.8635,-3.4435,-3.6138,-3.7492,-3.7492,-3.6905,-3.5881,-3.4321,-3.254,-3.0589,-2.8275,0.0,-2.6667,-2.4593,-2.486,-2.6164,-2.8473,0.0,-3.1935,-3.3922,-3.5298,-3.6083,-3.5973,-3.6868,-3.8135,-3.9735,-4.0432,-4.0857,-4.1077,-3.9258,-3.8098,-3.7988,-3.8634,-3.9646,-4.1058,-4.1095,-4.1095,-4.1095,-4.0414,-4.0065,-4.0047,-3.9239,-3.8854,-3.8854,-3.8762,-3.7936,-3.6688,-3.8083,-3.7918,-3.6725,-3.812,-3.8707,-3.8707,-3.8707,-3.8707,-3.8707,-3.8707,-3.8707,-3.8597,-3.7915,-3.7658,-3.7511,-3.6597,-3.5789,-3.5169,-3.5169,-3.4601,-3.3972,-3.3972,-3.388,-3.3807,-3.3807,-3.3807,-3.3807,-3.3807,-3.3807,-3.3694,-3.3288,-3.2777,-3.2161,-3.1368,-3.119,-3.119,-3.119,-3.119,-3.119,-3.119,-3.119,-3.119,-3.119,-3.119,-3.119,-3.119,-3.119,-3.119,-3.119,-3.119,-3.119,-3.119,-3.119,-3.119,-3.119,-3.119,-3.1171,-3.1075,-3.1151,-3.1151,-3.1075,-3.1151,-3.0869,-3.0243,-3.0159,-2.9753,-3.4105,-3.5716,-3.7492,-3.7492,-3.6905,-3.6046,-3.5023,-3.2509,0.0,0.0,-2.6209,-2.4704,-2.4281,-2.486,-2.5962,-2.7714,-2.9365,-3.032,-3.0087,-3.3041,-3.4986,0.0,-3.617,-3.8135,-3.9735,-3.9423,0.0,0.0,-4.1332,-4.1185,-4.0508,-4.06,-4.0802,-4.1095,-4.1095,-4.1095,-4.1095,-4.0948,-4.0875,-4.0875,-4.0084,-3.968,-3.9662,-3.9001,-3.856,-3.8303,-3.8579,-3.8542,-3.8303,-3.8579,-3.8707,-3.8707,-3.8707,-3.8707,-3.8707,-3.8707,-3.8707,-3.8689,-3.8542,-3.8487,-3.8248,-3.678,-3.6193,-3.6064,-3.6064,-3.5463,-3.4784,-3.4784,-3.4307,-3.3807,-3.3807,-3.3807,-3.3807,-3.3807,-3.3807,-3.3694,-3.3288,-3.2533,-3.1788,-3.1291,-3.119,-3.119,-3.119,-3.119,-3.119,-3.119,-3.119,-3.119,-3.119,-3.119,-3.119,-3.119,-3.119,-3.119,-3.119,-3.119,-3.119,-3.119,-3.119,-3.119,-3.119,-3.119,-3.0975,-3.0477,-3.0955,-3.0938,-3.0456,-3.0975,-3.1123,-3.0987,-3.0378,-3.0021,-3.4137,-3.5917,-3.801,-3.7603,-3.6905,-3.5514,-3.2546,0.0,0.0,0.0,-2.3088,-2.2152,-2.1739,-2.2675,0.0,-2.7339,-2.9145,-3.065,-3.194,-3.3793,0.0,-3.5092,-3.689,-3.8432,0.0,-3.968,-4.027,-4.104,-4.1462,-4.1682,-4.1735,-4.2121,-4.2359,-4.2359,-4.2359,-4.2359,-4.2359,-4.1937,-4.1735,-4.1717,-4.091,-4.0304,-3.9882,-3.9496,-3.9093,-3.8707,-3.8707,-3.823,-3.7514,-3.8358,-3.8212,-3.7533,-3.8377,-3.8707,-3.8707,-3.8707,-3.8707,-3.8707,-3.8707,-3.8707,-3.8579,-3.7808,-3.7257,-3.6923,-3.6923,-3.634,-3.5573,-3.5133,-3.4729,-3.4325,-3.3917,-3.3807,-3.3807,-3.3807,-3.3807,-3.3694,-3.3288,-3.2647,-3.2039,-3.1603,-3.1332,-3.119,-3.119,-3.119,-3.119,-3.119,-3.119,-3.119,-3.119,-3.119,-3.119,-3.119,-3.119,-3.119,-3.119,-3.119,-3.119,-3.119,-3.119,-3.119,-3.119,-3.119,-3.1055,-3.076,-3.1055,-3.1055,-3.076,-3.1055,-3.119,-3.119,-3.0835,-3.0666,-3.4321,-3.6083,-3.7991,-3.7165,-3.6486,-3.4835,-3.0289,-2.8374,0.0,-2.1942,-2.0749,-2.0474,-2.038,-2.1574,-2.3832,0.0,-2.909,-3.0815,-3.4032,-3.4491,-3.4931,0.0,-3.7716,0.0,-3.9184,-4.0361,0.0,-4.1589,-4.1625,-4.1901,-4.2525,-4.3149,-4.3515,-4.3515,-4.3515,-4.3515,-4.3515,-4.2873,-4.2561,-4.2543,-4.1754,-4.1038,-4.0396,-4.0047,-3.9551,-3.8946,-3.8781,-3.779,-3.6413,-3.8046,-3.7753,-3.645,-3.8065,-3.8707,-3.8707,-3.8707,-3.8707,-3.8707,-3.8707,-3.8707,-3.8707,-3.8707,-3.8267,-3.7768,-3.7768,-3.7199,-3.6376,-3.5518,-3.5151,-3.4821,-3.4009,-3.3807,-3.3807,-3.3807,-3.3807,-3.3694,-3.3288,-3.2825,-3.2367,-3.188,-3.1487,-3.119,-3.119,-3.119,-3.119,-3.119,-3.119,-3.119,-3.119,-3.119,-3.119,-3.119,-3.119,-3.119,-3.119,-3.119,-3.119,-3.119,-3.119,-3.119,-3.119,-3.119,-3.1151,-3.1015,-3.1015,-3.0938,-3.0818,-3.0938,-3.1015,-3.1015,-3.1151,-3.119,-3.4527,-3.5697,-3.6303,-3.5445,-3.5169,-3.4234,-3.087,0.0,-2.596,-2.3318,-2.1557,-2.1171,-2.3345,-2.4475,-2.6146,-2.9439,0.0,-2.9145,-3.2362,-3.2821,-3.3683,-3.6009,0.0,0.0,-4.0728,-4.1003,-4.1717,-4.3167,-4.3277,-4.3296,-4.3404,-4.346,-4.3515,-4.3515,-4.3515,-4.3515,-4.3515,-4.3441,-4.3404,-4.3386,-4.2561,-4.2158,-4.2029,-4.0561,-3.9845,-3.9753,-3.9019,-3.779,-3.6413,-3.8046,-3.7753,-3.645,-3.8065,-3.8707,-3.8707,-3.8707,-3.8707,-3.8707,-3.8707,-3.8707,-3.8707,-3.8707,-3.8652,-3.8597,-3.8597,-3.8028,-3.7217,-3.6413,-3.561,-3.4821,-3.4009,-3.3807,-3.3807,-3.3807,-3.3807,-3.3694,-3.3288,-3.2825,-3.2367,-3.188,-3.1487,-3.119,-3.119,-3.119,-3.119,-3.119,-3.119,-3.119,-3.119,-3.119,-3.119,-3.119,-3.119,-3.119,-3.119,-3.119,-3.119,-3.119,-3.119,-3.119,-3.119,-3.119,-3.0938,-3.0393,-3.0393,-3.0123,-2.9563,-3.0123,-3.0393,-3.0393,-3.0938,-3.119,-3.2159,-3.4156,-3.6083,-3.5224,-3.5004,-3.3793,-2.9097,0.0,-2.5629,-2.2199,-2.097,-2.0951,-2.2492,-2.34,-2.485,0.0,0.0,0.0,-3.339,-3.3628,-3.4431,-3.7386,-3.9166,0.0,0.0,0.0,-4.137,-4.2011,-4.2066,-4.2488,-4.346,-4.3515,-4.3515,-4.3515,-4.3515,-4.3515,-4.3515,-4.3515,-4.3515,-4.3515,-4.3167,-4.2763,-4.2286,-4.1644,-4.1075,-4.0616,-4.027,-3.838,-3.572,-3.834,-3.7588,-3.5055,-3.7679,-3.8707,-3.8707,-3.8707,-3.8707,-3.8707,-3.8707,-3.8707,-3.8707,-3.8707,-3.8707,-3.8707,-3.8707,-3.8487,-3.8046,-3.7254,-3.6413,-3.5587,-3.4729,-3.4174,-3.3734,-3.3494,-3.3451,-3.3317,-3.2872,-3.24,-3.2022,-3.1843,-3.1487,-3.119,-3.119,-3.119,-3.119,-3.119,-3.119,-3.119,-3.119,-3.119,-3.119,-3.119,-3.119,-3.119,-3.119,-3.119,-3.119,-3.119,-3.119,-3.119,-3.119,-3.119,-3.1075,-3.0858,-3.0477,-3.0187,-2.9935,-2.9805,-2.9761,-2.9761,-3.0,-3.0123,-3.065,-3.2999,-3.5404,-3.4802,-3.4289,-3.2638,0.0,0.0,-2.4859,-2.1245,-2.0713,-2.1143,-2.1987,-2.2813,-2.4153,0.0,0.0,-2.8932,-3.3628,-3.3793,-3.4578,0.0,0.0,-3.9882,0.0,-4.0873,-4.1809,-4.1809,-4.1809,-4.2304,-4.3441,-4.3515,-4.3515,-4.3515,-4.3515,-4.3515,-4.3515,-4.3515,-4.3515,-4.3515,-4.3515,-4.2947,-4.1956,-4.2194,-4.1735,-4.0763,-4.1003,-3.9205,-3.6307,-3.9111,-3.8285,-3.5495,-3.8065,-3.9056,-3.9038,-3.8799,-3.8707,-3.8707,-3.8707,-3.8707,-3.8707,-3.8707,-3.8707,-3.8707,-3.8707,-3.8707,-3.8524,-3.7731,-3.6725,-3.5742,-3.5023,-3.4227,-3.3522,-3.309,-3.2999,-3.2905,-3.2567,-3.2127,-3.1807,-3.1807,-3.1487,-3.119,-3.119,-3.119,-3.119,-3.119,-3.119,-3.119,-3.119,-3.119,-3.119,-3.119,-3.119,-3.119,-3.119,-3.119,-3.119,-3.119,-3.119,-3.119,-3.119,-3.119,-3.119,-3.119,-3.0617,-3.0208,-3.0038,-2.9607,-2.9316,-2.9134,-2.9316,-2.9406,-3.0882,-3.2577,-3.3825,-3.3807,-3.2614,-3.0589,0.0,0.0,-2.3511,-2.1006,-2.1198,-2.2033,-2.2841,-2.3657,-2.4979,-2.7412,0.0,0.0,-3.2271,-3.2619,0.0,0.0,0.0,-3.8469,-4.0838,-4.2525,-4.3478,-4.3478,-4.3478,0.0,-4.3515,-4.3515,-4.3515,-4.3515,-4.3515,-4.3515,-4.3515,-4.3515,-4.3515,-4.3515,-4.3515,-4.2653,-4.1132,-4.1937,-4.1423,-3.9955,-4.0747,-4.0159,-3.8799,-4.0416,-4.0104,-3.8726,-3.9551,-3.9882,-3.979,-3.9001,-3.8707,-3.8707,-3.8707,-3.8707,-3.8707,-3.8707,-3.8707,-3.8707,-3.8707,-3.8707,-3.8524,-3.7731,-3.6303,-3.492,-3.4516,-3.3795,-3.3075,-3.2616,-3.2517,-3.2501,-3.2501,-3.2127,-3.1807,-3.1807,-3.1487,-3.119,-3.119,-3.119,-3.119,-3.119,-3.119,-3.119,-3.119,-3.119,-3.119,-3.119,-3.119,-3.119,-3.119,-3.119,-3.119,-3.119,-3.119,-3.119,-3.119,-3.119,-3.119,-3.119,-3.0617,-3.0016,-2.9406,-2.9406,-2.9088,-2.8511,-2.9111,-2.9406,-2.6607,-2.8382,-3.0059,-2.9551,-2.9588,-2.8925,-2.5695,-2.4989,-2.4328,-2.1886,-2.2042,-2.2868,-2.3676,-2.4025,-2.4979,-2.7412,-2.8007,0.0,0.0,0.0,0.0,-3.7661,-3.9148,-4.0689,0.0,0.0,-4.2323,-4.3423,-4.2488,-4.2341,-4.3441,-4.3515,-4.3515,-4.3515,-4.3515,-4.3515,-4.3515,-4.3515,-4.3515,-4.3515,-4.3515,-4.2653,-4.115,-4.2506,-4.2231,-4.0799,-4.2158,-4.1515,-3.9643,-4.1258,-4.0653,-3.8836,-4.0194,-4.0726,-4.0616,-3.9827,-3.9515,-3.9441,-3.8891,-3.8707,-3.8707,-3.8707,-3.8707,-3.8707,-3.8707,-3.8707,-3.8524,-3.7731,-3.7125,-3.6344,-3.4787,-3.421,-3.3679,-3.2336,-3.2022,-3.195,-3.1675,-3.1487,-3.1389,-3.1389,-3.1291,-3.119,-3.119,-3.119,-3.119,-3.119,-3.119,-3.119,-3.119,-3.119,-3.119,-3.119,-3.119,-3.119,-3.119,-3.119,-3.119,-3.119,-3.119,-3.119,-3.119,-3.119,-3.1015,-3.058,-2.9978,-2.9384,-2.8779,-2.8376,-2.8076,-2.7894,-2.8076,-2.8174,0.0,-2.5751,-2.7367,-2.6916,-2.692,0.0,0.0,-2.405,-2.3704,-2.251,-2.3382,-2.4327,-2.4226,-2.4942,-2.575,-2.6337,-2.7982,-2.9989,0.0,0.0,0.0,-3.7041,0.0,0.0,0.0,-4.2598,-4.2415,-4.3423,-4.2561,-4.2433,-4.346,-4.3515,-4.3515,-4.3515,-4.3515,-4.3515,-4.3515,-4.3515,-4.3515,-4.3515,-4.3515,-4.2653,-4.115,-4.2763,-4.2616,-4.1187,-4.28,-4.2652,0.0,-4.2341,-4.1864,-4.0579,-4.1277,-4.1535,-4.146,-4.0653,-4.0157,-3.9827,-3.9331,-3.8946,-3.8707,-3.8707,-3.8707,-3.8707,-3.8707,-3.8707,-3.8597,-3.8083,-3.7731,-3.7164,-3.569,-3.4713,-3.383,-3.258,-3.1922,-3.1507,-3.1252,-3.119,-3.119,-3.119,-3.119,-3.119,-3.119,-3.119,-3.119,-3.119,-3.119,-3.119,-3.119,-3.119,-3.119,-3.119,-3.119,-3.119,-3.119,-3.119,-3.119,-3.119,-3.119,-3.119,-3.119,-3.0975,-3.0679,-3.0293,-2.9695,-2.9088,-2.8487,-2.7894,-2.76,-2.76,-2.76,-2.76,0.0,-2.4201,-2.5415,-2.5361,-2.4469,0.0,0.0,0.0,0.0,-2.3033,-2.5059,-2.6224,-2.4795,-2.6465,-2.7273,-2.4924,-2.8448,-3.0962,0.0,-3.139,0.0,0.0,-3.7371,0.0,-4.3039,-4.3441,-4.3515,-4.3515,-4.3515,-4.3515,-4.3515,-4.3515,-4.3515,-4.3515,-4.3515,-4.3515,-4.3515,-4.3515,-4.3441,-4.3331,-4.346,-4.2598,-4.0985,-4.2708,-4.2616,-4.1187,-4.28,-4.3515,-4.3515,-4.3515,-4.3515,-4.3441,-4.2671,-4.2396,-4.2286,-4.148,-4.0689,-3.9974,-3.9918,-3.9368,-3.8707,-3.8707,-3.8707,-3.8707,-3.8707,-3.8707,-3.8707,-3.8707,-3.8157,-3.7457,-3.6939,-3.534,-3.3723,-3.3224,-3.2181,-3.1258,-3.1207,-3.119,-3.119,-3.119,-3.119,-3.119,-3.119,-3.119,-3.119,-3.119,-3.119,-3.119,-3.119,-3.119,-3.119,-3.119,-3.119,-3.119,-3.119,-3.119,-3.119,-3.119,-3.119,-3.119,-3.119,-3.0617,-3.0272,-3.023,-2.9607,-2.9012,-2.8415,-2.7885,-2.76,-2.76,-2.76,-2.76,-1.8967,0.0,-2.1604,-2.1043,-2.1281,-2.1639,0.0,0.0,0.0,0.0,0.0,-2.7293,-2.7779,-2.9347,-2.9971,-2.8161,-3.0363,-3.2179,-3.1812,0.0,0.0,-3.6028,-3.9239,-4.1515,-4.1662,-4.2782,-4.3515,-4.3515,-4.3515,-4.3515,-4.3515,-4.3515,-4.3515,-4.3515,-4.3515,-4.3515,-4.3515,-4.3515,-4.2873,-4.168,-4.291,-4.2011,-3.9368,-4.2194,-4.2616,-4.1187,-4.28,-4.3515,-4.3515,-4.3515,-4.3515,-4.3478,-4.3277,-4.3222,-4.3112,-4.2304,-4.1515,-4.0728,-4.0102,-3.9368,-3.8707,-3.8707,-3.8707,-3.8707,-3.8707,-3.8707,-3.8707,-3.8707,-3.856,-3.8156,-3.7084,-3.6128,-3.5065,-3.3468,-3.2556,-3.1887,-3.1309,-3.119,-3.119,-3.119,-3.119,-3.119,-3.119,-3.119,-3.119,-3.119,-3.119,-3.119,-3.119,-3.119,-3.119,-3.119,-3.119,-3.119,-3.119,-3.119,-3.119,-3.119,-3.119,-3.119,-3.119,-3.0617,-3.0064,-2.9629,-2.8551,-2.7944,-2.781,-2.7675,-2.76,-2.76,-2.76,-2.76,-1.78,-1.8523,-1.9413,-2.006,-2.0216,-2.0578,0.0,0.0,0.0,0.0,0.0,-2.7659,-2.8794,-2.9702,-3.0008,-2.9133,-3.0399,0.0,0.0,0.0,-3.634,-3.6303,-3.8542,-4.0359,0.0,-4.2561,-4.3515,-4.3515,-4.3515,-4.3515,-4.3515,-4.3515,-4.3515,-4.3515,-4.3515,-4.3515,-4.3515,-4.3515,-4.269,-4.1113,-4.2727,-4.2194,-3.99,-4.2359,-4.302,-4.2213,-4.2341,-4.2818,-4.3441,-4.269,-4.2818,-4.3515,-4.3515,-4.3515,-4.346,-4.3002,-4.2341,-4.1552,-4.0726,-3.968,-3.8707,-3.8707,-3.8707,-3.8707,-3.8707,-3.8707,-3.8707,-3.8707,-3.8707,-3.8551,-3.7854,-3.6839,-3.565,-3.4268,-3.3093,-3.2107,-3.136,-3.119,-3.119,-3.119,-3.119,-3.119,-3.119,-3.119,-3.119,-3.119,-3.119,-3.119,-3.119,-3.119,-3.119,-3.119,-3.119,-3.119,-3.119,-3.119,-3.119,-3.119,-3.0955,-3.0797,-3.0797,-2.9935,-2.9203,-2.8591,-2.7944,-2.76,-2.76,-2.76,-2.76,-2.76,-2.76,-2.76,-1.78,-1.7969,-1.8662,-2.0835,-2.0294,-2.0073,-2.3264,0.0,0.0,0.0,0.0,0.0,0.0,-3.0076,0.0,-2.9317,0.0,0.0,-3.366,-3.4894,-3.5793,-3.6413,-3.7639,0.0,-4.093,-4.2561,-4.3515,-4.3515,-4.3515,-4.3515,-4.3515,-4.3515,-4.3515,-4.3515,-4.3515,-4.3515,-4.3515,-4.3515,-4.269,-4.1113,-4.2727,-4.2653,-4.115,-4.2763,-4.3515,-4.3423,-4.2066,-4.2249,-4.3404,-4.2029,-4.2268,-4.3515,-4.3515,-4.3515,-4.3515,-4.3515,-4.2983,-4.2176,-4.124,-3.9955,-3.8707,-3.8707,-3.8707,-3.8707,-3.8707,-3.8707,-3.8673,-3.8611,-3.8643,-3.8707,-3.8707,-3.7458,-3.5988,-3.5261,-3.3753,-3.2276,-3.1532,-3.1275,-3.119,-3.119,-3.119,-3.119,-3.119,-3.119,-3.119,-3.119,-3.119,-3.119,-3.119,-3.119,-3.119,-3.119,-3.119,-3.119,-3.119,-3.119,-3.1151,-3.1055,-3.058,-3.0208,-3.0038,-2.9042,-2.8213,-2.761,-2.76,-2.76,-2.76,-2.76,-2.76,-2.76,-2.76,-2.76,-1.78,-1.8713,-2.0065,-2.1721,-2.0526,-1.9915,0.0,0.0,0.0,0.0,0.0,0.0,0.0,-3.5067,-3.5642,0.0,0.0,-3.2839,0.0,0.0,-3.7936,-3.7382,0.0,-4.2176,-4.1187,-4.2561,-4.3515,-4.3515,-4.3515,-4.3515,-4.3515,-4.3515,-4.3515,-4.3515,-4.3515,-4.3515,-4.3515,-4.3515,-4.269,-4.1113,-4.2727,-4.2653,-4.115,-4.2763,-4.3515,-4.3496,-4.3239,-4.3276,-4.3478,-4.3222,-4.3277,-4.3515,-4.3515,-4.3515,-4.3515,-4.3515,-4.2983,-4.2084,-4.0598,-3.9478,-3.8707,-3.8707,-3.8707,-3.8707,-3.8707,-3.8707,-3.8611,-3.815,-3.835,-3.8707,-3.8707,-3.7874,-3.682,-3.6023,-3.4495,-3.3034,-3.2293,-3.165,-3.119,-3.119,-3.119,-3.119,-3.119,-3.119,-3.119,-3.119,-3.119,-3.119,-3.119,-3.119,-3.119,-3.119,-3.119,-3.119,-3.119,-3.119,-3.0995,-3.0477,-3.0351,-2.9848,-2.8826,-2.8606,-2.8213,-2.761,-2.76,-2.76,-2.76,-2.76,-2.76,-2.76,-2.76,-2.76,-1.8302,-1.8882,-2.0352,-2.4291,-2.3448,-2.2788,0.0,0.0,0.0,0.0,0.0,0.0,0.0,0.0,-3.3678,-3.2357,0.0,-3.6009,-3.6303,-3.7716,-3.8726,0.0,0.0,-4.1919,-4.1168,-4.2561,-4.3515,-4.3515,-4.3515,-4.3515,-4.3515,-4.3515,-4.3515,-4.3515,-4.3515,-4.3515,-4.3515,-4.3515,-4.269,-4.1113,-4.2727,-4.2653,-4.115,-4.2763,-4.3515,-4.346,-4.258,-4.269,-4.3441,-4.2561,-4.2708,-4.3515,-4.3515,-4.3515,-4.3515,-4.3515,-4.2708,-4.1552,-4.0799,-3.9753,-3.8707,-3.8707,-3.8707,-3.8707,-3.8707,-3.8496,-3.8216,-3.7963,-3.8082,-3.8218,-3.7965,-3.734,-3.6554,-3.5805,-3.4794,-3.3677,-3.2547,-3.2039,-3.1684,-3.1275,-3.119,-3.119,-3.119,-3.119,-3.119,-3.119,-3.119,-3.119,-3.119,-3.119,-3.119,-3.119,-3.119,-3.119,-3.119,-3.119,-3.0801,-2.987,-2.9518,-2.8927,-2.8042,-2.8018,-2.787,-2.7625,-2.76,-2.76,-2.76,-2.76,-2.76,-2.76,-2.76,-2.76,-1.8741,-1.9283,-2.0873,-2.5795,0.0,0.0,0.0,0.0,0.0,0.0,0.0,0.0,0.0,-3.2475,0.0,-3.4027,-3.6652,-3.8395,-3.8355,-3.9038,-3.9845,-4.065,-4.1295,-4.1645,-4.1645,-4.2782,-4.3515,-4.3515,-4.3515,-4.3515,-4.3515,-4.3515,-4.3515,-4.3515,-4.3515,-4.3515,-4.3515,-4.3515,-4.2873,-4.168,-4.291,-4.2837,-4.1699,-4.2928,-4.3515,-4.3441,-4.2194,-4.2359,-4.3387,-4.2176,-4.2396,-4.3515,-4.3515,-4.3515,-4.3478,-4.3277,-4.2323,-4.1058,-4.0875,-3.99,-3.8707,-3.8707,-3.8707,-3.8707,-3.8707,-3.8334,-3.7876,-3.7772,-3.7649,-3.7488,-3.7248,-3.6803,-3.6257,-3.5691,-3.5018,-3.4134,-3.2852,-3.2429,-3.209,-3.1326,-3.119,-3.119,-3.119,-3.119,-3.119,-3.119,-3.119,-3.119,-3.119,-3.119,-3.119,-3.119,-3.119,-3.119,-3.119,-3.1055,-3.0539,-2.9473,-2.8709,-2.8091,-2.7625,-2.76,-2.76,-2.76,-2.76,-2.76,-2.76,-2.76,-2.76,-2.76,-2.76,-2.76,-1.8888,-2.045,-2.2496,-2.4288,-2.3064,0.0,-3.0567,-2.798,0.0,-3.1899,0.0,0.0,0.0,-3.4379,-3.41,-3.5844,-3.6942,-3.8355,-4.0526,0.0,-4.2341,-4.3147,-4.3277,-4.3331,-4.3331,-4.3441,-4.3515,-4.3515,-4.3515,-4.3515,-4.3515,-4.3515,-4.3515,-4.3515,-4.3515,-4.3515,-4.3515,-4.3515,-4.3441,-4.3331,-4.3441,-4.3441,-4.3331,-4.346,-4.3515,-4.3496,-4.3386,-4.3404,-4.3496,-4.3386,-4.3387,-4.3515,-4.3515,-4.3515,-4.3423,-4.2653,-4.1846,-4.0985,-4.0249,-3.9423,-3.8707,-3.8707,-3.8707,-3.8707,-3.8707,-3.8334,-3.7807,-3.7378,-3.6884,-3.6603,-3.7078,-3.6803,-3.6395,-3.6326,-3.5394,-3.4269,-3.3491,-3.278,-3.209,-3.1326,-3.119,-3.119,-3.119,-3.119,-3.119,-3.119,-3.119,-3.119,-3.119,-3.119,-3.119,-3.119,-3.119,-3.119,-3.119,-3.0679,-3.0102,-2.9451,-2.8304,-2.765,-2.76,-2.76,-2.76,-2.76,-2.76,-2.76,-2.76,-2.76,-2.76,-2.76,-2.76,-2.76,-2.0192,-2.1295,-2.3105,-2.6471,-2.5252,0.0,0.0,-2.9812,-2.9066,-3.4516,-3.3524,0.0,0.0,0.0,-3.5734,-3.6868,-3.8153,-3.9659,-4.1589,-4.2121,-4.2598,-4.3387,-4.3515,-4.3515,-4.3515,-4.3515,-4.3515,-4.3515,-4.3515,-4.3515,-4.3515,-4.3515,-4.3515,-4.3515,-4.3515,-4.3515,-4.3515,-4.3515,-4.3515,-4.3515,-4.3515,-4.3515,-4.3515,-4.3515,-4.3515,-4.3515,-4.3515,-4.3515,-4.3515,-4.3515,-4.3515,-4.3515,-4.3515,-4.3185,-4.2708,-4.2415,-4.1479,-4.0304,-4.001,-3.9368,-3.8707,-3.8707,-3.8707,-3.8707,-3.8707,-3.8334,-3.7807,-3.7323,-3.6823,-3.6374,-3.6249,-3.6054,-3.5898,-3.5898,-3.554,-3.4979,-3.4235,-3.3508,-3.2763,-3.2039,-3.1495,-3.119,-3.119,-3.119,-3.119,-3.119,-3.119,-3.119,-3.119,-3.119,-3.119,-3.119,-3.119,-3.119,-3.119,-3.0293,-2.9651,-2.9406,-2.8614,-2.7993,-2.7625,-2.76,-2.76,-2.76,-2.76,-2.76,-2.76,-2.76,-2.76,-2.76,-2.76,-2.76,-2.1055,-2.1735,-2.3209,-2.6979,0.0,0.0,-3.1058,-3.063,-3.0457,-3.5256,-3.476,-3.3245,-3.2577,0.0,0.0,0.0,-3.874,-4.0451,-4.2066,-4.2525,-4.2873,-4.3441,-4.3515,-4.3515,-4.3515,-4.3515,-4.3515,-4.3515,-4.3515,-4.3515,-4.3515,-4.3515,-4.3515,-4.3515,-4.3515,-4.3515,-4.3515,-4.3515,-4.3515,-4.3515,-4.3515,-4.3515,-4.3515,-4.3515,-4.3515,-4.3515,-4.3515,-4.3515,-4.3515,-4.3515,-4.3515,-4.3478,-4.3222,-4.2782,-4.2249,-4.1735,-4.0836,-3.9845,-3.9606,-3.9166,-3.8707,-3.8707,-3.8707,-3.8707,-3.8707,-3.8334,-3.7807,-3.7323,-3.6823,-3.6287,-3.5739,-3.56,-3.56,-3.56,-3.56,-3.5397,-3.4658,-3.3914,-3.3186,-3.2446,-3.1698,-3.119,-3.119,-3.119,-3.119,-3.119,-3.119,-3.119,-3.119,-3.119,-3.119,-3.119,-3.119,-3.1131,-3.0918,-3.0166,-2.9518,-2.9134,-2.8732,-2.8238,-2.7625,-2.76,-2.76,-2.76,-2.76,-2.76,-2.76,-2.76,-2.76,-2.76,-2.76,-2.76,-2.1241,-2.1769,-2.2854,-2.5052,0.0,0.0,-3.0922,-2.9973,-2.9052,-3.331,-3.6166,-3.7234,-3.5084,-3.6246,0.0,-3.6808,-3.8514,-4.0469,-4.2084,-4.3002,-4.3515,-4.3515,-4.3515,-4.3515,-4.3515,-4.3515,-4.3515,-4.3515,-4.3515,-4.3515,-4.3515,-4.3515,-4.3515,-4.3515,-4.3515,-4.3515,-4.3515,-4.3515,-4.3515,-4.3515,-4.3515,-4.3515,-4.3515,-4.3515,-4.3515,-4.3515,-4.3515,-4.3515,-4.3515,-4.3515,-4.3515,-4.3423,-4.2598,-4.2286,-4.2084,-4.0487,-3.99,-3.9772,-3.8982,-3.8707,-3.8707,-3.8707,-3.8707,-3.8707,-3.8692,-3.8316,-3.7807,-3.7323,-3.6823,-3.627,-3.5739,-3.56,-3.56,-3.56,-3.56,-3.5397,-3.4675,-3.3931,-3.3186,-3.2462,-3.1718,-3.1207,-3.119,-3.119,-3.119,-3.119,-3.119,-3.119,-3.119,-3.119,-3.119,-3.119,-3.119,-3.0955,-3.0335,-3.0293,-2.9761,-2.8583,-2.8487,-2.8238,-2.7625,-2.76,-2.76,-2.76,-2.76,-2.76,-2.76,-2.76,-2.76,-2.76,-2.76,-2.76,-2.3866,-2.4069,0.0,-2.5947,0.0,0.0,0.0,-2.9947,0.0,0.0,-3.5633,-3.599,-3.4129,-3.6861,0.0,-3.8453,-4.0154,-4.1956,-4.3002,-4.3349,-4.3515,-4.3515,-4.3515,-4.3515,-4.3515,-4.3515,-4.3515,-4.3515,-4.3515,-4.3515,-4.3515,-4.3515,-4.3515,-4.3515,-4.3515,-4.3515,-4.3515,-4.3515,-4.3515,-4.3515,-4.3515,-4.3515,-4.3515,-4.3515,-4.3515,-4.3515,-4.3515,-4.3515,-4.3515,-4.3515,-4.3167,-4.2635,-4.2396,-4.1607,-4.0543,-4.0065,-3.9533,-3.9019,-3.8781,-3.8707,-3.8707,-3.8707,-3.8707,-3.8627,-3.8251,-3.8283,-3.8302,-3.7451,-3.7095,-3.6843,-3.6291,-3.5876,-3.56,-3.56,-3.56,-3.5532,-3.5312,-3.4692,-3.3964,-3.322,-3.2476,-3.1819,-3.1275,-3.119,-3.119,-3.119,-3.119,-3.119,-3.119,-3.119,-3.1035,-3.0617,-3.0559,-3.0314,-2.9717,-2.9271,-2.8873,-2.8511,-2.8091,-2.7785,-2.7625,-2.76,-2.76,-2.76,-2.76,-2.76,-2.76,-2.76,-2.76,-2.76,-2.76,-2.76,-2.5253,-2.527,0.0,-2.8265,-2.8721,-2.8755,-2.967,0.0,0.0,0.0,-3.611,-3.6369,-3.5642,-3.8339,0.0,-4.0077,-4.1556,-4.2947,-4.3441,-4.3515,-4.3515,-4.3515,-4.3515,-4.3515,-4.3515,-4.3515,-4.3515,-4.3515,-4.3515,-4.3515,-4.3515,-4.3515,-4.3515,-4.3515,-4.3515,-4.3515,-4.3515,-4.3515,-4.3515,-4.3515,-4.3515,-4.3515,-4.3515,-4.3515,-4.3515,-4.3515,-4.3515,-4.3515,-4.3478,-4.3149,-4.2745,-4.2249,-4.1607,-4.0744,-3.9845,-3.9533,-3.9129,-3.8658,-3.8465,-3.8382,-3.835,-3.8168,-3.8083,-3.8033,-3.772,-3.7861,-3.793,-3.7097,-3.6882,-3.6764,-3.6224,-3.5832,-3.56,-3.56,-3.56,-3.56,-3.56,-3.503,-3.437,-3.3931,-3.2983,-3.2158,-3.1718,-3.1376,-3.119,-3.119,-3.119,-3.119,-3.119,-3.119,-3.0975,-3.0356,-3.0293,-2.9957,-2.9111,-2.8724,-2.8407,-2.8165,-2.781,-2.76,-2.76,-2.76,-2.76,-2.76,-2.76,-2.76,-2.76,-2.76,-2.76,-2.76,-2.76,-2.76,-2.5862,-2.5846,-2.6776,-3.0871,-2.9871,0.0,-3.1038,-3.1495,-3.2425,-3.6051,0.0,-3.7612,-3.8538,-4.0161,-4.1388,-4.152,-4.2595,-4.3444,-4.3479,-4.3515,-4.3515,-4.3515,-4.3515,-4.3515,-4.3515,-4.3515,-4.3515,-4.3515,-4.3515,-4.3515,-4.3515,-4.3515,-4.3515,-4.3515,-4.3515,-4.3515,-4.3515,-4.3515,-4.3515,-4.3515,-4.3515,-4.3515,-4.3515,-4.3515,-4.3515,-4.3515,-4.3423,-4.3404,-4.3331,-4.2525,-4.2158,-4.1937,-4.0469,-3.9845,-3.9698,-3.8899,-3.8627,-3.8546,-3.8032,-3.7843,-3.7755,-3.7341,-3.7209,-3.7173,-3.7135,-3.7154,-3.7095,-3.656,-3.6395,-3.6287,-3.5805,-3.5644,-3.56,-3.56,-3.56,-3.56,-3.56,-3.5081,-3.4573,-3.4506,-3.3359,-3.2378,-3.231,-3.1701,-3.119,-3.119,-3.119,-3.119,-3.119,-3.119,-3.0938,-3.0293,-3.0208,-2.9739,-2.8511,-2.8415,-2.8189,-2.7635,-2.76,-2.76,-2.76,-2.76,-2.76,-2.76,-2.76,-2.76,-2.76,-2.76,-2.76,-2.76,-2.76,-2.76,-2.7774,-2.7807,0.0,0.0,-2.8755,-2.977,-3.3761,-3.3761,-3.366,-3.6271,-3.6373,-3.6616,-3.8578,-4.0061,-4.1183,-4.1671,-4.2356,-4.3014,-4.3444,-4.3515,-4.3515,-4.3515,-4.3515,-4.3515,-4.3515,-4.3515,-4.3515,-4.3515,-4.3515,-4.3515,-4.3515,-4.3515,-4.3515,-4.3515,-4.3515,-4.3515,-4.3515,-4.3515,-4.3515,-4.3515,-4.3515,-4.3515,-4.3515,-4.3515,-4.3515,-4.346,-4.2818,-4.2561,-4.2506,-4.1682,-4.1001,-4.0377,-4.0029,-3.9515,-3.8881,-3.8289,-3.8065,-3.7997,-3.7524,-3.7341,-3.7323,-3.7229,-3.7209,-3.7133,-3.6704,-3.6862,-3.7095,-3.656,-3.6395,-3.6374,-3.6266,-3.592,-3.56,-3.56,-3.56,-3.56,-3.56,-3.5481,-3.5199,-3.4607,-3.3778,-3.2983,-3.2395,-3.1701,-3.119,-3.119,-3.119,-3.119,-3.119,-3.119,-3.0797,-2.9717,-2.9585,-2.9095,-2.791,-2.7785,-2.7735,-2.7625,-2.76,-2.76,-2.76,-2.76,-2.76,-2.76,-2.76,-2.76,-2.76,-2.76,-2.76,-2.76,-2.76,-2.76,-2.7486,0.0,0.0,-3.0123,0.0,-3.2577,-3.4163,-3.4484,-3.4912,-3.6491,-3.6738,-3.7373,-3.9501,-4.0451,-4.111,-4.1686,-4.2062,-4.2382,-4.2639,-4.2922,-4.3124,-4.3124,-4.3339,-4.3515,-4.3515,-4.3515,-4.3515,-4.3515,-4.3515,-4.3515,-4.3515,-4.3515,-4.3515,-4.3515,-4.3515,-4.3515,-4.3515,-4.3515,-4.3515,-4.3515,-4.3112,-4.2708,-4.2378,-4.3149,-4.3277,-4.2892,-4.2488,-4.2084,-4.1645,-4.0855,-4.0286,-3.9845,-3.9478,-3.9074,-3.8643,-3.8099,-3.7893,-3.779,-3.7078,-3.6823,-3.6783,-3.6522,-3.644,-3.6378,-3.6097,-3.6207,-3.6378,-3.6097,-3.6028,-3.6028,-3.6028,-3.5827,-3.56,-3.56,-3.56,-3.56,-3.56,-3.56,-3.5481,-3.5115,-3.4438,-3.3694,-3.2949,-3.1918,-3.119,-3.119,-3.119,-3.119,-3.119,-3.119,-3.0858,-2.993,-2.9563,-2.9019,-2.8116,-2.776,-2.76,-2.76,-2.76,-2.76,-2.76,-2.76,-2.76,-2.76,-2.76,-2.76,-2.76,-2.76,-2.76,-2.76,-2.76,-2.76,-2.6336,0.0,-2.9873,-3.2696,-3.4112,0.0,-3.3926,-3.4518,-3.5537,-3.6592,-3.728,-3.8258,-4.0042,-4.048,-4.0776,-4.1362,-4.1555,-4.1686,-4.1789,-4.2223,-4.2539,-4.2539,-4.3032,-4.3375,-4.3375,-4.3444,-4.3515,-4.3515,-4.3515,-4.3515,-4.3515,-4.3369,-4.3277,-4.3277,-4.3149,-4.3075,-4.3075,-4.3075,-4.3075,-4.3075,-4.2415,-4.1754,-4.115,-4.2488,-4.2708,-4.2084,-4.1956,-4.1515,-4.082,-4.001,-3.968,-3.9625,-3.8964,-3.8707,-3.8643,-3.8099,-3.7842,-3.7649,-3.6724,-3.6333,-3.6203,-3.5739,-3.56,-3.56,-3.56,-3.56,-3.56,-3.56,-3.56,-3.56,-3.56,-3.56,-3.56,-3.56,-3.56,-3.56,-3.56,-3.56,-3.56,-3.56,-3.5013,-3.4269,-3.3541,-3.2273,-3.1396,-3.1396,-3.1275,-3.119,-3.119,-3.119,-3.0975,-3.0356,-2.9761,-2.9157,-2.8559,-2.7959,-2.76,-2.76,-2.76,-2.76,-2.76,-2.76,-2.76,-2.76,-2.76,-2.76,-2.76,-2.76,-2.76,-2.76,-2.76,-2.76,0.0,0.0,-3.0514,0.0,-3.2594,-3.2408,0.0,0.0,-3.4286,0.0,-3.688,-3.7225,-3.8143,-3.8829,-3.9436,-3.9973,-4.0584,-4.1183,-4.1746,-4.1874,-4.1916,-4.1916,-4.2442,-4.2807,-4.2807,-4.3232,-4.3515,-4.3515,-4.3515,-4.3515,-4.3515,-4.2837,-4.2451,-4.2451,-4.1791,-4.1407,-4.1407,-4.1407,-4.1407,-4.1407,-4.1297,-4.1187,-4.1113,-4.1315,-4.1352,-4.1224,-4.0524,-4.0157,-3.9992,-3.9184,-3.8854,-3.8854,-3.8744,-3.8707,-3.8643,-3.8099,-3.7649,-3.721,-3.6603,-3.6097,-3.5694,-3.5605,-3.56,-3.56,-3.56,-3.56,-3.56,-3.56,-3.56,-3.56,-3.56,-3.56,-3.56,-3.56,-3.56,-3.56,-3.56,-3.56,-3.56,-3.56,-3.5013,-3.4269,-3.3541,-3.2696,-3.2158,-3.2158,-3.1616,-3.119,-3.119,-3.119,-3.0975,-3.0356,-2.9761,-2.9157,-2.8559,-2.7959,-2.76,-2.76,-2.76,-2.76,-2.76,-2.76,-2.76,-2.76,-2.76,-2.76,-2.76,-2.76,-2.76,-2.76,-2.76,-2.76,-2.6826,-2.8146,-2.9751,0.0,-3.2899,-3.1968,-3.4923,-3.445,-3.3931,-3.5757,-3.6129,-3.6502,-3.7686,-3.8176,-3.8458,-3.8709,-3.9012,-3.9311,-3.9571,-3.9878,-4.0215,-4.0631,-4.1218,-4.1582,-4.1582,-4.2046,-4.2141,-4.174,-4.1986,-4.2158,-4.2158,-4.1534,-4.1176,-4.1176,-4.0831,-4.065,-4.065,-4.0943,-4.0857,-4.0432,-4.0432,-4.0194,-3.9756,-3.9756,-4.001,-4.0414,-4.0047,-3.9479,-3.8775,-3.8724,-3.8512,-3.8283,-3.8578,-3.8707,-3.8643,-3.8099,-3.7772,-3.7488,-3.6684,-3.6245,-3.6006,-3.5694,-3.56,-3.56,-3.56,-3.56,-3.56,-3.56,-3.56,-3.56,-3.56,-3.56,-3.56,-3.56,-3.56,-3.56,-3.56,-3.56,-3.56,-3.56,-3.5013,-3.4387,-3.4066,-3.3406,-3.2784,-3.2361,-3.2022,-3.1667,-3.1241,-3.119,-3.0975,-3.0356,-2.9761,-2.9157,-2.8559,-2.7959,-2.76,-2.76,-2.76,-2.76,-2.76,-2.76,-2.76,-2.76,-2.76,-2.76,-2.76,-2.76,-2.76,-2.76,-2.76,-2.76,0.0,0.0,-2.8365,-3.303,-3.2256,-3.1055,0.0,0.0,-3.3271,0.0,-3.5346,-3.5955,-3.7087,-3.7483,-3.7618,-3.7618,-3.7787,-3.7905,-3.7905,-3.8242,-3.8693,-3.9239,-3.9835,-4.0179,-4.0179,-4.0646,-4.0703,-4.0146,-4.0491,-4.0702,-4.0702,-4.0149,-3.9823,-3.9823,-3.9625,-3.9517,-3.9517,-4.0032,-3.9995,-3.939,-3.9522,-3.9276,-3.8707,-3.8707,-3.9038,-3.9588,-3.9588,-3.9029,-3.8115,-3.8382,-3.8267,-3.7929,-3.8218,-3.8318,-3.8285,-3.7997,-3.7825,-3.7614,-3.6865,-3.6519,-3.6291,-3.5783,-3.56,-3.56,-3.56,-3.56,-3.56,-3.56,-3.56,-3.56,-3.56,-3.56,-3.56,-3.56,-3.56,-3.56,-3.56,-3.56,-3.56,-3.56,-3.5165,-3.4776,-3.4776,-3.4167,-3.3423,-3.2679,-3.2429,-3.2039,-3.1275,-3.119,-3.0975,-3.0356,-2.9761,-2.9157,-2.8559,-2.7959,-2.76,-2.76,-2.76,-2.76,-2.76,-2.76,-2.76,-2.76,-2.76,-2.76,-2.76,-2.76,-2.76,-2.76,-2.76,-2.76,0.0,-2.5761,0.0,-2.96,-2.9176,0.0,0.0,0.0,-3.1732,-3.322,-3.4619,-3.5616,-3.5701,-3.6332,-3.6863,-3.6863,-3.7432,-3.7905,-3.7905,-3.7912,-3.797,-3.7987,-3.8465,-3.8812,-3.8812,-3.9324,-3.9684,-3.9649,-3.9651,-3.9688,-3.9688,-3.8937,-3.849,-3.849,-3.7762,-3.7353,-3.7353,-3.7828,-3.8054,-3.8,-3.8519,-3.8744,-3.8707,-3.8707,-3.8726,-3.8762,-3.8762,-3.8728,-3.8627,-3.815,-3.7929,-3.7859,-3.7433,-3.7284,-3.734,-3.7737,-3.7614,-3.7229,-3.719,-3.6823,-3.6291,-3.5783,-3.56,-3.56,-3.56,-3.56,-3.56,-3.56,-3.56,-3.56,-3.56,-3.56,-3.56,-3.56,-3.56,-3.56,-3.56,-3.56,-3.56,-3.56,-3.5566,-3.5532,-3.5532,-3.4928,-3.4184,-3.3457,-3.275,-3.2039,-3.1275,-3.119,-3.0975,-3.0356,-2.9761,-2.9157,-2.8559,-2.7959,-2.76,-2.76,-2.76,-2.76,-2.76,-2.76,-2.76,-2.76,-2.76,-2.76,-2.76,-2.76,-2.76,-2.76,-2.76,-2.76,0.0,0.0,0.0,-2.8518,-2.752,-2.6387,-2.9162,-3.0142,-3.0649,-3.1154,-3.3571,-3.5312,-3.4349,-3.5199,-3.6028,-3.6028,-3.6242,-3.6411,-3.6411,-3.6411,-3.662,-3.7127,-3.7376,-3.7479,-3.7479,-3.7958,-3.807,-3.758,-3.6953,-3.7018,-3.8009,-3.6554,-3.6149,-3.7088,-3.6841,-3.6862,-3.7209,-3.736,-3.7451,-3.7451,-3.7649,-3.7738,-3.7738,-3.7738,-3.7895,-3.8183,-3.8183,-3.8183,-3.8167,-3.798,-3.772,-3.7433,-3.7284,-3.7209,-3.721,-3.7378,-3.7341,-3.7135,-3.6803,-3.656,-3.6291,-3.5783,-3.56,-3.56,-3.56,-3.56,-3.56,-3.56,-3.56,-3.56,-3.56,-3.56,-3.56,-3.56,-3.56,-3.56,-3.56,-3.56,-3.56,-3.56,-3.56,-3.56,-3.56,-3.538,-3.4962,-3.4218,-3.3474,-3.273,-3.2005,-3.1478,-3.0818,-2.9827,-2.954,-2.8996,-2.8018,-2.771,-2.76,-2.76,-2.76,-2.76,-2.76,-2.76,-2.76,-2.76,-2.76,-2.76,-2.76,-2.76,-2.76,-2.76,-2.76,-2.76,-2.4088,0.0,0.0,0.0,0.0,-2.4728,-2.6979,-2.8839,-3.0108,-3.0108,-3.303,-3.5295,-3.4315,-3.494,-3.56,-3.56,-3.56,-3.56,-3.56,-3.56,-3.5785,-3.6332,-3.64,-3.64,-3.64,-3.6693,-3.6672,-3.6174,-3.5509,-3.5586,-3.6594,-3.5402,-3.5129,-3.6105,-3.6139,-3.6312,-3.6664,-3.6825,-3.6941,-3.6941,-3.7097,-3.7209,-3.7209,-3.7209,-3.736,-3.7667,-3.7667,-3.786,-3.8148,-3.798,-3.7632,-3.7173,-3.7001,-3.6805,-3.6686,-3.6882,-3.6941,-3.6882,-3.6519,-3.6395,-3.6291,-3.5783,-3.56,-3.56,-3.56,-3.56,-3.56,-3.56,-3.56,-3.56,-3.56,-3.56,-3.56,-3.56,-3.56,-3.56,-3.56,-3.56,-3.56,-3.56,-3.56,-3.56,-3.56,-3.56,-3.5346,-3.4607,-3.4083,-3.3406,-3.2429,-3.187,-3.1007,-2.9572,-2.9406,-2.8904,-2.771,-2.76,-2.76,-2.76,-2.76,-2.76,-2.76,-2.76,-2.76,-2.76,-2.76,-2.76,-2.76,-2.76,-2.76,-2.76,-2.76,-2.76,0.0,0.0,0.0,0.0,0.0,0.0,-2.4271,0.0,-2.9971,-3.0006,-3.2929,-3.5515,-3.5532,-3.5566,-3.56,-3.56,-3.56,-3.56,-3.56,-3.56,-3.56,-3.56,-3.56,-3.56,-3.56,-3.56,-3.56,-3.56,-3.5566,-3.5549,-3.56,-3.56,-3.56,-3.56,-3.56,-3.56,-3.56,-3.6118,-3.6392,-3.6374,-3.6902,-3.7135,-3.7135,-3.7135,-3.7154,-3.719,-3.719,-3.7738,-3.8611,-3.8082,-3.7614,-3.7152,-3.6603,-3.6075,-3.565,-3.6182,-3.6392,-3.6392,-3.6392,-3.6392,-3.6287,-3.5783,-3.56,-3.56,-3.56,-3.56,-3.56,-3.56,-3.56,-3.56,-3.56,-3.56,-3.56,-3.56,-3.56,-3.56,-3.56,-3.56,-3.56,-3.56,-3.56,-3.56,-3.56,-3.56,-3.5346,-3.4641,-3.4506,-3.3986,-3.2513,-3.231,-3.1562,-2.9621,-2.9406,-2.8904,-2.771,-2.76,-2.76,-2.76,-2.76,-2.76,-2.76,-2.76,-2.76,-2.76,-2.76,-2.76,-2.76,-2.76,-2.76,-2.76,-2.76,-2.76,-2.2296,0.0,0.0,0.0,0.0,0.0,-2.2868,0.0,-2.7012,-2.752,-3.0598,-3.3372,-3.3914,-3.4873,-3.56,-3.56,-3.56,-3.56,-3.56,-3.56,-3.56,-3.56,-3.56,-3.56,-3.56,-3.56,-3.56,-3.56,-3.4602,-3.4467,-3.5532,-3.56,-3.56,-3.56,-3.56,-3.56,-3.56,-3.5739,-3.581,-3.581,-3.5968,-3.6054,-3.6054,-3.6054,-3.6249,-3.6623,-3.6623,-3.6999,-3.7596,-3.7451,-3.7323,-3.7152,-3.6603,-3.6075,-3.5622,-3.5761,-3.581,-3.581,-3.581,-3.581,-3.5805,-3.5667,-3.56,-3.56,-3.56,-3.56,-3.56,-3.56,-3.56,-3.56,-3.56,-3.56,-3.56,-3.56,-3.56,-3.56,-3.56,-3.56,-3.56,-3.56,-3.56,-3.56,-3.56,-3.56,-3.5532,-3.5329,-3.4844,-3.415,-3.322,-3.2632,-3.1562,-2.9621,-2.9406,-2.8904,-2.771,-2.76,-2.76,-2.76,-2.76,-2.76,-2.76,-2.76,-2.76,-2.76,-2.76,-2.76,-2.76,-2.76,-2.76,-2.76,-2.76,-2.76,0.0,0.0,0.0,0.0,0.0,0.0,-2.2296,-2.4763,-2.7131,0.0,-3.0871,-3.3525,-3.3034,-3.3643,-3.4218,-3.4218,-3.4218,-3.4556,-3.5464,-3.56,-3.56,-3.56,-3.56,-3.56,-3.56,-3.56,-3.56,-3.56,-3.4788,-3.4687,-3.5549,-3.56,-3.56,-3.56,-3.56,-3.56,-3.56,-3.56,-3.56,-3.56,-3.56,-3.56,-3.56,-3.56,-3.5783,-3.6071,-3.6071,-3.6374,-3.6862,-3.6862,-3.6862,-3.6843,-3.6519,-3.6075,-3.56,-3.56,-3.56,-3.56,-3.56,-3.56,-3.56,-3.56,-3.56,-3.56,-3.56,-3.56,-3.56,-3.56,-3.56,-3.56,-3.56,-3.56,-3.56,-3.56,-3.56,-3.56,-3.56,-3.56,-3.56,-3.56,-3.56,-3.56,-3.56,-3.56,-3.56,-3.56,-3.5228,-3.4692,-3.3947,-3.322,-3.2114,-3.0412,-2.9723,-2.9019,-2.8067,-2.7735,-2.76,-2.76,-2.76,-2.76,-2.76,-2.76,-2.76,-2.76,-2.76,-2.76,-2.76,-2.76,-2.76,-2.76,-2.76,-2.76,0.0,0.0,0.0,0.0,-2.2296,0.0,-2.2296,-2.5389,-2.8333,0.0,-3.1749,-3.3981,-3.2259,-3.1938,-3.1938,-3.1938,-3.1938,-3.2733,-3.5025,-3.5498,-3.5532,-3.538,-3.5498,-3.56,-3.56,-3.56,-3.56,-3.56,-3.56,-3.56,-3.56,-3.56,-3.56,-3.56,-3.56,-3.56,-3.56,-3.56,-3.56,-3.56,-3.56,-3.56,-3.56,-3.56,-3.56,-3.56,-3.56,-3.5876,-3.6291,-3.6291,-3.635,-3.6395,-3.6395,-3.6075,-3.56,-3.56,-3.56,-3.56,-3.56,-3.56,-3.56,-3.56,-3.56,-3.56,-3.56,-3.56,-3.56,-3.56,-3.56,-3.56,-3.56,-3.56,-3.56,-3.56,-3.56,-3.56,-3.56,-3.56,-3.56,-3.56,-3.56,-3.56,-3.56,-3.56,-3.56,-3.56,-3.56,-3.5307,-3.4486,-3.376,-3.2768,-3.1342,-3.0071,-2.9042,-2.8439,-2.791,-2.76,-2.76,-2.76,-2.76,-2.76,-2.76,-2.76,-2.76,-2.76,-2.76,-2.76,-2.76,-2.76,-2.76,-2.76,-2.76,0.0,0.0,0.0,0.0,-2.2296,0.0,-2.2296,-2.2987,-2.412,0.0,-2.6945,-2.7994,-2.9399,-2.9636,-2.9636,-2.9636,-2.9636,-3.0635,-3.344,-3.4839,-3.516,-3.396,-3.4873,-3.56,-3.56,-3.56,-3.56,-3.56,-3.56,-3.56,-3.56,-3.56,-3.56,-3.56,-3.56,-3.56,-3.56,-3.56,-3.56,-3.56,-3.56,-3.56,-3.56,-3.56,-3.56,-3.56,-3.56,-3.565,-3.5761,-3.5761,-3.6028,-3.6395,-3.6395,-3.6075,-3.56,-3.56,-3.56,-3.56,-3.56,-3.56,-3.56,-3.56,-3.56,-3.56,-3.56,-3.56,-3.56,-3.56,-3.56,-3.56,-3.56,-3.56,-3.56,-3.56,-3.56,-3.56,-3.56,-3.56,-3.56,-3.56,-3.56,-3.56,-3.56,-3.56,-3.56,-3.56,-3.56,-3.5155,-3.3868,-3.3094,-3.1968,-3.0077,-2.9139,-2.8439,-2.7835,-2.7675,-2.76,-2.76,-2.76,-2.76,-2.76,-2.76,-2.76,-2.76,-2.76,-2.76,-2.76,-2.76,-2.76,-2.76,-2.76,-2.76,0.0,0.0,-2.2296,-2.2296,-2.2296,0.0,0.0,-2.3141,-2.4257,-2.5356,-2.6505,-2.73,-2.73,-2.73,-2.73,-2.73,-2.73,-2.7943,-2.9803,-3.2307,-3.41,-3.4433,-3.5143,-3.56,-3.56,-3.56,-3.56,-3.56,-3.56,-3.56,-3.56,-3.56,-3.56,-3.56,-3.56,-3.56,-3.56,-3.56,-3.56,-3.56,-3.56,-3.56,-3.56,-3.56,-3.56,-3.56,-3.56,-3.56,-3.56,-3.56,-3.5761,-3.6006,-3.6006,-3.5849,-3.56,-3.56,-3.56,-3.56,-3.56,-3.56,-3.56,-3.56,-3.56,-3.56,-3.56,-3.56,-3.56,-3.56,-3.56,-3.56,-3.56,-3.56,-3.56,-3.56,-3.56,-3.56,-3.56,-3.56,-3.56,-3.56,-3.56,-3.56,-3.56,-3.56,-3.56,-3.56,-3.56,-3.5227,-3.4169,-3.3133,-3.1984,-3.0647,-2.9294,-2.8367,-2.8067,-2.776,-2.76,-2.76,-2.76,-2.76,-2.76,-2.76,-2.76,-2.76,-2.76,-2.76,-2.76,-2.76,-2.76,-2.76,-2.76,-2.76,-2.2499,-2.2398,-2.2296,-2.2296,-2.2223,-2.218,0.0,0.0,0.0,-2.4822,-2.6286,-2.7028,-2.5288,-2.495,0.0,-2.478,-2.4866,0.0,0.0,-2.901,-3.1715,-3.3656,-3.4146,-3.4315,-3.4315,-3.4704,-3.5126,-3.5566,-3.56,-3.56,-3.56,-3.56,-3.56,-3.56,-3.56,-3.56,-3.56,-3.56,-3.56,-3.56,-3.56,-3.56,-3.56,-3.56,-3.56,-3.56,-3.56,-3.56,-3.56,-3.56,-3.56,-3.56,-3.56,-3.56,-3.56,-3.56,-3.56,-3.56,-3.56,-3.56,-3.56,-3.56,-3.56,-3.56,-3.56,-3.56,-3.56,-3.56,-3.56,-3.56,-3.56,-3.56,-3.56,-3.56,-3.56,-3.56,-3.56,-3.56,-3.56,-3.56,-3.56,-3.56,-3.56,-3.56,-3.56,-3.56,-3.56,-3.5249,-3.4347,-3.3102,-3.1957,-3.1029,-2.937,-2.8334,-2.8334,-2.7885,-2.76,-2.76,-2.76,-2.76,-2.76,-2.76,-2.76,-2.76,-2.76,-2.76,-2.76,-2.76,-2.76,-2.76,-2.76,-2.76,-2.3274,-2.2801,-2.2296,-2.2296,-2.1988,-2.1673,-2.1673,0.0,-2.1632,-2.1975,0.0,-2.2488,-2.2644,0.0,0.0,0.0,-2.2243,-2.3156,-2.4558,-2.5676,-2.6708,-2.7604,-2.8925,-2.9754,-2.9754,-3.1532,-3.3491,-3.5447,-3.56,-3.56,-3.56,-3.56,-3.56,-3.56,-3.56,-3.56,-3.56,-3.56,-3.56,-3.56,-3.56,-3.56,-3.56,-3.56,-3.56,-3.56,-3.56,-3.56,-3.56,-3.56,-3.56,-3.56,-3.56,-3.56,-3.56,-3.56,-3.56,-3.56,-3.56,-3.56,-3.56,-3.56,-3.56,-3.56,-3.56,-3.56,-3.56,-3.56,-3.56,-3.56,-3.56,-3.56,-3.56,-3.56,-3.56,-3.56,-3.56,-3.56,-3.56,-3.56,-3.56,-3.56,-3.56,-3.56,-3.56,-3.56,-3.56,-3.4927,-3.3056,-3.2176,-3.0997,-2.9117,-2.8187,-2.771,-2.771,-2.765,-2.76,-2.76,-2.76,-2.76,-2.76,-2.76,-2.76,-2.76,-2.76,-2.76,-2.76,-2.76,-2.76,-2.76,-2.76,-2.76,-2.5592,-2.5406,-2.4847,-2.4847,-2.4385,-2.3861,-2.362,-2.2424,-2.1322,-2.126,0.0,0.0,0.0,0.0,0.0,0.0,-2.1919,-2.2516,-2.3139,0.0,-2.478,-2.769,-2.8604,-2.9501,-3.0787,-3.0584,-3.1312,-3.3508,-3.3677,-3.3677,-3.3677,-3.489,-3.56,-3.56,-3.56,-3.56,-3.56,-3.56,-3.56,-3.56,-3.56,-3.56,-3.56,-3.56,-3.56,-3.56,-3.56,-3.56,-3.56,-3.56,-3.56,-3.56,-3.56,-3.56,-3.56,-3.56,-3.56,-3.56,-3.56,-3.56,-3.56,-3.56,-3.56,-3.56,-3.56,-3.56,-3.56,-3.56,-3.56,-3.56,-3.56,-3.56,-3.56,-3.56,-3.56,-3.56,-3.56,-3.56,-3.56,-3.56,-3.56,-3.56,-3.56,-3.56,-3.56,-3.56,-3.56,-3.5002,-3.3345,-3.2224,-3.0965,-2.9301,-2.8218,-2.76,-2.76,-2.76,-2.76,-2.76,-2.76,-2.76,-2.76,-2.76,-2.76,-2.76,-2.76,-2.76,-2.76,-2.76,-2.76,-2.76,-2.76,-2.76,-2.8602,-2.8501,-2.7705,-2.6758,-2.605,-2.5212,-2.3979,-2.2361,-2.1023,-2.0845,-2.0813,0.0,0.0,0.0,0.0,0.0,0.0,-2.1878,0.0,-2.1828,-2.3237,-2.6742,-2.7706,-2.8705,-3.0313,-2.9585,-2.967,-3.1278,-3.1955,-3.2293,-3.2293,-3.4404,-3.56,-3.56,-3.56,-3.56,-3.56,-3.56,-3.56,-3.56,-3.56,-3.56,-3.56,-3.56,-3.56,-3.56,-3.56,-3.56,-3.56,-3.56,-3.56,-3.56,-3.56,-3.56,-3.56,-3.56,-3.56,-3.56,-3.56,-3.56,-3.56,-3.56,-3.56,-3.56,-3.56,-3.56,-3.56,-3.56,-3.56,-3.56,-3.56,-3.56,-3.56,-3.56,-3.56,-3.56,-3.56,-3.56,-3.56,-3.56,-3.56,-3.56,-3.56,-3.56,-3.56,-3.56,-3.543,-3.4741,-3.3177,-3.2023,-3.0716,-2.915,-2.8147,-2.76,-2.76,-2.76,-2.76,-2.76,-2.76,-2.76,-2.76,-2.76,-2.76,-2.76,-2.76,-2.76,-2.76,-2.76,-2.76,-2.76,-2.76,-2.76,-3.2141,-3.1616,-3.0249,-2.694,-2.5762,-2.4542,-2.1221,-2.0098,-1.9874,-2.0229,-2.0331,-2.0466,-2.091,0.0,0.0,0.0,0.0,0.0,0.0,-2.059,-2.1419,-2.2396,-2.4425,-2.5728,-2.5812,-2.7757,-2.9027,-2.9094,-3.1092,-3.2293,-3.2293,-3.4404,-3.56,-3.56,-3.56,-3.56,-3.56,-3.56,-3.56,-3.56,-3.56,-3.56,-3.56,-3.56,-3.56,-3.56,-3.56,-3.56,-3.56,-3.56,-3.56,-3.56,-3.56,-3.56,-3.56,-3.56,-3.56,-3.56,-3.56,-3.56,-3.56,-3.56,-3.56,-3.56,-3.56,-3.56,-3.56,-3.56,-3.56,-3.56,-3.56,-3.56,-3.56,-3.56,-3.56,-3.56,-3.56,-3.56,-3.56,-3.56,-3.56,-3.56,-3.56,-3.56,-3.56,-3.56,-3.5052,-3.3922,-3.1927,-3.1063,-2.9863,-2.7876,-2.7625,-2.76,-2.76,-2.76,-2.76,-2.76,-2.76,-2.76,-2.76,-2.76,-2.76,-2.76,-2.76,-2.76,-2.76,-2.76,-2.76,-2.76,-2.76,-2.76,-3.4866,-3.4709,-3.3837,-3.2681,-3.0419,-2.8063,-2.6319,-2.3147,-2.0447,-1.9982,-1.9909,-1.9962,-2.012,0.0,0.0,0.0,0.0,0.0,0.0,-2.0831,-2.1118,-2.14,-2.2334,-2.3548,-2.5063,-2.4823,-2.5169,-2.664,-2.7435,-2.7875,-2.7875,-3.1376,-3.3406,-3.3406,-3.4844,-3.56,-3.56,-3.56,-3.56,-3.56,-3.56,-3.56,-3.56,-3.56,-3.56,-3.56,-3.56,-3.56,-3.56,-3.56,-3.56,-3.56,-3.56,-3.56,-3.56,-3.56,-3.56,-3.56,-3.56,-3.56,-3.56,-3.56,-3.56,-3.56,-3.56,-3.56,-3.56,-3.56,-3.56,-3.56,-3.56,-3.56,-3.56,-3.56,-3.56,-3.56,-3.56,-3.56,-3.56,-3.56,-3.56,-3.56,-3.56,-3.56,-3.56,-3.56,-3.5407,-3.4535,-3.2472,-3.1654,-3.0478,-2.8424,-2.7835,-2.76,-2.76,-2.76,-2.76,-2.76,-2.76,-2.76,-2.76,-2.76,-2.76,-2.76,-2.76,-2.76,-2.76,-2.76,-2.76,-2.76,-2.76,-2.76,-3.7574,-3.7584,-3.6895,-3.5694,-3.3597,-3.1316,-2.9275,-2.6021,-2.3259,-2.2671,-2.2143,-2.1697,-2.139,0.0,0.0,0.0,0.0,0.0,0.0,-2.0548,-2.0548,-2.0548,-2.1876,-2.306,-2.3736,-2.3604,-2.3733,-2.4375,-2.5169,-2.5592,-2.5592,-2.9854,-3.2293,-3.2293,-3.4455,-3.56,-3.56,-3.56,-3.56,-3.56,-3.56,-3.56,-3.56,-3.56,-3.56,-3.56,-3.56,-3.56,-3.56,-3.56,-3.56,-3.56,-3.56,-3.56,-3.56,-3.56,-3.56,-3.56,-3.56,-3.56,-3.56,-3.56,-3.56,-3.56,-3.56,-3.56,-3.565,-3.596,-3.5802,-3.5667,-3.596,-3.5802,-3.56,-3.56,-3.56,-3.56,-3.56,-3.56,-3.56,-3.56,-3.56,-3.56,-3.56,-3.56,-3.56,-3.56,-3.5385,-3.4595,-3.277,-3.179,-3.0548,-2.8713,-2.7971,-2.76,-2.76,-2.76,-2.76,-2.76,-2.76,-2.76,-2.76,-2.76,-2.76,-2.76,-2.76,-2.76,-2.76,-2.76,-2.76,-2.76,-2.76,-2.76]},{"header":{"parameterUnit":"m.s-1","parameterCategory":1,"la1":30.6,"la2":29.2853,"lo1":-89.7004,"lo2":-87.6739,"dy":0.0162,"dx":0.0183,"nx":112,"ny":82,"refTime":"2023-05-01T00:00:00:Z","depth":0,"parameterNumber":3,"parameterNumberName":"V-component_of_WINDS"},"data":[0.0,0.0,0.0,0.0,0.0,0.0,0.0,0.0,0.0,0.0,0.0,0.0,0.0,0.0,0.0,0.0,0.0,0.0,0.0,0.0,0.0,0.0,0.0,0.0,0.0,0.0,0.0,0.0,0.0,0.0,0.0,0.0,0.0,0.0,0.0,0.0,0.0,0.0,0.0,0.0,0.0,0.0,0.0,0.0,0.0,0.0,0.0,0.0,0.0,0.0,0.0,0.0,0.0,0.0,0.0,0.0,0.0,0.0,0.0,0.0,0.0,0.0,0.0,0.0,0.0,0.0,0.0,0.0,0.0,0.0,0.0,0.0,0.0,0.0,0.0,0.0,0.0,0.0,0.0,0.0,0.0,0.0,0.0,0.0,0.0,0.0,0.0,0.0,0.0,0.0,1.2535,1.4209,1.5664,1.6333,1.5856,1.5819,1.5304,1.4101,0.0,0.0,0.0,0.0,0.0,0.0,0.0,0.0,0.0,0.0,0.0,0.0,0.0,0.0,0.0,0.0,0.0,0.0,0.0,0.0,0.0,0.0,0.0,0.0,0.0,0.0,0.0,0.0,0.0,0.0,0.0,0.0,0.0,0.0,0.0,0.0,0.0,0.0,0.0,0.0,0.0,0.0,0.0,0.0,0.0,0.0,0.0,0.0,0.0,0.0,0.0,0.0,0.0,0.0,0.0,0.0,0.0,0.0,0.0,0.0,0.0,0.0,0.0,0.0,0.0,0.0,0.0,0.0,0.0,0.0,0.0,0.0,0.0,0.0,0.0,0.0,0.0,0.0,0.0,0.0,0.0,0.0,0.0,0.0,0.0,0.0,0.0,0.0,0.0,0.0,0.0,0.0,0.0,0.0,0.0,0.0,0.0,0.0,0.0,0.0,0.0,0.0,0.0,0.0,1.4337,1.5956,1.6357,1.6463,1.6387,1.6375,1.6093,1.5445,0.0,0.0,0.0,0.0,0.0,0.0,0.0,0.0,0.0,0.0,0.0,0.0,0.0,0.0,0.0,0.0,0.0,0.0,0.0,0.0,0.0,0.0,0.0,0.0,0.0,0.0,0.0,0.0,0.0,0.0,0.0,0.0,0.0,0.0,0.0,0.0,0.0,0.0,0.0,0.0,0.0,0.0,0.0,0.0,0.0,0.0,0.0,0.0,0.0,0.0,0.0,0.0,0.0,0.0,0.0,0.0,0.0,0.0,0.0,0.0,0.0,0.0,0.0,0.0,0.0,0.0,0.0,0.0,0.0,0.0,0.0,0.0,0.0,0.0,0.0,0.0,0.0,0.0,0.0,0.0,0.0,0.0,0.0,0.0,0.0,0.0,0.0,0.0,0.0,0.0,0.0,0.0,0.0,0.0,0.0,0.0,0.0,0.0,0.0,0.0,0.0,0.0,0.0,1.3639,1.4836,1.5901,1.6008,1.6139,1.6466,1.65,1.6046,1.4949,1.4351,0.0,0.0,0.0,0.0,0.0,0.0,0.0,0.0,0.0,0.0,0.0,0.0,0.0,0.0,0.0,0.0,0.0,0.0,0.0,0.0,0.0,0.0,0.0,0.0,0.0,0.0,0.0,0.0,0.0,0.0,0.0,0.0,0.0,0.0,0.0,0.0,0.0,0.0,0.0,0.0,0.0,0.0,0.0,0.0,0.0,0.0,0.0,0.0,0.0,0.0,0.0,0.0,0.0,0.0,0.0,0.0,0.0,0.0,0.0,0.0,0.0,0.0,0.0,0.0,0.0,0.0,0.0,0.0,0.0,0.0,0.0,0.0,0.0,0.0,0.0,0.0,0.0,0.0,0.0,0.0,0.0,0.0,0.0,0.0,0.0,0.0,0.0,0.0,0.0,0.0,0.0,0.0,0.0,0.0,0.0,0.0,0.0,0.0,0.0,0.0,0.0,0.0,1.3501,1.4552,1.5497,1.561,1.5842,1.6445,1.65,1.5836,1.4297,1.467,0.0,0.0,0.0,0.0,0.0,0.0,0.0,0.0,0.0,0.0,0.0,0.0,0.0,0.0,0.0,0.0,0.0,0.0,0.0,0.0,0.0,0.0,0.0,0.0,0.0,0.0,0.0,0.0,0.0,0.0,0.0,0.0,0.0,0.0,0.0,0.0,0.0,0.0,0.0,0.0,0.0,0.0,0.0,0.0,0.0,0.0,0.0,0.0,0.0,0.0,0.0,0.0,0.0,0.0,0.0,0.0,0.0,0.0,0.0,0.0,0.0,0.0,0.0,0.0,0.0,0.0,0.0,0.0,0.0,0.0,0.0,0.0,0.0,0.0,0.0,0.0,0.0,0.0,0.0,0.0,0.0,0.0,0.0,0.0,0.0,0.0,0.0,0.0,0.0,0.0,0.0,0.0,0.0,0.0,0.0,0.0,0.0,0.0,0.0,0.0,0.0,0.0,1.2525,1.3422,1.5392,1.561,1.5842,1.6445,1.65,1.5836,1.4297,1.47,0.0,0.0,0.0,0.0,0.0,0.0,0.0,0.0,0.0,0.0,0.0,0.0,0.0,0.0,0.0,0.0,0.0,0.0,0.0,0.0,0.0,0.0,0.0,0.0,0.0,0.0,0.0,0.0,0.0,0.0,0.0,0.0,0.0,0.0,0.0,0.0,0.0,0.0,0.0,0.0,0.0,0.0,0.0,0.0,0.0,0.0,0.0,0.0,0.0,0.0,0.0,0.0,0.0,0.0,0.0,0.0,0.0,0.0,0.0,0.0,0.0,0.0,0.0,0.0,0.0,0.0,0.0,0.0,0.0,0.0,0.0,0.0,0.0,0.0,0.0,0.0,0.0,0.0,0.0,0.0,0.0,0.0,0.0,0.0,0.0,0.0,0.0,0.0,0.0,0.0,0.0,0.0,0.0,0.0,0.0,0.0,0.0,0.0,0.0,0.0,0.0,0.0,1.2881,1.3744,1.4903,1.5039,1.5444,1.6423,1.65,1.5836,1.4297,0.0,0.0,0.0,0.0,0.0,0.0,0.0,0.0,0.0,0.0,0.0,0.0,0.0,0.0,0.0,0.0,0.0,0.0,0.0,0.0,0.0,0.0,0.0,0.0,0.0,0.0,0.0,0.0,0.0,0.0,0.0,0.0,0.0,0.0,0.0,0.0,0.0,0.0,0.0,0.0,0.0,0.0,0.0,0.0,0.0,0.0,0.0,0.0,0.0,0.0,0.0,0.0,0.0,0.0,0.0,0.0,0.0,0.0,0.0,0.0,0.0,0.0,0.0,0.0,0.0,0.0,0.0,0.0,0.0,0.0,0.0,0.0,0.0,0.0,0.0,0.0,0.0,0.0,0.0,0.0,0.0,0.0,0.0,0.0,0.0,0.0,0.0,0.0,0.0,0.0,0.0,0.0,0.0,0.0,0.0,0.0,0.0,0.0,0.0,0.0,0.0,0.0,1.2487,1.3277,1.4209,1.5074,1.518,1.5695,1.6938,1.7027,1.6394,1.488,0.0,0.0,0.0,0.0,0.0,0.0,0.0,0.0,0.0,0.0,0.0,0.0,0.0,0.0,0.0,0.0,0.0,0.0,0.0,0.0,0.0,0.0,0.0,0.0,0.0,0.0,0.0,0.0,0.0,0.0,0.0,0.0,0.0,0.0,0.0,0.0,0.0,0.0,0.0,0.0,0.0,0.0,0.0,0.0,0.0,0.0,0.0,0.0,0.0,0.0,0.0,0.0,0.0,0.0,0.0,0.0,0.0,0.0,0.0,0.0,0.0,0.0,0.0,0.0,0.0,0.0,0.0,0.0,0.0,0.0,0.0,0.0,0.0,0.0,0.0,0.0,0.0,0.0,0.0,0.0,0.0,0.0,0.0,0.0,0.0,0.0,0.0,0.0,0.0,0.0,0.0,0.0,0.0,0.0,0.0,0.0,0.0,0.0,0.0,0.0,0.0,0.0,1.2974,1.361,1.4641,1.605,1.6213,1.6738,1.8085,1.8204,1.7558,0.0,0.0,0.0,0.0,0.0,0.0,0.0,0.0,0.0,0.0,0.0,0.0,0.0,0.0,0.0,0.0,0.0,0.0,0.0,0.0,0.0,0.0,0.0,0.0,0.0,0.0,0.0,0.0,0.0,0.0,0.0,0.0,0.0,0.0,0.0,0.0,0.0,0.0,0.0,0.0,0.0,0.0,0.0,0.0,0.0,0.0,0.0,0.0,0.0,0.0,0.0,0.0,0.0,0.0,0.0,0.0,0.0,0.0,0.0,0.0,0.0,0.0,0.0,0.0,0.0,0.0,0.0,0.0,0.0,0.0,0.0,0.0,0.0,0.0,0.0,0.0,0.0,0.0,0.0,0.0,0.0,0.0,0.0,0.0,0.0,0.0,0.0,0.0,0.0,0.0,0.0,0.0,0.0,0.0,0.0,0.0,0.0,0.0,0.0,0.0,0.0,0.0,0.0,1.2404,1.3376,1.4641,1.605,1.6213,1.6738,1.8085,1.8204,1.7558,1.6099,0.0,0.0,0.0,0.0,0.0,0.0,0.0,0.0,0.0,0.0,0.0,0.0,0.0,0.0,0.0,0.0,0.0,0.0,0.0,0.0,0.0,0.0,0.0,0.0,0.0,0.0,0.0,0.0,0.0,0.0,0.0,0.0,0.0,0.0,0.0,0.0,0.0,0.0,0.0,0.0,0.0,0.0,0.0,0.0,0.0,0.0,0.0,0.0,0.0,0.0,0.0,0.0,0.0,0.0,0.0,0.0,0.0,0.0,0.0,0.0,0.0,0.0,0.0,0.0,0.0,0.0,0.0,0.0,0.0,0.0,0.0,0.0,0.0,0.0,0.0,0.0,0.0,0.0,0.0,0.0,0.0,0.0,0.0,0.0,0.0,0.0,0.0,0.0,0.0,0.0,0.0,0.0,0.0,0.0,0.0,0.0,0.0,0.0,0.0,0.0,0.0,0.0,1.3006,1.3947,1.5178,1.6602,1.6759,1.7329,1.8709,1.8844,1.8346,1.7196,0.0,0.0,0.0,0.0,0.0,0.0,0.0,0.0,0.0,0.0,0.0,0.0,0.0,0.0,0.0,0.0,0.0,0.0,0.0,0.0,0.0,0.0,0.0,0.0,0.0,0.0,0.0,0.0,0.0,0.0,0.0,0.0,0.0,0.0,0.0,0.0,0.0,0.0,0.0,0.0,0.0,0.0,0.0,0.0,0.0,0.0,0.0,0.0,0.0,0.0,0.0,0.0,0.0,0.0,0.0,0.0,0.0,0.0,0.0,0.0,0.0,0.0,0.0,0.0,0.0,0.0,0.0,0.0,0.0,0.0,0.0,0.0,0.0,0.0,0.0,0.0,0.0,0.0,0.0,0.0,0.0,0.0,0.0,0.0,0.0,0.0,0.0,0.0,0.0,0.0,0.0,0.0,0.0,0.0,0.0,0.0,0.0,0.0,0.0,0.0,0.0,0.0,1.4192,1.4881,1.594,1.7357,1.755,1.8178,1.9579,1.9747,1.9521,1.8845,0.0,0.0,0.0,0.0,0.0,0.0,0.0,0.0,0.0,0.0,0.0,0.0,0.0,0.0,0.0,0.0,0.0,0.0,0.0,0.0,0.0,0.0,0.0,0.0,0.0,0.0,0.0,0.0,0.0,0.0,0.0,0.0,0.0,0.0,0.0,0.0,0.0,0.0,0.0,0.0,0.0,0.0,0.0,0.0,0.0,0.0,0.0,0.0,0.0,0.0,0.0,0.0,0.0,0.0,0.0,0.0,0.0,0.0,0.0,0.0,1.4165,0.0,0.0,0.0,0.0,0.0,0.0,0.0,0.0,0.0,0.0,0.0,0.0,0.0,0.0,0.0,0.0,0.0,0.0,0.0,0.0,0.0,0.0,0.0,0.0,0.0,0.0,0.0,0.0,0.0,0.0,0.0,0.0,0.0,0.0,0.0,0.0,0.0,0.0,0.0,0.0,0.0,1.3286,1.4491,1.5748,1.6652,1.7246,1.7961,1.8847,1.9475,1.9521,1.8845,1.8528,0.0,0.0,0.0,0.0,0.0,0.0,0.0,0.0,0.0,0.0,0.0,0.0,0.0,0.0,0.0,0.0,0.0,0.0,0.0,0.0,0.0,0.0,0.0,0.0,0.0,0.0,0.0,0.0,0.0,0.0,0.0,0.0,0.0,0.0,0.0,0.0,0.0,0.0,0.0,0.0,0.0,0.0,0.0,0.0,0.0,0.0,0.0,0.0,0.0,0.0,0.0,0.0,0.0,0.0,0.0,0.0,0.0,0.0,0.0,1.4518,1.4719,0.0,0.0,0.0,0.0,0.0,0.0,0.0,0.0,0.0,0.0,0.0,0.0,0.0,0.0,0.0,0.0,0.0,0.0,0.0,0.0,0.0,0.0,0.0,0.0,0.0,0.0,0.0,0.0,0.0,0.0,0.0,0.0,0.0,0.0,0.0,0.0,0.0,0.0,0.0,0.0,1.3296,1.4491,1.569,1.6436,1.6838,1.7523,1.8608,1.9032,1.928,1.9276,1.8986,0.0,0.0,0.0,0.0,0.0,0.0,0.0,0.0,0.0,0.0,0.0,0.0,0.0,0.0,0.0,0.0,0.0,0.0,0.0,0.0,0.0,0.0,0.0,0.0,0.0,0.0,0.0,0.0,0.0,0.0,0.0,0.0,0.0,0.0,0.0,0.0,0.0,0.0,0.0,0.0,0.0,0.0,0.0,0.0,0.0,0.0,0.0,0.0,0.0,0.0,0.0,0.0,0.0,1.3605,1.3581,1.3705,1.3705,1.3576,1.345,1.5217,1.5856,1.5598,1.5459,0.0,0.0,0.0,0.0,0.0,0.0,0.0,0.0,0.0,0.0,0.0,0.0,0.0,0.0,0.0,0.0,0.0,0.0,0.0,0.0,0.0,0.0,1.2847,1.3232,1.3516,1.4086,1.5573,0.0,0.0,0.0,0.0,0.0,0.0,0.0,0.0,0.0,0.0,0.0,1.3478,1.4589,1.5633,1.6226,1.6436,1.6978,1.8221,1.8436,1.8821,1.9553,1.9078,1.8776,0.0,0.0,0.0,0.0,0.0,0.0,0.0,0.0,0.0,0.0,0.0,0.0,0.0,0.0,0.0,0.0,0.0,0.0,0.0,0.0,0.0,0.0,0.0,0.0,0.0,0.0,0.0,0.0,0.0,0.0,0.0,0.0,1.3213,1.3209,0.0,0.0,0.0,0.0,0.0,0.0,0.0,0.0,0.0,0.0,0.0,0.0,0.0,1.0789,1.0856,1.1594,1.1993,1.2047,1.2745,1.345,1.413,1.413,1.4457,1.5039,1.4594,0.0,1.5243,1.507,0.0,0.0,0.0,0.0,0.0,0.0,0.0,0.0,0.0,0.0,0.0,0.0,0.0,0.0,0.0,0.0,0.0,0.0,0.0,0.0,0.0,0.0,1.4981,1.5068,1.4539,1.4306,1.5276,1.4296,1.342,1.4102,1.363,1.3076,0.0,0.0,0.0,0.0,0.0,0.0,1.3041,1.4392,1.5439,1.5517,1.6122,1.6567,1.6754,1.7385,1.807,1.8794,1.8768,1.8746,1.8806,1.9856,0.0,0.0,0.0,0.0,0.0,0.0,0.0,0.0,0.0,0.0,0.0,0.0,0.0,0.0,0.0,0.0,0.0,0.0,0.0,0.0,0.0,0.0,0.0,0.0,0.0,0.0,0.0,0.0,0.0,1.3079,1.3094,1.2913,1.2886,1.2255,0.0,0.0,0.0,0.0,0.0,0.0,0.0,0.0,0.0,1.0906,1.1392,1.1627,1.1627,1.25,1.294,1.2948,1.3337,1.3675,1.4015,1.3834,1.3956,1.4258,1.3699,1.3681,1.3988,1.4334,1.4493,1.4508,0.0,0.0,0.0,0.0,1.2131,1.2609,1.2388,1.2895,1.3558,1.3558,0.0,0.0,0.0,0.0,0.0,0.0,0.0,1.2988,1.3467,1.4114,1.4786,1.5264,1.5098,1.4923,1.5332,1.4466,1.3723,1.4113,1.3501,1.2879,1.2637,1.278,0.0,0.0,0.0,1.3804,1.361,1.463,1.541,1.541,1.57,1.6036,1.6454,1.6782,1.7302,1.8031,1.8085,1.8289,1.8721,1.9319,1.9229,0.0,0.0,0.0,0.0,0.0,0.0,0.0,0.0,0.0,0.0,0.0,0.0,0.0,0.0,0.0,0.0,0.0,0.0,0.0,0.0,0.0,0.0,0.0,0.0,0.0,0.0,0.0,0.0,1.3012,1.2897,1.2726,1.2543,1.1898,0.0,0.0,0.0,0.0,0.0,0.0,1.1314,1.133,1.1319,1.1346,1.1958,1.2287,1.2287,1.2939,1.3261,1.3261,1.3261,1.3394,1.3586,1.3323,1.3324,1.3501,1.3303,1.3219,1.3254,1.3663,1.3811,1.3793,1.3578,1.312,1.2604,1.2571,1.2702,1.2918,1.3153,1.376,1.4408,1.4179,1.3835,1.3447,1.3215,0.0,0.0,0.0,0.0,1.2737,1.3335,1.3652,1.397,1.4635,1.4932,1.5147,1.5252,1.4761,1.4309,1.4416,1.3779,1.3111,1.2813,1.3018,0.0,1.252,1.3387,1.4104,1.4104,1.4855,1.541,1.541,1.541,1.5613,1.6179,1.6208,1.6539,1.7274,1.733,1.766,1.8394,1.8608,1.8723,1.8783,0.0,0.0,0.0,0.0,0.0,0.0,0.0,0.0,0.0,0.0,0.0,0.0,0.0,0.0,0.0,0.0,0.0,0.0,0.0,0.0,0.0,0.0,0.0,0.0,0.0,0.0,0.0,0.0,0.0,1.2198,1.3145,0.0,0.0,0.0,0.0,1.1291,1.1283,1.1316,1.1388,1.1394,1.139,1.1384,1.1431,1.1444,1.1444,1.1512,1.1526,1.1526,1.1526,1.1969,1.2747,1.2732,1.3145,1.3859,1.3843,1.3835,1.3811,1.3287,1.3072,1.2967,1.2147,1.1794,1.1762,1.1687,1.2207,1.2996,1.3769,1.4601,1.5197,1.4446,1.311,1.166,1.0852,1.0566,0.0,0.0,1.1078,1.177,1.1803,1.2423,1.3089,1.3122,1.3696,1.4372,1.4823,1.4846,1.4873,1.5264,1.463,1.4026,1.4004,0.0,1.3779,1.2988,1.3564,1.4104,1.4104,1.4855,1.541,1.541,1.541,1.541,1.5439,1.5468,1.5777,1.651,1.6578,1.6894,1.7633,1.834,1.8691,1.8711,1.7707,0.0,0.0,0.0,0.0,0.0,0.0,0.0,0.0,0.0,0.0,0.0,0.0,0.0,0.0,0.0,0.0,0.0,0.0,0.0,0.0,0.0,0.0,0.0,0.0,0.0,0.0,0.0,0.0,1.203,1.2043,0.0,1.0968,1.1291,1.144,1.1118,1.1622,1.1956,1.1971,1.1984,1.1975,1.1984,1.1991,1.1991,1.1991,1.1991,1.1991,1.1991,1.1991,1.2134,1.245,1.2255,1.2333,1.2589,1.238,1.2294,1.2272,1.2049,1.2603,1.3549,1.3256,1.3119,1.3117,1.31,1.3266,1.3594,1.3872,1.4169,1.4395,1.4109,1.3584,1.2945,1.2128,1.2234,1.2532,1.202,1.2468,1.3119,1.3119,1.3346,1.3574,1.3574,1.4268,1.4944,1.5119,1.5604,1.6054,1.62,1.5527,1.4933,1.4933,1.54,1.5478,1.4639,1.5215,1.5781,1.5781,1.6044,1.6152,1.5889,1.586,1.5723,1.5439,1.541,1.5497,1.5777,1.5777,1.6112,1.6866,1.7605,1.8232,1.8688,1.8798,1.8336,0.0,0.0,0.0,0.0,0.0,0.0,0.0,0.0,0.0,0.0,0.0,0.0,0.0,0.0,0.0,0.0,0.0,0.0,0.0,0.0,0.0,0.0,0.0,0.0,0.0,0.0,1.1653,1.1933,1.1635,1.1363,1.1203,1.1323,1.1436,1.1436,1.1977,1.2305,1.2305,1.2305,1.2305,1.2305,1.2305,1.2305,1.2305,1.2305,1.2305,1.2305,1.2305,1.2305,1.2291,1.2104,1.1904,1.1724,1.1724,1.1575,1.1409,1.1608,1.2374,1.334,1.3145,1.306,1.3094,1.3394,1.3502,1.3527,1.3793,1.3726,1.3502,1.3502,1.3294,1.296,1.2403,1.2631,1.296,1.2403,1.2639,1.306,1.306,1.306,1.306,1.306,1.3751,1.4444,1.4604,1.5159,1.5852,1.6533,1.6227,1.5762,1.5459,1.5868,1.5966,1.5089,1.5449,1.582,1.582,1.6083,1.6172,1.5879,1.6144,1.6113,1.5674,1.5498,1.541,1.541,1.5283,1.5598,1.6454,1.6858,1.7326,1.7917,1.8262,1.7761,1.6317,0.0,0.0,0.0,0.0,0.0,0.0,0.0,0.0,0.0,0.0,0.0,0.0,0.0,0.0,0.0,0.0,0.0,0.0,0.0,0.0,0.0,0.0,0.0,1.0204,1.0856,1.1543,1.1879,1.2131,1.2305,1.2305,1.2305,1.2305,1.2305,1.2305,1.2305,1.2305,1.2285,1.2278,1.2278,1.2278,1.2278,1.2278,1.2291,1.2305,1.2305,1.2305,1.2305,1.2305,1.2305,1.1991,1.1449,1.2051,1.1977,1.1462,1.2071,1.2305,1.2245,1.1677,1.1415,1.1525,1.2371,1.2683,1.2811,1.3576,1.3318,1.2683,1.2683,1.2133,1.1415,1.1415,1.1415,1.1415,1.1415,1.1415,1.1415,1.1415,1.1415,1.1415,1.1415,1.2099,1.2833,1.3242,1.3502,1.4216,1.6239,1.6637,1.6432,1.5615,1.5488,1.5186,1.4348,1.4231,0.0,1.4231,1.4952,1.5488,1.5478,1.618,1.6543,1.6153,1.5674,1.542,1.543,1.5049,1.5329,1.6415,1.6174,1.6171,1.6471,1.6067,1.5916,1.6065,0.0,0.0,0.0,0.0,0.0,0.0,0.0,0.0,0.0,0.0,0.0,0.0,0.0,0.0,0.0,0.0,0.0,0.0,0.0,0.0,0.0,0.0,1.1159,1.1056,1.1242,1.161,1.2124,1.2258,1.2305,1.2305,1.2305,1.2305,1.2305,1.2305,1.2305,1.2305,1.1897,1.1663,1.1663,1.1663,1.1663,1.1663,1.2091,1.2305,1.2305,1.2305,1.2305,1.2305,1.2305,1.2211,1.2071,1.2231,1.2211,1.2071,1.2238,1.2305,1.2285,1.2124,1.2058,1.2094,1.231,1.2418,1.2392,1.215,1.2221,1.2418,1.2418,1.2245,1.2058,1.2058,1.2058,1.2058,1.2058,1.2058,1.2058,1.2058,1.2058,1.2058,1.2058,1.277,1.347,1.356,1.4202,1.5111,1.6365,1.6601,1.6771,1.7203,1.7295,1.7184,1.695,1.6943,1.6943,1.6943,1.7148,1.7178,1.6875,1.6515,1.6328,1.6533,1.585,1.5547,1.5889,1.5801,1.5733,1.57,1.613,1.6917,1.8063,1.719,1.7027,0.0,0.0,0.0,0.0,0.0,0.0,0.0,0.0,0.0,0.0,0.0,0.0,0.0,0.0,0.0,0.0,0.0,0.0,0.0,0.0,0.0,0.0,1.1074,1.1475,1.1757,1.1797,1.1917,1.2265,1.2305,1.2305,1.2305,1.2305,1.2305,1.2305,1.2305,1.2305,1.2305,1.1977,1.1648,1.1395,1.1663,1.1677,1.1395,1.2011,1.2305,1.2305,1.2305,1.2305,1.2305,1.2305,1.2164,1.1951,1.2198,1.2164,1.1957,1.2198,1.2305,1.2305,0.0,0.0,0.0,0.0,1.2305,1.2251,1.1911,1.2017,1.2305,1.2305,1.2305,1.2305,1.2305,1.2131,1.1931,1.1931,1.1757,1.163,1.187,1.1931,1.1997,1.2245,1.2732,1.3091,1.3091,1.3706,1.46,1.5765,1.6125,0.0,1.7804,1.7715,1.7321,1.6973,1.6924,1.6924,1.6924,1.7246,1.7383,1.7139,1.6973,1.6914,1.7002,1.6336,0.0,0.0,0.0,1.5635,1.5201,1.5687,0.0,0.0,0.0,1.6634,1.7738,1.7389,0.0,0.0,1.6298,1.596,0.0,0.0,0.0,0.0,0.0,0.0,0.0,0.0,0.0,0.0,0.0,0.0,0.0,0.0,0.0,0.0,1.1142,1.1703,1.2231,1.2305,1.2305,1.2305,1.2305,1.2305,1.2305,1.2305,1.2305,1.2305,1.2305,1.2305,1.2305,0.0,0.0,0.0,0.0,1.1951,1.1395,1.2011,1.2305,1.2305,1.2305,1.2305,1.2305,1.2305,1.2017,1.1515,1.2078,1.2004,1.1529,1.2084,1.2305,1.2305,1.2305,1.2305,1.2291,1.2231,1.2245,1.2291,1.2225,0.0,0.0,1.2305,1.2305,1.2305,1.2305,1.1937,1.1489,1.1489,1.1156,1.0908,1.139,1.1489,1.1657,1.2178,1.2305,1.2342,1.2445,1.2734,1.3461,1.5039,1.5595,1.6281,1.7736,1.735,1.658,1.582,1.5703,1.5703,1.5703,1.6356,1.6843,1.6843,1.7438,0.0,1.748,1.7012,1.6726,1.6775,1.5946,1.5336,1.5049,1.5148,1.5308,1.5522,1.5127,1.57,1.7274,1.7946,1.8062,1.7725,1.7039,1.6886,0.0,0.0,0.0,0.0,0.0,0.0,0.0,0.0,0.0,0.0,0.0,0.0,0.0,0.0,0.0,1.1303,1.175,1.2171,1.2285,1.2305,1.2305,1.2305,1.2305,1.2305,1.2305,1.2305,1.2305,1.2305,1.2305,1.2305,1.2305,1.185,1.1509,1.1395,1.1502,1.1502,1.1389,1.2011,1.2305,1.2305,1.2305,0.0,1.2305,1.2305,1.2238,1.2138,1.2251,1.2238,1.2138,1.2251,1.2305,1.2305,1.2305,1.2305,1.2245,1.1735,1.1897,1.2231,1.1757,1.1904,1.2305,1.2305,1.2305,1.2305,1.2305,1.2225,0.0,1.2131,1.2051,1.1991,1.2104,1.2131,1.2158,1.2278,1.2305,1.2519,1.328,1.3504,1.4088,1.5974,1.6372,1.6772,1.7808,1.7871,1.7705,1.7529,1.751,1.751,1.751,1.7656,1.7764,1.7764,1.7262,1.7194,1.7842,1.7145,1.6853,1.7236,1.6457,1.5949,1.5871,1.5544,1.5662,1.6277,1.6195,1.6894,1.8379,1.8522,1.8551,1.8489,1.835,1.8007,0.0,0.0,0.0,0.0,0.0,0.0,0.0,0.0,0.0,0.0,0.0,1.1514,0.0,0.0,1.1506,1.141,1.1635,1.1964,1.2265,1.2432,1.2509,1.2318,1.2305,1.2305,1.2305,1.2305,1.2365,1.2549,1.2563,1.2592,1.2746,1.2478,1.2141,1.1877,1.2158,1.2171,1.1864,1.2458,1.2759,1.2759,1.2759,1.2672,1.2563,1.2563,1.2445,1.2305,1.2305,1.2305,1.2305,1.2305,1.2305,1.2305,1.2305,1.2305,1.2265,1.1971,1.2051,1.2265,1.1964,1.2058,1.2305,1.2305,1.2305,1.2305,1.2305,1.2098,1.1864,1.1864,1.1657,1.1496,1.179,1.1864,1.1937,1.2231,1.2305,1.2445,1.2915,1.3382,1.3991,1.4977,1.593,1.674,1.7207,1.7681,1.8008,1.8008,1.8008,1.8008,1.8008,1.8008,1.8008,1.8008,1.7594,1.7549,1.7978,1.7617,1.7373,1.7383,1.7005,1.6555,1.6114,1.588,1.5978,1.6492,1.6492,1.7034,1.814,1.8528,1.8501,1.814,1.814,1.795,0.0,0.0,0.0,0.0,0.0,0.0,0.0,0.0,1.1931,1.1616,1.1221,1.0928,1.0928,1.0928,1.1089,1.1489,1.1643,1.1844,1.2325,1.2683,1.2784,1.2505,1.2478,1.2478,1.2478,1.2478,1.2579,1.2857,1.2878,1.2985,1.32,1.3213,1.2986,1.2492,1.2959,1.2973,1.2485,1.2966,1.3213,1.3213,1.3213,1.308,1.2878,1.2878,1.2744,1.2478,1.2418,1.2351,1.2305,1.2305,1.2305,1.2305,1.2305,1.2305,1.2305,1.2305,1.2305,1.2305,1.2305,1.2305,1.2305,1.2305,1.2305,1.2305,1.2305,1.1971,1.1562,1.1562,1.1256,1.1042,1.1476,1.1562,1.1717,1.2191,1.2305,1.2342,1.2519,1.3171,1.3745,1.3954,1.5403,1.6602,1.6602,1.7398,1.8008,1.8008,1.8008,1.8008,1.8008,1.8008,1.8008,1.8008,1.8008,1.8008,1.8008,1.8008,1.7871,1.7529,1.7432,1.7093,1.6378,1.6183,1.6188,1.6428,1.6335,1.6652,1.7385,1.7977,1.8031,1.7605,1.7605,1.7523,1.4582,1.3174,1.2307,1.2732,1.291,1.2734,0.0,0.0,1.3082,1.1703,1.1779,1.2104,1.2104,1.2104,1.2131,1.2191,1.2462,1.2656,1.2723,1.2966,1.3146,1.3113,1.3106,1.3106,1.3106,1.3106,1.3126,1.316,1.316,1.3173,1.3206,1.3213,1.318,1.3113,1.3173,1.318,1.3106,1.318,1.3213,1.3213,1.3213,1.3193,1.316,1.316,1.314,1.3093,1.2857,1.2583,1.2305,1.2305,1.2305,1.2305,1.2305,1.2305,1.2305,1.2305,1.2305,1.2305,1.2305,1.2305,1.2305,1.2305,1.2305,1.2305,1.2305,1.2251,1.2204,1.2204,1.2158,1.2118,1.2184,1.2204,1.2225,1.2285,1.2305,1.2519,1.3346,1.3637,1.3954,1.4843,1.586,1.6602,1.6602,1.7398,1.8008,1.8008,1.8008,1.8008,1.8008,1.8008,1.8008,1.8008,1.8008,1.8008,1.8008,1.8008,1.7988,1.7939,1.7588,1.7376,1.7269,1.6515,1.6096,1.6137,1.5723,1.5892,1.6624,1.6708,1.7034,1.7605,1.7605,1.7257,1.4506,1.3662,1.3003,1.2839,1.2699,1.2479,1.2109,1.2472,1.27,1.2056,1.2131,1.2305,1.2305,1.2017,1.1957,0.0,1.2415,1.2455,1.2939,1.3273,1.342,1.342,1.3313,1.3073,1.2719,1.3006,1.3133,1.2991,1.3267,1.354,1.3707,1.3721,1.342,1.2686,1.2692,1.2355,1.1683,1.1683,1.2016,1.2692,1.2692,1.2946,1.342,1.342,1.3367,1.32,1.3073,1.2846,1.2596,1.2596,1.2496,1.2305,1.2305,1.2305,1.2305,1.2305,1.2305,1.2305,1.2305,1.2305,1.2305,1.2305,1.2305,1.2305,1.2305,1.2305,1.2305,1.2305,1.2305,1.2305,1.2305,1.2305,1.2305,1.2305,1.2305,1.2409,1.2806,1.2879,1.3025,1.3448,1.4271,1.4906,1.4906,1.6184,1.7182,1.7182,1.7647,1.8008,1.8008,1.8008,1.8008,1.8008,1.8008,1.8008,1.8008,1.8008,1.8008,1.8008,1.7842,1.7637,1.7393,1.7063,1.6623,1.6105,1.5919,1.5812,1.5864,1.6293,1.6652,1.695,1.695,1.6793,1.4205,1.3717,1.3204,1.2876,1.2403,1.2104,1.2265,1.2305,1.2305,1.2305,1.2305,1.2305,1.2305,1.2024,1.2004,1.2683,1.2563,1.2585,1.324,1.354,1.3666,1.35,1.334,1.2906,1.2131,1.2759,1.3186,1.3159,1.352,1.382,1.4075,1.4088,1.3688,1.2808,1.2808,1.2382,1.1563,1.1563,1.1992,1.2808,1.2456,1.2795,1.3726,1.3726,1.3567,1.3327,1.3327,1.316,1.2911,1.2911,1.273,1.2425,1.2425,1.2378,1.2305,1.2305,1.2305,1.2305,1.2305,1.2305,1.2305,1.2305,1.2305,1.2305,1.2305,1.2305,1.2305,1.2305,1.2305,1.2305,1.2305,1.2305,1.2305,1.2305,1.2305,1.2305,1.2305,1.2305,1.2305,1.2305,1.3273,1.4027,1.3745,1.5544,1.6888,1.6636,1.7398,1.8008,1.8008,1.8008,1.8008,1.8008,1.8008,1.8008,1.8008,1.8008,1.8008,1.8008,1.8008,1.7871,1.7568,1.7451,1.7112,1.6476,1.6339,1.6035,1.5586,1.6132,1.6331,1.6208,1.6407,1.6407,1.3565,1.2632,1.1895,1.2397,1.1969,1.1568,1.2171,1.2305,1.2305,1.2305,1.2305,1.2305,1.2305,1.2563,1.275,1.2784,1.322,1.356,1.3586,1.3888,1.3861,1.3293,1.3213,1.2746,0.0,1.2518,1.3447,1.4001,1.4062,1.4075,1.4088,1.4088,1.4088,1.4039,1.4039,1.4046,1.3997,1.3997,1.3997,1.4046,1.2857,1.2936,1.4075,1.4075,1.3908,1.3586,1.3586,1.3427,1.32,1.32,1.3013,1.277,1.277,1.2596,1.2305,1.2305,1.2305,1.2305,1.2305,1.2305,1.2305,1.2305,1.2305,1.2305,1.2305,1.2305,1.2305,1.2305,1.2305,1.2305,1.2305,1.2305,1.2305,1.2305,1.2305,1.2305,1.2305,1.2305,1.2305,1.2305,1.3846,1.4843,1.3882,1.6053,1.7647,1.674,1.7398,1.8008,1.8008,1.8008,1.8008,1.8008,1.8008,1.8008,1.8008,1.8008,1.8008,1.8008,1.8008,1.8008,1.7988,1.7598,1.7406,1.7376,1.6892,1.6494,1.6075,1.6105,1.589,1.5439,1.6179,1.6122,1.2521,1.2256,1.2166,1.185,1.1885,1.2058,1.2258,1.2305,1.2305,1.2305,1.1991,1.1688,1.1688,1.149,1.1584,1.2362,1.2291,1.2548,1.3774,1.334,1.3126,1.3721,1.3093,0.0,0.0,0.0,0.0,1.2919,1.3641,1.4088,1.4088,1.4088,1.373,1.2942,1.2899,1.2553,1.1778,1.1783,1.2169,1.2893,1.3294,1.3688,1.4088,1.4088,1.4035,1.3941,1.3941,1.3768,1.346,1.346,1.332,1.3053,1.3053,1.2904,1.2636,1.2636,1.2472,1.2305,1.2305,1.2305,1.2305,1.2305,1.2305,1.2305,1.2305,1.2305,1.2305,1.2305,1.2305,1.2305,1.2305,1.2305,1.2305,1.2305,1.2305,1.2482,1.3098,1.3237,1.3419,1.4091,1.4736,1.5092,1.4736,1.6009,1.7173,1.7467,1.7794,1.8008,1.8008,1.8008,1.8008,1.8008,1.8008,1.8008,1.8008,1.8008,1.8008,1.8008,1.8008,1.8008,1.8008,1.7871,1.7666,1.7425,1.7236,1.6953,1.6504,1.6242,1.6016,1.586,1.581,1.5642,1.2001,1.2165,1.2517,1.2021,1.2178,1.2496,1.2496,1.2378,1.2305,1.2305,1.2004,1.1677,1.1429,1.1209,1.1343,1.2164,1.2071,1.2412,1.3881,1.3427,1.3146,1.3707,1.3093,1.2846,0.0,0.0,0.0,1.2652,1.334,1.3774,1.3774,1.3774,1.3522,1.2978,1.2942,1.2595,1.1869,1.1869,1.1992,1.2328,1.3512,1.3864,1.347,1.3906,1.3975,1.3781,1.3995,1.3861,1.3467,1.3673,1.3627,1.3327,1.3327,1.318,1.2951,1.2951,1.2792,1.2599,1.2378,1.2305,1.2305,1.2305,1.2305,1.2305,1.2305,1.2305,1.2305,1.2305,1.2305,1.2305,1.2305,1.2305,1.2305,1.2305,1.2305,1.2556,1.3491,1.3709,1.3991,1.4985,1.5473,1.5579,1.5269,1.5965,1.6922,1.7862,1.8008,1.8008,1.8008,1.8008,1.8008,1.8008,1.8008,1.8008,1.8008,1.8008,1.8008,1.8008,1.8008,1.8008,1.8008,1.8008,1.7881,1.7607,1.7607,1.7393,1.6963,1.6701,1.6398,1.6085,1.5801,1.5557,1.1972,1.2342,1.2871,1.2814,1.2797,1.2784,1.2784,1.2556,1.2291,1.2265,1.2231,1.2031,0.0,0.0,1.1859,1.2158,1.2489,1.2998,1.3929,1.4008,1.3801,0.0,0.0,0.0,0.0,0.0,0.0,1.3213,0.0,1.3253,1.3253,1.3253,1.3514,1.4068,1.4088,1.4088,1.4088,1.4088,1.3512,1.2413,1.3555,1.3512,1.2413,1.3561,1.3781,1.3287,1.3848,1.3768,1.33,1.3854,1.3921,1.3626,1.3626,1.3447,1.3233,1.3233,1.3227,1.3126,1.2552,1.2338,1.2318,1.2305,1.2305,1.2305,1.2305,1.2305,1.2305,1.2305,1.2305,1.2305,1.2305,1.2305,1.2305,1.2305,1.2305,1.2556,1.3564,1.3781,1.4099,1.5128,1.607,1.6393,1.5517,1.607,1.6957,1.7872,1.8008,1.8008,1.8008,1.8008,1.8008,1.8008,1.8008,1.8008,1.8008,1.8008,1.8008,1.8008,1.8008,1.8008,1.8008,1.8008,1.8008,1.8008,1.8008,1.7812,1.7422,1.7393,1.6985,1.6163,1.6114,1.587,1.1965,1.2389,1.2876,1.3038,1.2958,1.2784,1.2784,1.2556,1.2178,1.1702,1.1303,1.0755,0.0,0.0,0.0,1.0881,1.1102,0.0,1.2938,1.2938,0.0,1.3173,0.0,1.332,1.3607,1.3774,0.0,0.0,1.3614,1.3861,1.3861,1.3861,1.3935,1.4082,1.4088,1.4088,1.4088,1.4088,1.3955,1.3646,1.3955,1.3955,1.3646,1.3955,1.4008,1.3874,1.4021,1.4001,1.3874,1.4028,1.4041,1.3975,1.3975,1.3794,1.3493,1.3493,1.3353,1.3186,1.3033,1.2826,1.2636,1.2371,1.2305,1.2305,1.2305,1.2305,1.2305,1.2305,1.2305,1.2305,1.2305,1.2305,1.2305,1.2305,1.2305,1.2769,1.445,1.4807,1.5305,1.6975,1.7467,1.7579,1.7329,1.7467,1.7716,1.7974,1.8008,1.8008,1.8008,1.8008,1.8008,1.8008,1.8008,1.8008,1.8008,1.8008,1.8008,1.8008,1.8008,1.8008,1.8008,1.8008,1.8008,1.8008,1.8008,1.7959,1.7852,1.7539,1.7298,1.7063,1.6398,1.6036,1.2332,1.2722,1.318,1.3353,1.3173,1.2918,1.265,1.2225,1.1717,1.0962,1.0595,0.0,0.9184,0.8991,0.0,0.0,0.0,0.0,1.261,1.2757,1.2826,0.0,1.328,0.0,1.4222,1.4396,1.4335,0.0,1.3928,1.3895,1.3895,1.4015,1.4202,1.4506,1.4469,1.4469,1.4469,1.4342,1.4282,1.4275,1.4148,1.4088,1.4088,1.4088,1.3948,1.3721,1.3975,1.3941,1.3721,1.3981,1.4088,1.4088,1.4088,1.3981,1.3841,1.3841,1.3734,1.3574,1.3447,1.3287,1.3093,1.2799,1.2612,1.2536,1.2536,1.2405,1.2305,1.2305,1.2305,1.2305,1.2305,1.2305,1.2305,1.2305,1.2305,1.2696,1.4199,1.4879,1.5763,1.7657,1.8008,1.8008,1.8008,1.8008,1.8008,1.8008,1.8008,1.8008,1.8008,1.8008,1.8008,1.8008,1.8008,1.8008,1.8008,1.8008,1.8008,1.8008,1.8008,1.8008,1.8008,1.8008,1.8008,1.8008,1.8008,1.8008,1.8008,1.7773,1.7568,1.7406,1.6907,1.6574,1.2747,1.3153,1.36,1.36,1.3387,1.306,1.2492,1.1844,1.1096,1.0256,0.0,0.9706,0.8951,0.9018,0.9491,1.0399,0.0,1.1623,1.2388,1.2891,1.3133,1.3093,1.3373,1.3833,1.4462,1.4716,1.4921,1.5001,1.4289,1.382,1.378,1.4062,1.4479,1.4995,1.5008,1.5008,1.5008,1.471,1.4583,1.4576,1.4282,1.4142,1.4142,1.4108,1.3808,1.3353,1.3861,1.3801,1.3367,1.3874,1.4088,1.4088,1.4088,1.4088,1.4088,1.4088,1.4088,1.4048,1.3753,1.366,1.3606,1.332,1.3026,1.2844,1.2844,1.2636,1.2365,1.2365,1.2331,1.2305,1.2305,1.2305,1.2305,1.2305,1.2305,1.2556,1.3491,1.4593,1.5904,1.7657,1.8008,1.8008,1.8008,1.8008,1.8008,1.8008,1.8008,1.8008,1.8008,1.8008,1.8008,1.8008,1.8008,1.8008,1.8008,1.8008,1.8008,1.8008,1.8008,1.8008,1.8008,1.8008,1.8042,1.8168,1.8076,1.8076,1.8168,1.8076,1.7822,1.7461,1.7412,1.7178,1.2455,1.2999,1.36,1.36,1.3387,1.312,1.279,1.1873,0.0,0.0,0.9539,0.8991,0.8838,0.9018,0.9417,1.0087,1.0688,1.1035,1.0988,1.2067,1.2777,0.0,1.312,1.3833,1.4462,1.4349,0.0,0.0,1.5044,1.499,1.4794,1.4827,1.4901,1.5008,1.5008,1.5008,1.5008,1.4955,1.4928,1.4928,1.4589,1.4442,1.4436,1.4195,1.4035,1.3941,1.4041,1.4028,1.3941,1.4041,1.4088,1.4088,1.4088,1.4088,1.4088,1.4088,1.4088,1.4082,1.4028,1.4008,1.3921,1.3387,1.3173,1.3126,1.3126,1.2951,1.2703,1.2703,1.2529,1.2305,1.2305,1.2305,1.2305,1.2305,1.2305,1.2556,1.3491,1.5084,1.668,1.7794,1.8008,1.8008,1.8008,1.8008,1.8008,1.8008,1.8008,1.8008,1.8008,1.8008,1.8008,1.8008,1.8008,1.8008,1.8008,1.8008,1.8008,1.8008,1.8008,1.8008,1.8008,1.8008,1.8337,1.9044,1.8371,1.8361,1.9077,1.8337,1.7969,1.7891,1.7539,1.7376,1.2425,1.3073,1.3834,1.364,1.3387,1.2926,1.1886,0.0,0.0,0.0,0.8404,0.8063,0.7885,0.8225,0.0,0.9917,1.0608,1.1156,1.1665,1.2342,0.0,1.2772,1.3427,1.3988,0.0,1.4442,1.4707,1.4988,1.5142,1.5223,1.519,1.5331,1.5418,1.5418,1.5418,1.5418,1.5418,1.5264,1.519,1.5184,1.489,1.4669,1.4516,1.4376,1.4229,1.4088,1.4088,1.3915,1.3654,1.3961,1.3908,1.3661,1.3968,1.4088,1.4088,1.4088,1.4088,1.4088,1.4088,1.4088,1.4041,1.3761,1.3561,1.3393,1.3393,1.3227,1.2991,1.2831,1.2683,1.2536,1.2345,1.2305,1.2305,1.2305,1.2305,1.2556,1.3491,1.4835,1.6149,1.707,1.7681,1.8008,1.8008,1.8008,1.8008,1.8008,1.8008,1.8008,1.8008,1.8008,1.8008,1.8008,1.8008,1.8008,1.8008,1.8008,1.8008,1.8008,1.8008,1.8008,1.8008,1.8008,1.8202,1.862,1.8202,1.8202,1.862,1.8202,1.8008,1.8008,1.7803,1.7705,1.2492,1.3133,1.3828,1.3527,1.328,1.2679,1.1062,1.0327,0.0,0.8013,0.7578,0.7477,0.7393,0.7826,0.8645,0.0,1.0588,1.1216,1.2429,1.2596,1.2757,0.0,1.3728,0.0,1.4262,1.474,0.0,1.5137,1.515,1.5251,1.5478,1.5705,1.5784,1.5784,1.5784,1.5784,1.5784,1.5605,1.5491,1.5484,1.5197,1.4937,1.4703,1.4576,1.4396,1.4175,1.4115,1.3754,1.3253,1.3848,1.3741,1.3267,1.3854,1.4088,1.4088,1.4088,1.4088,1.4088,1.4088,1.4088,1.4088,1.4088,1.3928,1.37,1.37,1.3493,1.324,1.2971,1.2837,1.2717,1.2378,1.2305,1.2305,1.2305,1.2305,1.2556,1.3491,1.4486,1.5482,1.6419,1.7364,1.8008,1.8008,1.8008,1.8008,1.8008,1.8008,1.8008,1.8008,1.8008,1.8008,1.8008,1.8008,1.8008,1.8008,1.8008,1.8008,1.8008,1.8008,1.8008,1.8008,1.8008,1.8076,1.8269,1.8269,1.8361,1.8563,1.8361,1.8269,1.8269,1.8076,1.8008,1.261,1.2993,1.3213,1.2945,1.2844,1.2502,1.1236,0.0,0.9481,0.8516,0.7873,0.7732,0.8497,0.8878,0.9484,1.0715,0.0,1.0608,1.1819,1.1986,1.2301,1.3106,0.0,0.0,1.4874,1.4975,1.5184,1.5712,1.5752,1.5758,1.5744,1.5764,1.5784,1.5784,1.5784,1.5784,1.5784,1.5758,1.5744,1.5738,1.5491,1.5344,1.5297,1.4763,1.4502,1.4469,1.4202,1.3754,1.3253,1.3848,1.3741,1.3267,1.3854,1.4088,1.4088,1.4088,1.4088,1.4088,1.4088,1.4088,1.4088,1.4088,1.4068,1.4048,1.4048,1.3841,1.35,1.3253,1.3005,1.2717,1.2378,1.2305,1.2305,1.2305,1.2305,1.2556,1.3491,1.4486,1.5482,1.6419,1.7364,1.8008,1.8008,1.8008,1.8008,1.8008,1.8008,1.8008,1.8008,1.8008,1.8008,1.8008,1.8008,1.8008,1.8008,1.8008,1.8008,1.8008,1.8008,1.8008,1.8008,1.8008,1.8361,1.9177,1.9177,1.9562,2.0365,1.9562,1.9177,1.9177,1.8361,1.8008,1.1864,1.2432,1.3133,1.2864,1.2784,1.2342,1.0626,0.0,0.936,0.8107,0.7658,0.7651,0.8159,0.8517,0.9045,0.0,0.0,0.0,1.2194,1.2281,1.2532,1.3607,1.4255,0.0,0.0,0.0,1.5109,1.5291,1.5311,1.5464,1.5764,1.5784,1.5784,1.5784,1.5784,1.5784,1.5784,1.5784,1.5784,1.5784,1.5712,1.5565,1.5391,1.5157,1.495,1.4783,1.4707,1.4017,1.3045,1.3955,1.3681,1.2759,1.3714,1.4088,1.4088,1.4088,1.4088,1.4088,1.4088,1.4088,1.4088,1.4088,1.4088,1.4088,1.4088,1.4008,1.3848,1.3513,1.3253,1.2953,1.2683,1.2438,1.2445,1.3025,1.3135,1.3419,1.4378,1.5367,1.614,1.6532,1.7364,1.8008,1.8008,1.8008,1.8008,1.8008,1.8008,1.8008,1.8008,1.8008,1.8008,1.8008,1.8008,1.8008,1.8008,1.8008,1.8008,1.8008,1.8008,1.8008,1.8008,1.8008,1.8168,1.8496,1.9044,1.9464,1.9814,2.0009,2.0074,2.0074,1.9716,1.9562,1.1383,1.2011,1.2886,1.271,1.2522,1.1919,0.0,0.0,0.9079,0.7759,0.7564,0.7695,0.8003,0.8303,0.8791,0.0,0.0,1.0566,1.2281,1.2342,1.2585,0.0,0.0,1.4516,0.0,1.4877,1.5217,1.5217,1.5217,1.5398,1.5758,1.5784,1.5784,1.5784,1.5784,1.5784,1.5784,1.5784,1.5784,1.5784,1.5784,1.5631,1.5271,1.5357,1.519,1.4836,1.4975,1.4318,1.3259,1.4235,1.3935,1.2919,1.3854,1.4215,1.4208,1.4122,1.4088,1.4088,1.4088,1.4088,1.4088,1.4088,1.4088,1.4088,1.4088,1.4088,1.4021,1.3686,1.3367,1.3097,1.3182,1.2968,1.2952,1.3918,1.4135,1.435,1.5057,1.593,1.6602,1.6602,1.7364,1.8008,1.8008,1.8008,1.8008,1.8008,1.8008,1.8008,1.8008,1.8008,1.8008,1.8008,1.8008,1.8008,1.8008,1.8008,1.8008,1.8008,1.8008,1.8008,1.8008,1.8008,1.8008,1.8008,1.8854,1.9431,1.9694,2.0301,2.0719,2.0974,2.0719,2.059,1.1431,1.1857,1.2311,1.2305,1.187,1.1096,0.0,0.0,0.8557,0.7672,0.7715,0.7992,0.8342,0.8611,0.9092,0.9943,0.0,0.0,1.1785,1.1913,0.0,0.0,0.0,1.4001,1.4914,1.5478,1.5771,1.5771,1.5771,0.0,1.5784,1.5784,1.5784,1.5784,1.5784,1.5784,1.5784,1.5784,1.5784,1.5784,1.5784,1.5524,1.5022,1.5264,1.5077,1.4543,1.4881,1.4666,1.4122,1.476,1.4646,1.4095,1.4396,1.4516,1.4482,1.4195,1.4088,1.4088,1.4088,1.4088,1.4088,1.4088,1.4088,1.4088,1.4088,1.4088,1.4021,1.3686,1.3213,1.3013,1.3945,1.3955,1.3954,1.495,1.5163,1.5199,1.5199,1.593,1.6602,1.6602,1.7364,1.8008,1.8008,1.8008,1.8008,1.8008,1.8008,1.8008,1.8008,1.8008,1.8008,1.8008,1.8008,1.8008,1.8008,1.8008,1.8008,1.8008,1.8008,1.8008,1.8008,1.8008,1.8008,1.8008,1.8854,1.9726,2.059,2.059,2.1037,2.1877,2.1005,2.059,1.1397,1.1503,1.1727,1.1417,1.1099,1.0528,0.9352,0.9064,0.8825,0.7939,0.8023,0.8323,0.8617,0.8744,0.9092,0.9943,1.0194,0.0,0.0,0.0,0.0,1.3707,1.4249,1.481,0.0,0.0,1.5404,1.5751,1.5464,1.5411,1.5758,1.5784,1.5784,1.5784,1.5784,1.5784,1.5784,1.5784,1.5784,1.5784,1.5784,1.5524,1.5028,1.5471,1.5371,1.485,1.5344,1.511,1.4429,1.5017,1.4796,1.4135,1.4629,1.4823,1.4783,1.4496,1.4382,1.4355,1.4155,1.4088,1.4088,1.4088,1.4088,1.4088,1.4088,1.4088,1.4021,1.3686,1.3467,1.3498,1.4055,1.4126,1.4382,1.5815,1.614,1.6324,1.6975,1.7364,1.7579,1.7579,1.7794,1.8008,1.8008,1.8008,1.8008,1.8008,1.8008,1.8008,1.8008,1.8008,1.8008,1.8008,1.8008,1.8008,1.8008,1.8008,1.8008,1.8008,1.8008,1.8008,1.8008,1.8008,1.8269,1.8877,1.9748,2.0623,2.1491,2.2021,2.2433,2.2689,2.2433,2.231,0.0,1.1163,1.1406,1.1115,1.0638,0.0,0.0,0.8902,0.8598,0.8165,0.851,0.8884,0.8818,0.9078,0.9372,0.9586,1.015,1.0915,0.0,0.0,0.0,1.3527,0.0,0.0,0.0,1.5504,1.5438,1.5751,1.5491,1.5444,1.5764,1.5784,1.5784,1.5784,1.5784,1.5784,1.5784,1.5784,1.5784,1.5784,1.5784,1.5524,1.5028,1.5565,1.5511,1.5042,1.5578,1.5471,0.0,1.5411,1.5237,1.477,1.5023,1.5169,1.509,1.4796,1.4616,1.4496,1.4315,1.4175,1.4088,1.4088,1.4088,1.4088,1.4088,1.4088,1.4048,1.3861,1.3686,1.3757,1.4375,1.4645,1.5062,1.6422,1.6928,1.7285,1.7862,1.8008,1.8008,1.8008,1.8008,1.8008,1.8008,1.8008,1.8008,1.8008,1.8008,1.8008,1.8008,1.8008,1.8008,1.8008,1.8008,1.8008,1.8008,1.8008,1.8008,1.8008,1.8008,1.8008,1.8008,1.8337,1.8754,1.9299,2.0171,2.1037,2.1908,2.2689,2.3108,2.3108,2.3108,2.3108,0.0,1.0806,1.1249,1.1225,1.0386,0.0,0.0,0.0,0.0,0.8497,0.9214,0.961,0.9025,0.9633,0.9927,0.9072,1.0354,1.1269,0.0,1.1464,0.0,0.0,1.3648,0.0,1.5665,1.5758,1.5784,1.5784,1.5784,1.5784,1.5784,1.5784,1.5784,1.5784,1.5784,1.5784,1.5784,1.5784,1.5758,1.5718,1.5764,1.5504,1.4968,1.5545,1.5511,1.5042,1.5578,1.5784,1.5784,1.5784,1.5784,1.5758,1.5531,1.5431,1.5391,1.5149,1.481,1.4549,1.4529,1.4329,1.4088,1.4088,1.4088,1.4088,1.4088,1.4088,1.4088,1.4088,1.3888,1.3865,1.4831,1.5412,1.5905,1.6792,1.7518,1.8047,1.8018,1.8008,1.8008,1.8008,1.8008,1.8008,1.8008,1.8008,1.8008,1.8008,1.8008,1.8008,1.8008,1.8008,1.8008,1.8008,1.8008,1.8008,1.8008,1.8008,1.8008,1.8008,1.8008,1.8008,1.8008,1.8854,1.9332,1.9398,2.0301,2.1175,2.2002,2.2732,2.3108,2.3108,2.3108,2.3108,1.0379,0.0,1.0683,1.032,0.9867,0.9549,0.0,0.0,0.0,0.0,0.0,1.0648,1.0248,1.0681,1.0909,1.0285,1.1089,1.1752,1.1618,0.0,0.0,1.3113,1.4282,1.511,1.5164,1.5571,1.5784,1.5784,1.5784,1.5784,1.5784,1.5784,1.5784,1.5784,1.5784,1.5784,1.5784,1.5784,1.5605,1.517,1.5618,1.5291,1.4329,1.5357,1.5511,1.5042,1.5578,1.5784,1.5784,1.5784,1.5784,1.5771,1.5752,1.5732,1.5691,1.5398,1.511,1.4874,1.4596,1.4329,1.4088,1.4088,1.4088,1.4088,1.4088,1.4088,1.4088,1.4088,1.4035,1.4171,1.4889,1.5756,1.6538,1.6915,1.7769,1.8364,1.8076,1.8008,1.8008,1.8008,1.8008,1.8008,1.8008,1.8008,1.8008,1.8008,1.8008,1.8008,1.8008,1.8008,1.8008,1.8008,1.8008,1.8008,1.8008,1.8008,1.8008,1.8008,1.8008,1.8008,1.8008,1.8854,1.9617,2.0268,2.176,2.2628,2.2823,2.3017,2.3108,2.3108,2.3108,2.3108,1.0303,1.0374,1.054,1.0863,1.0356,0.9981,0.0,0.0,0.0,0.0,0.0,1.1,1.0658,1.0847,1.0922,1.064,1.1102,0.0,0.0,0.0,1.3227,1.3213,1.4028,1.4689,0.0,1.5491,1.5784,1.5784,1.5784,1.5784,1.5784,1.5784,1.5784,1.5784,1.5784,1.5784,1.5784,1.5784,1.5538,1.5015,1.5551,1.5357,1.4522,1.5418,1.5658,1.5364,1.5411,1.5585,1.5758,1.5538,1.5585,1.5784,1.5784,1.5784,1.5764,1.5651,1.5411,1.5124,1.4823,1.4442,1.4088,1.4088,1.4088,1.4088,1.4088,1.4088,1.4088,1.4088,1.4088,1.4174,1.4531,1.5685,1.6671,1.6575,1.7596,1.849,1.8105,1.8008,1.8008,1.8008,1.8008,1.8008,1.8008,1.8008,1.8008,1.8008,1.8008,1.8008,1.8008,1.8008,1.8008,1.8008,1.8008,1.8008,1.8008,1.8008,1.8008,1.8008,1.8371,1.8596,1.8596,1.9814,2.0878,2.1741,2.2628,2.3108,2.3108,2.3108,2.3108,2.3108,2.3108,2.3108,1.0303,1.04,1.0802,1.1999,1.1249,1.0673,1.2369,0.0,0.0,0.0,0.0,0.0,0.0,1.1133,0.0,1.0707,0.0,0.0,1.2251,1.2744,1.3072,1.3253,1.3653,0.0,1.4948,1.5491,1.5784,1.5784,1.5784,1.5784,1.5784,1.5784,1.5784,1.5784,1.5784,1.5784,1.5784,1.5784,1.5538,1.5015,1.5551,1.5524,1.5028,1.5565,1.5784,1.5751,1.5311,1.5378,1.5744,1.5297,1.5384,1.5784,1.5784,1.5784,1.5784,1.5784,1.5645,1.5351,1.501,1.4543,1.4088,1.4088,1.4088,1.4088,1.4088,1.4088,1.4124,1.4292,1.4208,1.4088,1.4088,1.542,1.6686,1.6209,1.7431,1.8588,1.8159,1.8057,1.8008,1.8008,1.8008,1.8008,1.8008,1.8008,1.8008,1.8008,1.8008,1.8008,1.8008,1.8008,1.8008,1.8008,1.8008,1.8008,1.8008,1.8008,1.8076,1.8202,1.8877,1.9431,1.9694,2.1101,2.2292,2.3065,2.3108,2.3108,2.3108,2.3108,2.3108,2.3108,2.3108,2.3108,1.0303,1.0831,1.1614,1.2573,1.1791,1.1325,0.0,0.0,0.0,0.0,0.0,0.0,0.0,1.3505,1.2973,0.0,0.0,1.1993,0.0,0.0,1.3808,1.356,0.0,1.5351,1.5042,1.5491,1.5784,1.5784,1.5784,1.5784,1.5784,1.5784,1.5784,1.5784,1.5784,1.5784,1.5784,1.5784,1.5538,1.5015,1.5551,1.5524,1.5028,1.5565,1.5784,1.5778,1.5684,1.5698,1.5771,1.5732,1.5752,1.5784,1.5784,1.5784,1.5784,1.5784,1.5645,1.5317,1.4776,1.4369,1.4088,1.4088,1.4088,1.4088,1.4088,1.4088,1.4292,1.522,1.4817,1.4088,1.4088,1.564,1.712,1.6702,1.7909,1.9072,1.8598,1.8227,1.8008,1.8008,1.8008,1.8008,1.8008,1.8008,1.8008,1.8008,1.8008,1.8008,1.8008,1.8008,1.8008,1.8008,1.8008,1.8008,1.8008,1.8008,1.8303,1.9044,1.9243,1.9944,2.1428,2.1753,2.2292,2.3065,2.3108,2.3108,2.3108,2.3108,2.3108,2.3108,2.3108,2.3108,1.0566,1.0929,1.178,1.406,1.3132,1.247,0.0,0.0,0.0,0.0,0.0,0.0,0.0,0.0,1.2258,1.1777,0.0,1.3106,1.3213,1.3728,1.4095,0.0,0.0,1.5257,1.5035,1.5491,1.5784,1.5784,1.5784,1.5784,1.5784,1.5784,1.5784,1.5784,1.5784,1.5784,1.5784,1.5784,1.5538,1.5015,1.5551,1.5524,1.5028,1.5565,1.5784,1.5764,1.5498,1.5538,1.5758,1.5491,1.5545,1.5784,1.5784,1.5784,1.5784,1.5784,1.5545,1.5124,1.485,1.4469,1.4088,1.4088,1.4088,1.4088,1.4088,1.4489,1.5054,1.5579,1.5338,1.5103,1.5677,1.7017,1.8125,1.7657,1.8598,1.9443,1.8744,1.8451,1.8247,1.8057,1.8008,1.8008,1.8008,1.8008,1.8008,1.8008,1.8008,1.8008,1.8008,1.8008,1.8008,1.8008,1.8008,1.8008,1.8008,1.8008,1.8553,1.9911,2.043,2.1259,2.2506,2.2537,2.272,2.3078,2.3108,2.3108,2.3108,2.3108,2.3108,2.3108,2.3108,2.3108,1.082,1.1133,1.2051,1.493,0.0,0.0,0.0,0.0,0.0,0.0,0.0,0.0,0.0,1.2021,0.0,1.2385,1.334,1.3975,1.3913,1.4208,1.4502,1.4745,1.503,1.5209,1.5209,1.5571,1.5784,1.5784,1.5784,1.5784,1.5784,1.5784,1.5784,1.5784,1.5784,1.5784,1.5784,1.5784,1.5605,1.517,1.5618,1.5591,1.5177,1.5625,1.5784,1.5758,1.5357,1.5418,1.5792,1.5351,1.5431,1.5784,1.5784,1.5784,1.5771,1.5752,1.5404,1.4995,1.4928,1.4522,1.4088,1.4088,1.4088,1.4088,1.4088,1.4859,1.5737,1.5985,1.6273,1.6593,1.7172,1.8149,1.8924,1.853,1.9211,1.9707,1.8919,1.8676,1.8481,1.8086,1.8008,1.8008,1.8008,1.8008,1.8008,1.8008,1.8008,1.8008,1.8008,1.8008,1.8008,1.8008,1.8008,1.8008,1.8008,1.8202,1.8944,2.0494,2.1585,2.2445,2.3078,2.3108,2.3108,2.3108,2.3108,2.3108,2.3108,2.3108,2.3108,2.3108,2.3108,2.3108,1.0878,1.1807,1.2988,1.3987,1.3216,0.0,1.7603,1.539,0.0,1.6253,0.0,0.0,0.0,1.3283,1.2412,1.3046,1.34,1.3913,1.48,0.0,1.5411,1.5651,1.5752,1.5718,1.5718,1.5758,1.5784,1.5784,1.5784,1.5784,1.5784,1.5784,1.5784,1.5784,1.5784,1.5784,1.5784,1.5784,1.5758,1.5718,1.5758,1.5758,1.5718,1.5764,1.5784,1.5778,1.5738,1.5744,1.5778,1.5738,1.5792,1.5784,1.5784,1.5784,1.5751,1.5524,1.5231,1.4968,1.4649,1.4349,1.4088,1.4088,1.4088,1.4088,1.4088,1.4859,1.5902,1.6887,1.794,1.855,1.7536,1.8149,1.8997,1.896,1.9418,1.9785,1.9336,1.8926,1.8481,1.8086,1.8008,1.8008,1.8008,1.8008,1.8008,1.8008,1.8008,1.8008,1.8008,1.8008,1.8008,1.8008,1.8008,1.8008,1.8008,1.8754,1.9595,2.0526,2.2113,2.3047,2.3108,2.3108,2.3108,2.3108,2.3108,2.3108,2.3108,2.3108,2.3108,2.3108,2.3108,2.3108,1.1628,1.2295,1.334,1.5245,1.4543,0.0,0.0,1.5272,1.3131,1.651,1.4446,0.0,0.0,0.0,1.3006,1.3373,1.384,1.4386,1.5137,1.5331,1.5504,1.5792,1.5784,1.5784,1.5784,1.5784,1.5784,1.5784,1.5784,1.5784,1.5784,1.5784,1.5784,1.5784,1.5784,1.5784,1.5784,1.5784,1.5784,1.5784,1.5784,1.5784,1.5784,1.5784,1.5784,1.5784,1.5784,1.5784,1.5784,1.5784,1.5784,1.5784,1.5784,1.5718,1.5545,1.5438,1.5097,1.4669,1.4563,1.4329,1.4088,1.4088,1.4088,1.4088,1.4088,1.4859,1.5902,1.7009,1.8109,1.9036,1.9274,1.9678,2.0001,2.0001,2.0159,2.0195,1.9766,1.9346,1.8916,1.8451,1.8184,1.8008,1.8008,1.8008,1.8008,1.8008,1.8008,1.8008,1.8008,1.8008,1.8008,1.8008,1.8008,1.8008,1.8008,1.9299,2.0236,2.059,2.171,2.2567,2.3078,2.3108,2.3108,2.3108,2.3108,2.3108,2.3108,2.3108,2.3108,2.3108,2.3108,2.3108,1.2125,1.2549,1.3433,1.5576,0.0,0.0,1.7886,1.586,1.4081,1.6864,1.4934,1.2803,1.2956,0.0,0.0,0.0,1.434,1.4723,1.5311,1.5478,1.5605,1.5758,1.5784,1.5784,1.5784,1.5784,1.5784,1.5784,1.5784,1.5784,1.5784,1.5784,1.5784,1.5784,1.5784,1.5784,1.5784,1.5784,1.5784,1.5784,1.5784,1.5784,1.5784,1.5784,1.5784,1.5784,1.5784,1.5784,1.5784,1.5784,1.5784,1.5771,1.5732,1.5571,1.5378,1.519,1.4863,1.4502,1.4416,1.4255,1.4088,1.4088,1.4088,1.4088,1.4088,1.4859,1.5902,1.7009,1.8109,1.9244,2.0323,2.0605,2.0605,2.0605,2.0605,2.0488,2.001,1.958,1.916,1.8685,1.8301,1.8008,1.8008,1.8008,1.8008,1.8008,1.8008,1.8008,1.8008,1.8008,1.8008,1.8008,1.8008,1.811,1.8395,1.9497,2.043,2.0974,2.1553,2.2261,2.3078,2.3108,2.3108,2.3108,2.3108,2.3108,2.3108,2.3108,2.3108,2.3108,2.3108,2.3108,1.2233,1.2568,1.3228,1.45,0.0,0.0,1.7808,1.7305,1.6395,1.7479,1.6625,1.5853,1.6313,1.4875,0.0,1.5152,1.4881,1.473,1.5317,1.5651,1.5784,1.5784,1.5784,1.5784,1.5784,1.5784,1.5784,1.5784,1.5784,1.5784,1.5784,1.5784,1.5784,1.5784,1.5784,1.5784,1.5784,1.5784,1.5784,1.5784,1.5784,1.5784,1.5784,1.5784,1.5784,1.5784,1.5784,1.5784,1.5784,1.5784,1.5784,1.5751,1.5504,1.5391,1.5317,1.4736,1.4522,1.4476,1.4188,1.4088,1.4088,1.4088,1.4088,1.4088,1.413,1.4852,1.5902,1.7009,1.8109,1.9234,2.0323,2.0605,2.0605,2.0605,2.0605,2.0488,2.0019,1.959,1.916,1.8695,1.8266,1.8018,1.8008,1.8008,1.8008,1.8008,1.8008,1.8008,1.8008,1.8008,1.8008,1.8008,1.8008,1.8371,1.9233,1.9299,2.0074,2.1784,2.1908,2.2261,2.3078,2.3108,2.3108,2.3108,2.3108,2.3108,2.3108,2.3108,2.3108,2.3108,2.3108,2.3108,1.3779,1.3896,0.0,1.498,0.0,0.0,0.0,1.6515,0.0,0.0,1.6569,1.6354,1.6279,1.6028,0.0,1.5977,1.5514,1.5271,1.5651,1.5724,1.5784,1.5784,1.5784,1.5784,1.5784,1.5784,1.5784,1.5784,1.5784,1.5784,1.5784,1.5784,1.5784,1.5784,1.5784,1.5784,1.5784,1.5784,1.5784,1.5784,1.5784,1.5784,1.5784,1.5784,1.5784,1.5784,1.5784,1.5784,1.5784,1.5784,1.5712,1.5518,1.5431,1.5144,1.4756,1.4583,1.4389,1.4202,1.4115,1.4088,1.4088,1.4088,1.4088,1.425,1.5019,1.4936,1.4943,1.6772,1.7545,1.8069,1.9195,2.004,2.0605,2.0605,2.0605,2.0566,2.0439,2.0029,1.9609,1.918,1.875,1.8325,1.8057,1.8008,1.8008,1.8008,1.8008,1.8008,1.8008,1.8008,1.8236,1.8854,1.8911,1.9266,2.0139,2.0782,2.1365,2.1877,2.2445,2.2854,2.3078,2.3108,2.3108,2.3108,2.3108,2.3108,2.3108,2.3108,2.3108,2.3108,2.3108,2.3108,1.458,1.459,0.0,1.6278,1.6582,1.6602,1.7087,0.0,0.0,0.0,1.8053,1.7837,1.7722,1.7321,0.0,1.66,1.6004,1.5631,1.5758,1.5784,1.5784,1.5784,1.5784,1.5784,1.5784,1.5784,1.5784,1.5784,1.5784,1.5784,1.5784,1.5784,1.5784,1.5784,1.5784,1.5784,1.5784,1.5784,1.5784,1.5784,1.5784,1.5784,1.5784,1.5784,1.5784,1.5784,1.5784,1.5784,1.5771,1.5705,1.5558,1.5378,1.5144,1.483,1.4502,1.4389,1.4242,1.4166,1.4573,1.4734,1.4817,1.5228,1.5387,1.5511,1.6157,1.5876,1.576,1.7496,1.7989,1.823,1.9362,2.0118,2.0605,2.0605,2.0605,2.0605,2.0605,2.0225,1.9844,1.959,1.9043,1.852,1.8266,1.8115,1.8008,1.8008,1.8008,1.8008,1.8008,1.8008,1.8337,1.9199,1.9299,1.9781,2.1005,2.1596,2.2044,2.2353,2.2823,2.3108,2.3108,2.3108,2.3108,2.3108,2.3108,2.3108,2.3108,2.3108,2.3108,2.3108,2.3108,2.3108,1.4932,1.496,1.5459,1.7779,1.7246,0.0,1.792,1.8184,1.8721,2.0761,0.0,1.9789,2.0168,1.8781,1.7515,1.7251,1.6511,1.592,1.5825,1.5784,1.5784,1.5784,1.5784,1.5784,1.5784,1.5784,1.5784,1.5784,1.5784,1.5784,1.5784,1.5784,1.5784,1.5784,1.5784,1.5784,1.5784,1.5784,1.5784,1.5784,1.5784,1.5784,1.5784,1.5784,1.5784,1.5784,1.5751,1.5744,1.5718,1.5478,1.5344,1.5264,1.473,1.4502,1.4449,1.4302,1.425,1.4412,1.5462,1.5869,1.6026,1.6968,1.7302,1.7334,1.7415,1.7374,1.7545,1.8678,1.8997,1.9244,2.0206,2.0527,2.0605,2.0605,2.0605,2.0605,2.0605,2.0254,1.9961,1.9922,1.9212,1.8646,1.8607,1.8256,1.8008,1.8008,1.8008,1.8008,1.8008,1.8008,1.8361,1.9299,1.9431,2.0107,2.1877,2.2002,2.2322,2.3035,2.3108,2.3108,2.3108,2.3108,2.3108,2.3108,2.3108,2.3108,2.3108,2.3108,2.3108,2.3108,2.3108,2.3108,1.6035,1.6055,0.0,0.0,1.6602,1.7187,1.9492,1.9492,1.9434,2.0888,2.0789,2.0716,2.1771,2.1133,2.0086,1.91,1.8034,1.6943,1.592,1.5784,1.5784,1.5784,1.5784,1.5784,1.5784,1.5784,1.5784,1.5784,1.5784,1.5784,1.5784,1.5784,1.5784,1.5784,1.5784,1.5784,1.5784,1.5784,1.5784,1.5784,1.5784,1.5784,1.5784,1.5784,1.5784,1.5764,1.5585,1.5491,1.5471,1.5223,1.4923,1.4696,1.4569,1.4382,1.4296,1.5082,1.5379,1.5496,1.656,1.6968,1.7009,1.7212,1.7302,1.7464,1.835,1.8029,1.7545,1.8678,1.8997,1.9036,1.9283,1.9962,2.0605,2.0605,2.0605,2.0605,2.0605,2.0537,2.0322,1.998,1.9502,1.9043,1.8656,1.8256,1.8008,1.8008,1.8008,1.8008,1.8008,1.8008,1.8596,2.0139,2.0333,2.0994,2.2702,2.2854,2.2914,2.3078,2.3108,2.3108,2.3108,2.3108,2.3108,2.3108,2.3108,2.3108,2.3108,2.3108,2.3108,2.3108,2.3108,2.3108,1.5829,0.0,0.0,1.7435,0.0,1.8809,1.9774,1.9959,2.0156,2.1015,2.1211,2.1361,2.184,2.1565,2.089,1.9716,1.8948,1.8319,1.7662,1.707,1.6716,1.6716,1.615,1.5784,1.5784,1.5784,1.5784,1.5784,1.5784,1.5784,1.5784,1.5784,1.5784,1.5784,1.5784,1.5784,1.5784,1.5784,1.5784,1.5784,1.5691,1.5545,1.5424,1.5705,1.5752,1.5611,1.5464,1.5317,1.5209,1.487,1.4663,1.4502,1.4369,1.4222,1.4208,1.5296,1.5696,1.5944,1.7536,1.8109,1.8189,1.8709,1.8868,1.8988,1.9599,1.9353,1.8988,1.9599,1.9766,1.9766,1.9766,2.0167,2.0605,2.0605,2.0605,2.0605,2.0605,2.0605,2.0537,2.0273,1.9883,1.9453,1.9023,1.8428,1.8008,1.8008,1.8008,1.8008,1.8008,1.8008,1.8496,1.9857,2.0365,2.1132,2.2414,2.2884,2.3108,2.3108,2.3108,2.3108,2.3108,2.3108,2.3108,2.3108,2.3108,2.3108,2.3108,2.3108,2.3108,2.3108,2.3108,2.3108,1.5205,0.0,1.7204,1.8877,1.9744,0.0,1.9637,1.9979,2.0518,2.1073,2.1523,2.1701,2.1459,2.1467,2.1114,1.9895,1.9765,1.9716,1.9542,1.8634,1.8002,1.8002,1.6897,1.6109,1.6109,1.592,1.5784,1.5784,1.5784,1.5784,1.5784,1.5785,1.5752,1.5752,1.5705,1.5678,1.5678,1.5678,1.5678,1.5678,1.5438,1.5197,1.5028,1.5464,1.5545,1.5317,1.5271,1.511,1.4908,1.4563,1.4442,1.4422,1.4182,1.4088,1.4208,1.5296,1.582,1.6273,1.831,1.9116,1.9402,2.0323,2.0605,2.0605,2.0605,2.0605,2.0605,2.0605,2.0605,2.0605,2.0605,2.0605,2.0605,2.0605,2.0605,2.0605,2.0605,2.0605,2.0605,2.0605,2.0215,1.9785,1.9365,1.8633,1.8081,1.8081,1.8057,1.8008,1.8008,1.8008,1.8337,1.9199,2.0074,2.0942,2.1815,2.2641,2.3108,2.3108,2.3108,2.3108,2.3108,2.3108,2.3108,2.3108,2.3108,2.3108,2.3108,2.3108,2.3108,2.3108,2.3108,2.3108,0.0,0.0,1.7617,0.0,1.8818,1.8711,0.0,0.0,1.9795,0.0,2.1239,2.1384,2.1745,2.208,2.1916,2.0753,2.0846,2.0702,1.9633,1.936,1.9268,1.9268,1.818,1.7458,1.7458,1.6433,1.5784,1.5784,1.5784,1.5784,1.5784,1.5591,1.5451,1.5451,1.5211,1.5122,1.5122,1.5122,1.5122,1.5122,1.5082,1.5042,1.5015,1.5089,1.5102,1.5055,1.475,1.4616,1.4556,1.4262,1.4142,1.4142,1.4102,1.4088,1.4208,1.5296,1.6273,1.7253,1.855,1.9599,2.0401,2.0557,2.0605,2.0605,2.0605,2.0605,2.0605,2.0605,2.0605,2.0605,2.0605,2.0605,2.0605,2.0605,2.0605,2.0605,2.0605,2.0605,2.0605,2.0605,2.0215,1.9785,1.9365,1.8877,1.852,1.852,1.8208,1.8008,1.8008,1.8008,1.8337,1.9199,2.0074,2.0942,2.1815,2.2641,2.3108,2.3108,2.3108,2.3108,2.3108,2.3108,2.3108,2.3108,2.3108,2.3108,2.3108,2.3108,2.3108,2.3108,2.3108,2.3108,1.5488,1.625,1.722,0.0,1.8994,1.8457,2.0214,1.994,1.959,2.0644,2.0859,2.1074,2.1758,2.2041,2.1981,2.1457,2.1514,2.1455,2.093,2.021,1.9886,2.0147,1.9056,1.8297,1.8297,1.7255,1.6494,1.6284,1.5698,1.5344,1.5344,1.5788,1.6064,1.6064,1.5981,1.591,1.591,1.5308,1.4921,1.4716,1.4716,1.4629,1.4519,1.4519,1.4563,1.471,1.4576,1.4761,1.5127,1.4382,1.4447,1.4936,1.4328,1.4088,1.4208,1.5296,1.5985,1.6642,1.839,1.9323,1.9805,2.0401,2.0605,2.0605,2.0605,2.0605,2.0605,2.0605,2.0605,2.0605,2.0605,2.0605,2.0605,2.0605,2.0605,2.0605,2.0605,2.0605,2.0605,2.0605,2.0215,1.9853,1.9668,1.9287,1.888,1.8637,1.8442,1.8237,1.8037,1.8008,1.8337,1.9199,2.0074,2.0942,2.1815,2.2641,2.3108,2.3108,2.3108,2.3108,2.3108,2.3108,2.3108,2.3108,2.3108,2.3108,2.3108,2.3108,2.3108,2.3108,2.3108,2.3108,0.0,0.0,1.6418,1.9118,1.8623,1.793,0.0,0.0,1.9209,0.0,2.0458,2.0811,2.1466,2.1641,2.1719,2.1719,2.1816,2.1885,2.1885,2.1089,2.0627,2.0973,1.9861,1.9111,1.9111,1.8097,1.733,1.7041,1.6257,1.5828,1.5828,1.6528,1.6904,1.6904,1.682,1.6774,1.6774,1.5719,1.5053,1.4776,1.4532,1.4295,1.4088,1.4088,1.4208,1.4409,1.4409,1.4738,1.5255,1.4734,1.4977,1.5662,1.5103,1.4901,1.4985,1.5496,1.5861,1.6355,1.798,1.8758,1.9195,2.0245,2.0605,2.0605,2.0605,2.0605,2.0605,2.0605,2.0605,2.0605,2.0605,2.0605,2.0605,2.0605,2.0605,2.0605,2.0605,2.0605,2.0605,2.0605,2.0303,2.0078,2.0078,1.9727,1.9297,1.8867,1.8676,1.8451,1.8057,1.8008,1.8337,1.9199,2.0074,2.0942,2.1815,2.2641,2.3108,2.3108,2.3108,2.3108,2.3108,2.3108,2.3108,2.3108,2.3108,2.3108,2.3108,2.3108,2.3108,2.3108,2.3108,2.3108,0.0,1.4873,0.0,1.709,1.6887,0.0,0.0,0.0,1.832,1.918,2.0038,2.0615,2.0664,2.0977,2.1229,2.1229,2.1611,2.1885,2.1885,2.1834,2.1812,2.1821,2.0722,1.9936,1.9936,1.8862,1.8137,1.8121,1.807,1.8035,1.8035,1.7847,1.7744,1.7744,1.7409,1.727,1.727,1.6203,1.5665,1.5643,1.4594,1.4102,1.4088,1.4088,1.4095,1.4108,1.4108,1.4144,1.425,1.522,1.5662,1.5779,1.6764,1.7139,1.7017,1.6067,1.6355,1.7212,1.7342,1.8109,1.9195,2.0245,2.0605,2.0605,2.0605,2.0605,2.0605,2.0605,2.0605,2.0605,2.0605,2.0605,2.0605,2.0605,2.0605,2.0605,2.0605,2.0605,2.0605,2.0605,2.0586,2.0566,2.0566,2.0166,1.9736,1.9316,1.8861,1.8451,1.8057,1.8008,1.8337,1.9199,2.0074,2.0942,2.1815,2.2641,2.3108,2.3108,2.3108,2.3108,2.3108,2.3108,2.3108,2.3108,2.3108,2.3108,2.3108,2.3108,2.3108,2.3108,2.3108,2.3108,0.0,0.0,0.0,1.6465,1.5889,1.5234,1.6794,1.7402,1.7695,1.8032,1.9431,2.0439,1.9881,2.0322,2.0801,2.0801,2.0977,2.1075,2.1075,2.1075,2.1143,2.1435,2.1039,2.0775,2.0775,1.976,1.8981,1.8737,1.7527,1.7017,1.7573,1.7681,1.7974,1.8542,1.8469,1.8029,1.7302,1.6927,1.6723,1.6723,1.6322,1.6165,1.6165,1.6165,1.5794,1.5137,1.5137,1.5137,1.5179,1.5538,1.6108,1.6764,1.7139,1.7302,1.7253,1.6887,1.6968,1.7415,1.8149,1.8678,1.9195,2.0245,2.0605,2.0605,2.0605,2.0605,2.0605,2.0605,2.0605,2.0605,2.0605,2.0605,2.0605,2.0605,2.0605,2.0605,2.0605,2.0605,2.0605,2.0605,2.0605,2.0605,2.0605,2.0478,2.0185,1.9756,1.9326,1.8896,1.8432,1.8174,1.8563,1.9977,2.0398,2.1164,2.2537,2.2944,2.3108,2.3108,2.3108,2.3108,2.3108,2.3108,2.3108,2.3108,2.3108,2.3108,2.3108,2.3108,2.3108,2.3108,2.3108,2.3108,1.3942,0.0,0.0,0.0,0.0,1.4241,1.5537,1.665,1.7383,1.7383,1.9118,2.0429,1.9862,2.0224,2.0605,2.0605,2.0605,2.0605,2.0605,2.0605,2.0713,2.0977,2.1016,2.1016,2.1016,2.0339,1.9808,1.9539,1.8288,1.7791,1.8395,1.8577,1.8925,1.9502,1.952,1.9155,1.843,1.806,1.7868,1.7868,1.7496,1.7302,1.7302,1.7302,1.6927,1.6232,1.6232,1.5827,1.5171,1.5538,1.6314,1.7334,1.7698,1.8101,1.8341,1.7989,1.7868,1.7989,1.8758,1.8997,1.9195,2.0245,2.0605,2.0605,2.0605,2.0605,2.0605,2.0605,2.0605,2.0605,2.0605,2.0605,2.0605,2.0605,2.0605,2.0605,2.0605,2.0605,2.0605,2.0605,2.0605,2.0605,2.0605,2.0605,2.0458,1.998,1.9678,1.9287,1.8676,1.8354,1.8816,2.042,2.059,2.129,2.2944,2.3108,2.3108,2.3108,2.3108,2.3108,2.3108,2.3108,2.3108,2.3108,2.3108,2.3108,2.3108,2.3108,2.3108,2.3108,2.3108,2.3108,0.0,0.0,0.0,0.0,0.0,0.0,1.3977,0.0,1.7347,1.7324,1.9059,2.0556,2.0566,2.0586,2.0605,2.0605,2.0605,2.0605,2.0605,2.0605,2.0605,2.0605,2.0605,2.0605,2.0605,2.0605,2.0605,2.0605,2.0586,2.0576,2.0605,2.0605,2.0605,2.0605,2.0605,2.0605,2.0605,1.9559,1.9045,1.9036,1.7948,1.7415,1.7415,1.7415,1.7374,1.7342,1.7342,1.6165,1.4292,1.5338,1.6355,1.7423,1.855,1.9638,2.0479,1.9441,1.9045,1.9045,1.9045,1.9045,1.9244,2.0245,2.0605,2.0605,2.0605,2.0605,2.0605,2.0605,2.0605,2.0605,2.0605,2.0605,2.0605,2.0605,2.0605,2.0605,2.0605,2.0605,2.0605,2.0605,2.0605,2.0605,2.0605,2.0605,2.0458,2.0,1.9922,1.9572,1.8724,1.8607,1.9105,2.0453,2.059,2.129,2.2944,2.3108,2.3108,2.3108,2.3108,2.3108,2.3108,2.3108,2.3108,2.3108,2.3108,2.3108,2.3108,2.3108,2.3108,2.3108,2.3108,2.3108,1.2905,0.0,0.0,0.0,0.0,0.0,1.3203,0.0,1.5596,1.5889,1.7666,1.9268,1.958,2.0184,2.0605,2.0605,2.0605,2.0605,2.0605,2.0605,2.0605,2.0605,2.0605,2.0605,2.0605,2.0605,2.0605,2.0605,2.0028,1.995,2.0566,2.0605,2.0605,2.0605,2.0605,2.0605,2.0605,2.0323,2.0157,2.0157,1.9835,1.9678,1.9678,1.9678,1.9274,1.851,1.851,1.7747,1.6445,1.6723,1.7009,1.7423,1.855,1.9638,2.0566,2.0284,2.0157,2.0157,2.0157,2.0157,2.0206,2.0489,2.0605,2.0605,2.0605,2.0605,2.0605,2.0605,2.0605,2.0605,2.0605,2.0605,2.0605,2.0605,2.0605,2.0605,2.0605,2.0605,2.0605,2.0605,2.0605,2.0605,2.0605,2.0605,2.0566,2.0449,2.0117,1.9717,1.918,1.8792,1.9105,2.0453,2.059,2.129,2.2944,2.3108,2.3108,2.3108,2.3108,2.3108,2.3108,2.3108,2.3108,2.3108,2.3108,2.3108,2.3108,2.3108,2.3108,2.3108,2.3108,2.3108,0.0,0.0,0.0,0.0,0.0,0.0,1.2905,1.4297,1.5664,0.0,1.7779,1.9355,1.9072,1.9424,1.9756,1.9756,1.9756,1.9951,2.0527,2.0605,2.0605,2.0605,2.0605,2.0605,2.0605,2.0605,2.0605,2.0605,2.0136,2.0077,2.0576,2.0605,2.0605,2.0605,2.0605,2.0605,2.0605,2.0605,2.0605,2.0605,2.0605,2.0605,2.0605,2.0605,2.0245,1.9687,1.9687,1.9036,1.8029,1.8029,1.8029,1.8069,1.8758,1.9638,2.0605,2.0605,2.0605,2.0605,2.0605,2.0605,2.0605,2.0605,2.0605,2.0605,2.0605,2.0605,2.0605,2.0605,2.0605,2.0605,2.0605,2.0605,2.0605,2.0605,2.0605,2.0605,2.0605,2.0605,2.0605,2.0605,2.0605,2.0605,2.0605,2.0605,2.0605,2.0605,2.039,2.0029,1.96,1.918,1.9249,2.0225,2.0476,2.1132,2.2476,2.2914,2.3108,2.3108,2.3108,2.3108,2.3108,2.3108,2.3108,2.3108,2.3108,2.3108,2.3108,2.3108,2.3108,2.3108,2.3108,2.3108,0.0,0.0,0.0,0.0,1.2905,0.0,1.2905,1.4658,1.6317,0.0,1.833,1.9619,1.8578,1.8393,1.8393,1.8393,1.8393,1.8851,2.0273,2.0546,2.0566,2.0478,2.0546,2.0605,2.0605,2.0605,2.0605,2.0605,2.0605,2.0605,2.0605,2.0605,2.0605,2.0605,2.0605,2.0605,2.0605,2.0605,2.0605,2.0605,2.0605,2.0605,2.0605,2.0605,2.0605,2.0605,2.0605,2.004,1.9195,1.9195,1.9125,1.8997,1.8997,1.9638,2.0605,2.0605,2.0605,2.0605,2.0605,2.0605,2.0605,2.0605,2.0605,2.0605,2.0605,2.0605,2.0605,2.0605,2.0605,2.0605,2.0605,2.0605,2.0605,2.0605,2.0605,2.0605,2.0605,2.0605,2.0605,2.0605,2.0605,2.0605,2.0605,2.0605,2.0605,2.0605,2.0605,2.0487,2.0112,1.9688,1.964,2.016,2.0522,2.1101,2.197,2.2702,2.3108,2.3108,2.3108,2.3108,2.3108,2.3108,2.3108,2.3108,2.3108,2.3108,2.3108,2.3108,2.3108,2.3108,2.3108,2.3108,0.0,0.0,0.0,0.0,1.2905,0.0,1.2905,1.3271,1.3926,0.0,1.5596,1.6162,1.6931,1.7067,1.7067,1.7067,1.7067,1.7642,1.9307,2.0165,2.0351,1.9656,2.0184,2.0605,2.0605,2.0605,2.0605,2.0605,2.0605,2.0605,2.0605,2.0605,2.0605,2.0605,2.0605,2.0605,2.0605,2.0605,2.0605,2.0605,2.0605,2.0605,2.0605,2.0605,2.0605,2.0605,2.0605,2.0479,2.0284,2.0284,1.9766,1.8997,1.8997,1.9638,2.0605,2.0605,2.0605,2.0605,2.0605,2.0605,2.0605,2.0605,2.0605,2.0605,2.0605,2.0605,2.0605,2.0605,2.0605,2.0605,2.0605,2.0605,2.0605,2.0605,2.0605,2.0605,2.0605,2.0605,2.0605,2.0605,2.0605,2.0605,2.0605,2.0605,2.0605,2.0605,2.0605,2.0708,2.1061,2.0679,2.081,2.2003,2.1858,2.197,2.2793,2.3017,2.3108,2.3108,2.3108,2.3108,2.3108,2.3108,2.3108,2.3108,2.3108,2.3108,2.3108,2.3108,2.3108,2.3108,2.3108,2.3108,0.0,0.0,1.2905,1.2905,1.2905,0.0,0.0,1.3394,1.404,1.4676,1.5303,1.5762,1.5762,1.5762,1.5762,1.5762,1.5762,1.6133,1.7207,1.8652,1.9687,1.993,2.0341,2.0605,2.0605,2.0605,2.0605,2.0605,2.0605,2.0605,2.0605,2.0605,2.0605,2.0605,2.0605,2.0605,2.0605,2.0605,2.0605,2.0605,2.0605,2.0605,2.0605,2.0605,2.0605,2.0605,2.0605,2.0605,2.0605,2.0605,2.0284,1.9805,1.9805,2.0128,2.0605,2.0605,2.0605,2.0605,2.0605,2.0605,2.0605,2.0605,2.0605,2.0605,2.0605,2.0605,2.0605,2.0605,2.0605,2.0605,2.0605,2.0605,2.0605,2.0605,2.0605,2.0605,2.0605,2.0605,2.0605,2.0605,2.0605,2.0605,2.0605,2.0605,2.0605,2.0605,2.0605,2.0854,2.1611,2.1057,2.107,2.2215,2.2074,2.2063,2.2476,2.2884,2.3108,2.3108,2.3108,2.3108,2.3108,2.3108,2.3108,2.3108,2.3108,2.3108,2.3108,2.3108,2.3108,2.3108,2.3108,2.3108,1.3023,1.2964,1.2905,1.2905,1.2992,1.3065,0.0,0.0,0.0,1.4621,1.5445,1.5802,1.4637,1.4441,0.0,1.4307,1.4392,0.0,0.0,1.6707,1.8311,1.948,1.9764,1.9862,1.9862,2.0087,2.0331,2.0586,2.0605,2.0605,2.0605,2.0605,2.0605,2.0605,2.0605,2.0605,2.0605,2.0605,2.0605,2.0605,2.0605,2.0605,2.0605,2.0605,2.0605,2.0605,2.0605,2.0605,2.0605,2.0605,2.0605,2.0605,2.0605,2.0605,2.0605,2.0605,2.0605,2.0605,2.0605,2.0605,2.0605,2.0605,2.0605,2.0605,2.0605,2.0605,2.0605,2.0605,2.0605,2.0605,2.0605,2.0605,2.0605,2.0605,2.0605,2.0605,2.0605,2.0605,2.0605,2.0605,2.0605,2.0605,2.0605,2.0605,2.0605,2.0605,2.0605,2.0971,2.1987,2.1394,2.1252,2.2286,2.2232,2.2137,2.2137,2.2732,2.3108,2.3108,2.3108,2.3108,2.3108,2.3108,2.3108,2.3108,2.3108,2.3108,2.3108,2.3108,2.3108,2.3108,2.3108,2.3108,1.3437,1.3164,1.2905,1.2905,1.331,1.3708,1.3708,0.0,1.4557,1.4034,0.0,1.3916,1.3239,0.0,0.0,0.0,1.2842,1.3369,1.4143,1.4824,1.542,1.5937,1.6658,1.7135,1.7135,1.8159,1.9336,2.0517,2.0605,2.0605,2.0605,2.0605,2.0605,2.0605,2.0605,2.0605,2.0605,2.0605,2.0605,2.0605,2.0605,2.0605,2.0605,2.0605,2.0605,2.0605,2.0605,2.0605,2.0605,2.0605,2.0605,2.0605,2.0605,2.0605,2.0605,2.0605,2.0605,2.0605,2.0605,2.0605,2.0605,2.0605,2.0605,2.0605,2.0605,2.0605,2.0605,2.0605,2.0605,2.0605,2.0605,2.0605,2.0605,2.0605,2.0605,2.0605,2.0605,2.0605,2.0605,2.0605,2.0605,2.0605,2.0605,2.0605,2.0605,2.0605,2.0605,2.109,2.2454,2.2114,2.2263,2.3631,2.3287,2.2944,2.2944,2.3047,2.3108,2.3108,2.3108,2.3108,2.3108,2.3108,2.3108,2.3108,2.3108,2.3108,2.3108,2.3108,2.3108,2.3108,2.3108,2.3108,1.4813,1.4705,1.4346,1.4346,1.4364,1.4479,1.4831,1.4528,1.4213,1.4306,0.0,0.0,0.0,0.0,0.0,0.0,1.3008,1.3032,1.3359,0.0,1.4307,1.5946,1.6473,1.6989,1.773,1.7613,1.8032,1.9346,1.9443,1.9443,1.9443,2.0194,2.0605,2.0605,2.0605,2.0605,2.0605,2.0605,2.0605,2.0605,2.0605,2.0605,2.0605,2.0605,2.0605,2.0605,2.0605,2.0605,2.0605,2.0605,2.0605,2.0605,2.0605,2.0605,2.0605,2.0605,2.0605,2.0605,2.0605,2.0605,2.0605,2.0605,2.0605,2.0605,2.0605,2.0605,2.0605,2.0605,2.0605,2.0605,2.0605,2.0605,2.0605,2.0605,2.0605,2.0605,2.0605,2.0605,2.0605,2.0605,2.0605,2.0605,2.0605,2.0605,2.0605,2.0605,2.0605,2.0928,2.181,2.1941,2.2241,2.3151,2.3158,2.3108,2.3108,2.3108,2.3108,2.3108,2.3108,2.3108,2.3108,2.3108,2.3108,2.3108,2.3108,2.3108,2.3108,2.3108,2.3108,2.3108,2.3108,2.3108,1.6514,1.6455,1.6036,1.5761,1.5575,1.5526,1.5647,1.5083,1.4618,1.4903,1.4949,0.0,0.0,0.0,0.0,0.0,0.0,1.3341,0.0,1.3311,1.3962,1.5478,1.5956,1.6531,1.7457,1.7038,1.7087,1.8013,1.8403,1.8598,1.8598,1.9863,2.0605,2.0605,2.0605,2.0605,2.0605,2.0605,2.0605,2.0605,2.0605,2.0605,2.0605,2.0605,2.0605,2.0605,2.0605,2.0605,2.0605,2.0605,2.0605,2.0605,2.0605,2.0605,2.0605,2.0605,2.0605,2.0605,2.0605,2.0605,2.0605,2.0605,2.0605,2.0605,2.0605,2.0605,2.0605,2.0605,2.0605,2.0605,2.0605,2.0605,2.0605,2.0605,2.0605,2.0605,2.0605,2.0605,2.0605,2.0605,2.0605,2.0605,2.0605,2.0605,2.0605,2.0605,2.0818,2.1133,2.1494,2.1958,2.2419,2.2775,2.2997,2.3108,2.3108,2.3108,2.3108,2.3108,2.3108,2.3108,2.3108,2.3108,2.3108,2.3108,2.3108,2.3108,2.3108,2.3108,2.3108,2.3108,2.3108,2.3108,1.851,1.8208,1.7685,1.6631,1.681,1.6946,1.5846,1.6022,1.6238,1.5698,1.5565,1.5387,1.4812,0.0,0.0,0.0,0.0,0.0,0.0,1.4384,1.4244,1.316,1.4102,1.4891,1.4902,1.5985,1.6716,1.6755,1.7906,1.8598,1.8598,1.9863,2.0605,2.0605,2.0605,2.0605,2.0605,2.0605,2.0605,2.0605,2.0605,2.0605,2.0605,2.0605,2.0605,2.0605,2.0605,2.0605,2.0605,2.0605,2.0605,2.0605,2.0605,2.0605,2.0605,2.0605,2.0605,2.0605,2.0605,2.0605,2.0605,2.0605,2.0605,2.0605,2.0605,2.0605,2.0605,2.0605,2.0605,2.0605,2.0605,2.0605,2.0605,2.0605,2.0605,2.0605,2.0605,2.0605,2.0605,2.0605,2.0605,2.0605,2.0605,2.0605,2.0605,2.0605,2.1375,2.1924,2.1891,2.2672,2.3227,2.3081,2.3078,2.3108,2.3108,2.3108,2.3108,2.3108,2.3108,2.3108,2.3108,2.3108,2.3108,2.3108,2.3108,2.3108,2.3108,2.3108,2.3108,2.3108,2.3108,2.3108,2.0079,2.0039,1.9634,1.9251,1.8278,1.7451,1.7878,1.6587,1.5478,1.6073,1.6194,1.6129,1.5932,0.0,0.0,0.0,0.0,0.0,0.0,1.462,1.4548,1.4131,1.4126,1.4466,1.5321,1.4658,1.4531,1.5381,1.584,1.6094,1.6094,1.8115,1.9287,1.9287,2.0117,2.0605,2.0605,2.0605,2.0605,2.0605,2.0605,2.0605,2.0605,2.0605,2.0605,2.0605,2.0605,2.0605,2.0605,2.0605,2.0605,2.0605,2.0605,2.0605,2.0605,2.0605,2.0605,2.0605,2.0605,2.0605,2.0605,2.0605,2.0605,2.0605,2.0605,2.0605,2.0605,2.0605,2.0605,2.0605,2.0605,2.0605,2.0605,2.0605,2.0605,2.0605,2.0605,2.0605,2.0605,2.0605,2.0605,2.0605,2.0605,2.0605,2.0605,2.0605,2.0857,2.1059,2.1037,2.1806,2.2347,2.2308,2.2793,2.3108,2.3108,2.3108,2.3108,2.3108,2.3108,2.3108,2.3108,2.3108,2.3108,2.3108,2.3108,2.3108,2.3108,2.3108,2.3108,2.3108,2.3108,2.3108,2.1639,2.1699,2.1409,2.1025,1.9889,1.8909,1.9148,1.7967,1.6899,1.72,1.7812,1.7926,1.675,0.0,0.0,0.0,0.0,0.0,0.0,1.5344,1.5344,1.5344,1.4825,1.462,1.4977,1.4148,1.3737,1.4109,1.4531,1.4813,1.4813,1.7236,1.8598,1.8598,1.9893,2.0605,2.0605,2.0605,2.0605,2.0605,2.0605,2.0605,2.0605,2.0605,2.0605,2.0605,2.0605,2.0605,2.0605,2.0605,2.0605,2.0605,2.0605,2.0605,2.0605,2.0605,2.0605,2.0605,2.0605,2.0605,2.0605,2.0605,2.0605,2.0605,2.0605,2.0605,2.0635,2.0762,2.0723,2.0644,2.0762,2.0723,2.0605,2.0605,2.0605,2.0605,2.0605,2.0605,2.0605,2.0605,2.0605,2.0605,2.0605,2.0605,2.0605,2.0605,2.0895,2.1148,2.1332,2.1951,2.245,2.2636,2.2904,2.3108,2.3108,2.3108,2.3108,2.3108,2.3108,2.3108,2.3108,2.3108,2.3108,2.3108,2.3108,2.3108,2.3108,2.3108,2.3108,2.3108,2.3108,2.3108]}]]